[[{"header":{"parameterUnit":"m.s-1","parameterCategory":1,"la1":31.0,"la2":29.5877,"lo1":-88.7671,"lo2":-86.6584,"dy":0.0162,"dx":0.0185,"nx":115,"ny":88,"refTime":"2024-03-22T18:00:00:Z","depth":0,"parameterNumber":2,"parameterNumberName":"U-component_of_WINDS"},"data":[0.0,0.0,0.0,0.0,0.0,0.0,0.0,0.0,0.0,0.0,0.0,0.0,0.0,0.0,0.0,0.0,0.0,0.0,0.0,0.0,0.0,0.0,0.0,0.0,0.0,0.0,0.0,0.0,0.0,0.0,0.0,0.0,0.0,0.0,0.0,0.0,0.0,0.0,0.0,0.0,0.0,0.0,0.0,0.0,0.0,0.0,0.0,0.0,0.0,0.0,0.0,0.0,0.0,0.0,0.0,0.0,0.0,0.0,0.0,0.0,0.0,0.0,0.0,0.0,0.0,0.0,0.0,0.0,0.0,0.0,0.0,0.0,0.0,0.0,0.0,0.0,0.0,0.0,0.0,0.0,0.0,0.0,0.0,0.0,0.0,0.0,0.0,0.0,0.0,0.0,0.0,0.0,0.0,0.0,0.0,0.0,0.0,0.0,0.0,0.0,0.0,0.0,0.0,0.0,0.0,0.0,0.0,0.0,0.0,0.0,0.0,0.0,0.0,0.0,0.0,0.0,0.0,0.0,0.0,0.0,0.0,0.0,0.0,0.0,0.0,0.0,0.0,0.0,0.0,0.0,0.0,0.0,0.0,0.0,0.0,0.0,0.0,0.0,0.0,0.0,0.0,0.0,0.0,0.0,0.0,0.0,0.0,0.0,0.0,0.0,0.0,0.0,0.0,0.0,0.0,0.0,0.0,0.0,0.0,0.0,0.0,0.0,0.0,0.0,0.0,0.0,0.0,0.0,0.0,0.0,0.0,0.0,0.0,0.0,0.0,0.0,0.0,0.0,0.0,0.0,0.0,0.0,0.0,0.0,0.0,0.0,0.0,0.0,0.0,0.0,0.0,0.0,0.0,0.0,0.0,0.0,0.0,0.0,0.0,0.0,0.0,0.0,0.0,0.0,0.0,0.0,0.0,0.0,0.0,0.0,0.0,0.0,0.0,0.0,0.0,0.0,0.0,0.0,0.0,0.0,0.0,0.0,0.0,0.0,0.0,0.0,0.0,0.0,0.0,0.0,0.0,0.0,0.0,0.0,0.0,0.0,0.0,0.0,0.0,0.0,0.0,0.0,0.0,0.0,0.0,0.0,0.0,0.0,0.0,0.0,0.0,0.0,0.0,0.0,0.0,0.0,0.0,0.0,0.0,0.0,0.0,0.0,0.0,0.0,0.0,0.0,0.0,0.0,0.0,0.0,0.0,0.0,0.0,0.0,0.0,0.0,0.0,0.0,0.0,0.0,0.0,0.0,0.0,0.0,0.0,0.0,0.0,0.0,0.0,0.0,0.0,0.0,0.0,0.0,0.0,0.0,0.0,0.0,0.0,0.0,0.0,0.0,0.0,0.0,0.0,0.0,0.0,0.0,0.0,0.0,0.0,0.0,0.0,0.0,0.0,0.0,0.0,0.0,0.0,0.0,0.0,0.0,0.0,0.0,0.0,0.0,0.0,0.0,0.0,0.0,0.0,0.0,0.0,0.0,0.0,0.0,0.0,0.0,0.0,0.0,0.0,0.0,0.0,0.0,0.0,0.0,0.0,0.0,0.0,0.0,0.0,0.0,0.0,0.0,0.0,0.0,0.0,0.0,0.0,0.0,0.0,0.0,0.0,0.0,0.0,0.0,0.0,0.0,0.0,0.0,0.0,0.0,0.0,0.0,0.0,0.0,0.0,0.0,0.0,0.0,0.0,0.0,0.0,0.0,0.0,0.0,0.0,0.0,0.0,0.0,0.0,0.0,0.0,0.0,0.0,0.0,0.0,0.0,0.0,0.0,0.0,0.0,0.0,0.0,0.0,0.0,0.0,0.0,0.0,0.0,0.0,0.0,0.0,0.0,0.0,0.0,0.0,0.0,0.0,0.0,0.0,0.0,0.0,0.0,0.0,0.0,0.0,0.0,0.0,0.0,0.0,0.0,0.0,0.0,0.0,0.0,0.0,0.0,0.0,0.0,0.0,0.0,0.0,0.0,0.0,0.0,0.0,0.0,0.0,0.0,0.0,0.0,0.0,0.0,0.0,0.0,0.0,0.0,0.0,0.0,0.0,0.0,0.0,0.0,0.0,0.0,0.0,0.0,0.0,0.0,0.0,0.0,0.0,0.0,0.0,0.0,0.0,0.0,0.0,0.0,0.0,0.0,0.0,0.0,0.0,0.0,0.0,0.0,0.0,0.0,0.0,0.0,0.0,0.0,0.0,0.0,0.0,0.0,0.0,0.0,0.0,0.0,0.0,0.0,0.0,0.0,0.0,0.0,0.0,0.0,0.0,0.0,0.0,0.0,0.0,0.0,0.0,0.0,0.0,0.0,0.0,0.0,0.0,0.0,0.0,0.0,0.0,0.0,0.0,0.0,0.0,0.0,0.0,0.0,0.0,0.0,0.0,0.0,0.0,0.0,0.0,0.0,0.0,0.0,0.0,0.0,0.0,0.0,0.0,0.0,0.0,0.0,0.0,0.0,0.0,0.0,0.0,0.0,0.0,0.0,0.0,0.0,0.0,0.0,0.0,0.0,0.0,0.0,0.0,0.0,0.0,0.0,0.0,0.0,0.0,0.0,0.0,0.0,0.0,0.0,0.0,0.0,0.0,0.0,0.0,0.0,0.0,0.0,0.0,0.0,0.0,0.0,0.0,0.0,0.0,0.0,0.0,0.0,0.0,0.0,0.0,0.0,0.0,0.0,0.0,0.0,0.0,0.0,0.0,0.0,0.0,0.0,0.0,0.0,0.0,0.0,0.0,0.0,0.0,0.0,0.0,0.0,0.0,0.0,0.0,0.0,0.0,0.0,0.0,0.0,0.0,0.0,0.0,0.0,0.0,0.0,0.0,0.0,0.0,0.0,0.0,0.0,0.0,0.0,0.0,0.0,0.0,0.0,0.0,0.0,0.0,0.0,0.0,0.0,0.0,0.0,0.0,0.0,0.0,0.0,0.0,0.0,0.0,0.0,0.0,0.0,0.0,0.0,0.0,0.0,0.0,0.0,0.0,0.0,0.0,0.0,0.0,0.0,0.0,0.0,0.0,0.0,0.0,0.0,0.0,0.0,0.0,0.0,0.0,0.0,0.0,0.0,0.0,0.0,0.0,0.0,0.0,0.0,0.0,0.0,0.0,0.0,0.0,0.0,0.0,0.0,0.0,0.0,0.0,0.0,0.0,0.0,0.0,0.0,0.0,0.0,0.0,0.0,0.0,0.0,0.0,0.0,0.0,0.0,0.0,0.0,0.0,0.0,0.0,0.0,0.0,0.0,0.0,0.0,0.0,0.0,0.0,0.0,0.0,0.0,0.0,0.0,0.0,0.0,0.0,0.0,0.0,0.0,0.0,0.0,0.0,0.0,0.0,0.0,0.0,0.0,0.0,0.0,0.0,0.0,0.0,0.0,0.0,0.0,0.0,0.0,0.0,0.0,0.0,0.0,0.0,0.0,0.0,0.0,0.0,0.0,0.0,0.0,0.0,0.0,0.0,0.0,0.0,0.0,0.0,0.0,0.0,0.0,0.0,0.0,0.0,0.0,0.0,0.0,0.0,0.0,0.0,0.0,0.0,0.0,0.0,0.0,0.0,0.0,0.0,0.0,0.0,0.0,0.0,0.0,0.0,0.0,0.0,0.0,0.0,0.0,0.0,0.0,0.0,0.0,0.0,0.0,0.0,0.0,0.0,0.0,0.0,0.0,0.0,0.0,0.0,0.0,0.0,0.0,0.0,0.0,0.0,0.0,0.0,0.0,0.0,0.0,0.0,0.0,0.0,0.0,0.0,0.0,0.0,0.0,0.0,0.0,0.0,0.0,0.0,0.0,0.0,0.0,0.0,0.0,0.0,0.0,0.0,0.0,0.0,0.0,0.0,0.0,0.0,0.0,0.0,0.0,0.0,0.0,0.0,0.0,0.0,0.0,0.0,0.0,0.0,0.0,0.0,0.0,0.0,0.0,0.0,0.0,0.0,0.0,0.0,0.0,0.0,0.0,0.0,0.0,0.0,0.0,0.0,0.0,0.0,0.0,0.0,0.0,0.0,0.0,0.0,0.0,0.0,0.0,0.0,0.0,0.0,0.0,0.0,0.0,0.0,0.0,0.0,0.0,0.0,0.0,0.0,0.0,0.0,0.0,0.0,0.0,0.0,0.0,0.0,0.0,0.0,0.0,0.0,0.0,0.0,0.0,0.0,0.0,0.0,0.0,0.0,0.0,0.0,0.0,0.0,0.0,0.0,0.0,0.0,0.0,0.0,0.0,0.0,0.0,0.0,0.0,0.0,0.0,0.0,0.0,0.0,0.0,0.0,0.0,2.1297,0.0,0.0,0.0,0.0,0.0,0.0,0.0,0.0,0.0,0.0,0.0,0.0,0.0,0.0,0.0,0.0,0.0,0.0,0.0,0.0,0.0,0.0,0.0,0.0,0.0,0.0,0.0,0.0,0.0,0.0,0.0,0.0,0.0,0.0,0.0,0.0,0.0,0.0,0.0,0.0,0.0,0.0,0.0,0.0,0.0,0.0,0.0,0.0,0.0,0.0,0.0,0.0,0.0,0.0,0.0,0.0,0.0,0.0,0.0,0.0,0.0,0.0,0.0,0.0,0.0,0.0,0.0,0.0,0.0,0.0,0.0,0.0,0.0,0.0,0.0,0.0,0.0,0.0,0.0,0.0,0.0,0.0,0.0,0.0,0.0,0.0,0.0,0.0,0.0,0.0,0.0,0.0,0.0,0.0,0.0,0.0,0.0,0.0,0.0,0.0,0.0,0.0,0.0,0.0,0.0,0.0,0.0,0.0,0.0,0.0,2.3011,2.3008,2.221,2.1734,2.1628,0.0,0.0,0.0,0.0,0.0,0.0,0.0,0.0,0.0,0.0,0.0,0.0,0.0,0.0,0.0,0.0,0.0,0.0,0.0,0.0,0.0,0.0,0.0,0.0,0.0,0.0,0.0,0.0,0.0,0.0,0.0,0.0,0.0,0.0,0.0,0.0,0.0,0.0,0.0,0.0,0.0,0.0,0.0,0.0,0.0,0.0,0.0,0.0,0.0,0.0,0.0,0.0,0.0,0.0,0.0,0.0,0.0,0.0,0.0,0.0,0.0,0.0,0.0,0.0,0.0,0.0,0.0,0.0,0.0,0.0,0.0,0.0,0.0,0.0,0.0,0.0,0.0,0.0,0.0,0.0,0.0,0.0,0.0,0.0,0.0,0.0,0.0,0.0,0.0,0.0,0.0,0.0,0.0,0.0,0.0,0.0,0.0,0.0,0.0,0.0,0.0,0.0,0.0,0.0,0.0,0.0,0.0,0.0,0.0,0.0,0.0,0.0,2.2644,2.2255,2.2135,0.0,0.0,0.0,0.0,0.0,0.0,0.0,0.0,0.0,0.0,0.0,0.0,0.0,0.0,0.0,0.0,0.0,0.0,0.0,0.0,0.0,0.0,0.0,0.0,0.0,0.0,0.0,0.0,0.0,0.0,0.0,0.0,0.0,0.0,0.0,0.0,0.0,0.0,0.0,0.0,0.0,0.0,0.0,0.0,0.0,0.0,0.0,0.0,0.0,0.0,0.0,0.0,0.0,0.0,0.0,0.0,0.0,0.0,0.0,0.0,0.0,0.0,0.0,0.0,0.0,0.0,0.0,0.0,0.0,0.0,0.0,0.0,0.0,0.0,0.0,0.0,0.0,0.0,0.0,0.0,0.0,0.0,0.0,0.0,0.0,0.0,0.0,0.0,0.0,0.0,0.0,0.0,0.0,0.0,0.0,0.0,0.0,0.0,0.0,0.0,0.0,0.0,0.0,0.0,0.0,0.0,0.0,0.0,0.0,0.0,2.4082,2.408,2.3965,0.0,2.3638,0.0,0.0,0.0,0.0,0.0,0.0,0.0,0.0,0.0,0.0,0.0,0.0,0.0,0.0,0.0,0.0,0.0,0.0,0.0,0.0,0.0,0.0,0.0,0.0,0.0,0.0,0.0,0.0,0.0,0.0,0.0,0.0,0.0,0.0,0.0,0.0,0.0,0.0,0.0,0.0,0.0,0.0,0.0,0.0,0.0,0.0,0.0,0.0,0.0,0.0,0.0,0.0,0.0,0.0,0.0,0.0,0.0,0.0,0.0,0.0,0.0,0.0,0.0,0.0,0.0,0.0,0.0,0.0,0.0,0.0,0.0,0.0,0.0,0.0,0.0,0.0,0.0,0.0,0.0,0.0,0.0,0.0,0.0,0.0,0.0,0.0,0.0,0.0,0.0,0.0,0.0,0.0,0.0,0.0,0.0,0.0,0.0,0.0,0.0,0.0,0.0,0.0,0.0,0.0,0.0,0.0,0.0,0.0,0.0,0.0,2.4197,2.4197,2.4085,2.3933,0.0,0.0,0.0,0.0,0.0,0.0,0.0,0.0,0.0,0.0,0.0,0.0,0.0,0.0,0.0,0.0,0.0,0.0,0.0,0.0,0.0,0.0,0.0,0.0,0.0,0.0,0.0,0.0,0.0,0.0,0.0,0.0,0.0,0.0,0.0,0.0,0.0,0.0,0.0,0.0,0.0,0.0,0.0,0.0,0.0,0.0,0.0,0.0,0.0,0.0,0.0,0.0,0.0,0.0,0.0,0.0,0.0,0.0,0.0,0.0,0.0,0.0,0.0,0.0,0.0,0.0,0.0,0.0,0.0,0.0,0.0,0.0,0.0,0.0,0.0,0.0,0.0,0.0,0.0,0.0,0.0,0.0,0.0,0.0,0.0,0.0,0.0,0.0,0.0,0.0,0.0,0.0,0.0,0.0,0.0,0.0,0.0,0.0,0.0,0.0,0.0,0.0,0.0,0.0,0.0,0.0,0.0,0.0,0.0,0.0,2.4166,2.4175,2.4144,2.3988,2.3855,2.3756,0.0,0.0,0.0,0.0,0.0,0.0,0.0,0.0,0.0,0.0,0.0,0.0,0.0,0.0,0.0,0.0,0.0,0.0,0.0,0.0,0.0,0.0,0.0,0.0,0.0,0.0,0.0,0.0,0.0,0.0,0.0,0.0,0.0,0.0,0.0,0.0,0.0,0.0,0.0,0.0,0.0,0.0,0.0,0.0,0.0,0.0,0.0,0.0,0.0,0.0,0.0,0.0,0.0,0.0,0.0,0.0,0.0,0.0,0.0,0.0,0.0,0.0,0.0,0.0,0.0,0.0,0.0,0.0,0.0,0.0,0.0,0.0,0.0,0.0,0.0,0.0,0.0,0.0,0.0,0.0,0.0,0.0,0.0,0.0,0.0,0.0,0.0,0.0,0.0,0.0,0.0,0.0,0.0,0.0,0.0,0.0,0.0,0.0,0.0,0.0,0.0,0.0,0.0,0.0,0.0,0.0,0.0,0.0,2.4078,2.4168,2.4141,2.4006,2.3945,2.3816,0.0,0.0,0.0,0.0,0.0,0.0,0.0,0.0,0.0,0.0,0.0,0.0,0.0,0.0,0.0,0.0,0.0,0.0,0.0,0.0,0.0,0.0,0.0,0.0,0.0,0.0,0.0,0.0,0.0,0.0,0.0,0.0,0.0,0.0,0.0,0.0,0.0,0.0,0.0,0.0,0.0,0.0,0.0,0.0,0.0,0.0,0.0,0.0,0.0,0.0,0.0,0.0,0.0,0.0,0.0,0.0,0.0,0.0,0.0,0.0,0.0,0.0,0.0,0.0,0.0,0.0,0.0,0.0,0.0,0.0,0.0,0.0,0.0,0.0,0.0,0.0,0.0,0.0,0.0,0.0,0.0,0.0,0.0,0.0,0.0,0.0,0.0,0.0,0.0,0.0,0.0,0.0,0.0,0.0,0.0,0.0,0.0,0.0,0.0,0.0,0.0,0.0,0.0,0.0,0.0,0.0,0.0,0.0,0.0,2.4124,2.4149,2.4043,2.3863,2.3847,2.3758,0.0,0.0,0.0,0.0,0.0,0.0,0.0,0.0,0.0,0.0,0.0,0.0,0.0,0.0,0.0,0.0,0.0,0.0,0.0,0.0,0.0,0.0,0.0,0.0,0.0,0.0,0.0,0.0,0.0,0.0,0.0,0.0,0.0,0.0,0.0,0.0,0.0,0.0,0.0,0.0,0.0,0.0,0.0,0.0,0.0,0.0,0.0,0.0,0.0,0.0,0.0,0.0,0.0,0.0,0.0,0.0,0.0,0.0,0.0,0.0,0.0,0.0,0.0,0.0,0.0,0.0,0.0,0.0,0.0,0.0,0.0,0.0,0.0,0.0,0.0,0.0,0.0,0.0,0.0,0.0,0.0,0.0,0.0,0.0,0.0,0.0,0.0,0.0,0.0,0.0,0.0,0.0,0.0,0.0,0.0,0.0,0.0,0.0,0.0,0.0,0.0,0.0,0.0,0.0,0.0,0.0,0.0,0.0,0.0,2.41,0.0,2.4221,2.3806,2.3999,2.3894,0.0,0.0,0.0,0.0,0.0,0.0,0.0,0.0,0.0,0.0,0.0,0.0,0.0,0.0,0.0,0.0,0.0,0.0,0.0,0.0,0.0,0.0,0.0,0.0,0.0,0.0,0.0,0.0,0.0,0.0,0.0,0.0,0.0,0.0,0.0,0.0,0.0,0.0,0.0,0.0,0.0,0.0,0.0,0.0,0.0,0.0,0.0,0.0,0.0,0.0,0.0,0.0,0.0,0.0,0.0,0.0,0.0,0.0,0.0,0.0,0.0,0.0,0.0,0.0,0.0,0.0,0.0,0.0,0.0,0.0,0.0,0.0,0.0,0.0,0.0,0.0,0.0,0.0,0.0,0.0,0.0,0.0,0.0,0.0,0.0,0.0,0.0,0.0,0.0,0.0,0.0,0.0,0.0,0.0,0.0,0.0,0.0,0.0,0.0,0.0,0.0,0.0,0.0,0.0,0.0,0.0,0.0,0.0,2.3184,2.3993,2.4741,2.4713,2.3865,2.4392,2.4254,0.0,0.0,0.0,0.0,0.0,0.0,0.0,0.0,0.0,0.0,0.0,0.0,0.0,0.0,0.0,0.0,0.0,0.0,0.0,0.0,0.0,0.0,0.0,0.0,0.0,0.0,0.0,0.0,0.0,0.0,0.0,0.0,0.0,0.0,0.0,0.0,0.0,0.0,0.0,0.0,0.0,0.0,0.0,0.0,0.0,0.0,0.0,0.0,0.0,0.0,0.0,0.0,0.0,0.0,0.0,0.0,0.0,0.0,0.0,0.0,0.0,0.0,0.0,0.0,0.0,0.0,0.0,0.0,0.0,0.0,0.0,0.0,0.0,0.0,0.0,0.0,0.0,0.0,0.0,0.0,0.0,0.0,0.0,0.0,0.0,0.0,0.0,0.0,0.0,0.0,0.0,0.0,0.0,0.0,0.0,0.0,0.0,0.0,0.0,0.0,0.0,0.0,0.0,0.0,0.0,0.0,0.0,0.0,0.0,2.4634,2.5337,2.5503,2.5059,2.4722,2.4326,0.0,0.0,0.0,0.0,0.0,0.0,0.0,0.0,0.0,0.0,0.0,0.0,0.0,0.0,0.0,0.0,0.0,0.0,0.0,0.0,0.0,0.0,0.0,0.0,0.0,0.0,0.0,0.0,0.0,0.0,0.0,0.0,0.0,0.0,0.0,0.0,0.0,0.0,0.0,0.0,0.0,0.0,0.0,0.0,0.0,0.0,0.0,0.0,0.0,0.0,0.0,0.0,0.0,0.0,0.0,0.0,0.0,0.0,0.0,0.0,0.0,0.0,0.0,0.0,0.0,0.0,0.0,0.0,0.0,0.0,0.0,0.0,0.0,0.0,0.0,0.0,0.0,0.0,0.0,0.0,0.0,0.0,0.0,0.0,0.0,0.0,0.0,0.0,0.0,0.0,0.0,0.0,0.0,0.0,0.0,0.0,0.0,0.0,0.0,0.0,0.0,0.0,0.0,0.0,0.0,0.0,0.0,0.0,0.0,2.6677,2.6928,2.6835,2.6377,2.5802,2.5136,2.4327,0.0,0.0,0.0,0.0,0.0,0.0,0.0,0.0,0.0,0.0,0.0,0.0,0.0,0.0,0.0,0.0,0.0,0.0,0.0,0.0,0.0,0.0,0.0,0.0,0.0,0.0,0.0,0.0,0.0,0.0,0.0,0.0,0.0,0.0,0.0,0.0,0.0,0.0,0.0,0.0,0.0,0.0,0.0,0.0,0.0,0.0,0.0,0.0,0.0,0.0,0.0,0.0,0.0,0.0,0.0,0.0,0.0,0.0,0.0,0.0,0.0,0.0,0.0,0.0,0.0,0.0,0.0,0.0,0.0,0.0,0.0,0.0,0.0,0.0,0.0,0.0,0.0,0.0,0.0,0.0,0.0,0.0,0.0,0.0,0.0,0.0,0.0,0.0,0.0,0.0,0.0,0.0,0.0,0.0,0.0,0.0,0.0,0.0,0.0,0.0,0.0,0.0,0.0,0.0,0.0,0.0,0.0,0.0,2.9734,2.9367,2.8716,2.7747,2.7422,2.6537,0.0,0.0,0.0,0.0,0.0,0.0,0.0,0.0,0.0,0.0,0.0,0.0,0.0,0.0,0.0,0.0,0.0,0.0,0.0,0.0,0.0,0.0,0.0,0.0,0.0,0.0,0.0,0.0,0.0,0.0,0.0,0.0,0.0,0.0,0.0,0.0,0.0,0.0,0.0,0.0,0.0,0.0,0.0,0.0,0.0,0.0,0.0,0.0,0.0,0.0,0.0,0.0,0.0,0.0,0.0,0.0,0.0,0.0,0.0,0.0,0.0,0.0,0.0,0.0,0.0,0.0,0.0,0.0,0.0,0.0,0.0,0.0,0.0,0.0,0.0,0.0,0.0,0.0,0.0,0.0,0.0,0.0,0.0,0.0,0.0,0.0,0.0,0.0,0.0,0.0,0.0,0.0,0.0,0.0,0.0,0.0,0.0,0.0,0.0,0.0,0.0,0.0,0.0,0.0,0.0,0.0,0.0,0.0,0.0,3.1602,3.2325,3.1587,2.9379,2.8709,2.759,0.0,0.0,0.0,0.0,0.0,0.0,0.0,0.0,0.0,0.0,0.0,0.0,0.0,0.0,0.0,0.0,0.0,0.0,0.0,0.0,0.0,0.0,0.0,0.0,0.0,0.0,0.0,0.0,0.0,0.0,0.0,0.0,0.0,0.0,0.0,0.0,0.0,0.0,0.0,0.0,0.0,0.0,0.0,0.0,0.0,0.0,0.0,0.0,0.0,0.0,0.0,0.0,0.0,0.0,0.0,0.0,0.0,0.0,0.0,0.0,0.0,0.0,0.0,0.0,0.0,0.0,0.0,0.0,0.0,0.0,0.0,0.0,0.0,0.0,0.0,0.0,0.0,0.0,0.0,0.0,0.0,0.0,0.0,0.0,0.0,0.0,0.0,0.0,0.0,0.0,0.0,0.0,0.0,0.0,0.0,0.0,0.0,0.0,0.0,0.0,0.0,0.0,0.0,0.0,0.0,0.0,0.0,0.0,3.1492,3.3363,3.4112,3.3681,3.1951,3.0491,2.8829,0.0,0.0,0.0,0.0,0.0,0.0,0.0,0.0,0.0,0.0,0.0,0.0,0.0,0.0,0.0,0.0,0.0,0.0,0.0,0.0,0.0,0.0,0.0,0.0,0.0,0.0,0.0,0.0,0.0,0.0,0.0,0.0,0.0,0.0,0.0,0.0,0.0,0.0,0.0,0.0,0.0,0.0,0.0,0.0,0.0,0.0,0.0,0.0,0.0,0.0,0.0,0.0,0.0,0.0,0.0,0.0,0.0,0.0,0.0,0.0,0.0,0.0,0.0,0.0,0.0,0.0,0.0,0.0,0.0,0.0,0.0,0.0,0.0,0.0,0.0,0.0,0.0,0.0,0.0,0.0,0.0,0.0,0.0,0.0,0.0,0.0,0.0,0.0,0.0,0.0,0.0,0.0,0.0,0.0,0.0,0.0,0.0,0.0,0.0,0.0,0.0,0.0,0.0,0.0,0.0,0.0,0.0,0.0,3.2973,3.4898,3.5277,3.5309,3.488,3.2494,3.0145,0.0,0.0,0.0,0.0,0.0,0.0,0.0,0.0,0.0,0.0,0.0,0.0,0.0,0.0,0.0,0.0,0.0,0.0,0.0,0.0,0.0,0.0,0.0,0.0,0.0,0.0,0.0,0.0,0.0,0.0,0.0,0.0,0.0,0.0,0.0,0.0,0.0,0.0,0.0,0.0,0.0,0.0,0.0,0.0,0.0,0.0,0.0,0.0,0.0,0.0,0.0,0.0,0.0,0.0,0.0,0.0,0.0,0.0,0.0,0.0,0.0,0.0,0.0,0.0,0.0,0.0,0.0,0.0,0.0,0.0,0.0,0.0,0.0,0.0,0.0,0.0,0.0,0.0,0.0,0.0,0.0,0.0,0.0,0.0,0.0,0.0,0.0,0.0,0.0,0.0,0.0,0.0,0.0,0.0,0.0,0.0,0.0,0.0,0.0,0.0,0.0,0.0,0.0,0.0,0.0,0.0,0.0,0.0,3.3507,3.5759,3.665,3.6959,3.6661,3.3689,3.1096,0.0,0.0,0.0,0.0,0.0,0.0,0.0,0.0,0.0,0.0,0.0,0.0,0.0,0.0,0.0,0.0,0.0,0.0,0.0,0.0,0.0,0.0,0.0,0.0,0.0,0.0,0.0,0.0,0.0,0.0,0.0,0.0,0.0,0.0,0.0,0.0,0.0,0.0,0.0,0.0,0.0,0.0,0.0,0.0,0.0,0.0,0.0,0.0,2.4013,0.0,0.0,0.0,0.0,0.0,0.0,0.0,0.0,0.0,0.0,0.0,0.0,0.0,0.0,0.0,0.0,0.0,0.0,0.0,0.0,0.0,0.0,0.0,0.0,0.0,0.0,0.0,0.0,0.0,0.0,0.0,0.0,0.0,0.0,0.0,0.0,0.0,0.0,0.0,0.0,0.0,0.0,0.0,0.0,0.0,0.0,0.0,0.0,0.0,0.0,0.0,0.0,0.0,0.0,0.0,0.0,0.0,0.0,0.0,3.4594,3.6617,3.7602,3.7872,3.7258,3.4384,3.1912,0.0,0.0,0.0,0.0,0.0,0.0,0.0,0.0,0.0,0.0,0.0,0.0,0.0,0.0,0.0,0.0,0.0,0.0,0.0,0.0,0.0,0.0,0.0,0.0,0.0,0.0,0.0,0.0,0.0,0.0,0.0,0.0,0.0,0.0,0.0,0.0,0.0,0.0,0.0,0.0,0.0,0.0,0.0,0.0,0.0,0.0,0.0,0.0,0.0,0.0,0.0,0.0,0.0,0.0,0.0,0.0,0.0,0.0,0.0,0.0,0.0,0.0,0.0,0.0,0.0,0.0,0.0,0.0,0.0,0.0,0.0,0.0,0.0,0.0,0.0,0.0,0.0,0.0,0.0,0.0,0.0,0.0,0.0,0.0,0.0,0.0,0.0,0.0,0.0,0.0,0.0,0.0,0.0,0.0,0.0,0.0,0.0,0.0,0.0,0.0,0.0,0.0,0.0,0.0,0.0,0.0,0.0,3.366,3.5667,3.731,3.8307,3.8405,3.7575,3.4965,3.2738,3.1149,0.0,0.0,0.0,0.0,0.0,0.0,0.0,0.0,0.0,0.0,0.0,0.0,0.0,0.0,0.0,0.0,0.0,0.0,0.0,0.0,0.0,0.0,0.0,0.0,0.0,0.0,0.0,0.0,0.0,0.0,0.0,0.0,0.0,0.0,0.0,0.0,0.0,0.0,2.3513,2.4771,0.0,0.0,0.0,0.0,0.0,0.0,0.0,0.0,2.6178,0.0,0.0,0.0,0.0,0.0,0.0,0.0,0.0,0.0,0.0,0.0,0.0,0.0,0.0,0.0,0.0,0.0,0.0,0.0,0.0,0.0,0.0,0.0,0.0,0.0,0.0,0.0,0.0,0.0,0.0,0.0,0.0,0.0,0.0,0.0,0.0,0.0,0.0,0.0,0.0,0.0,0.0,0.0,0.0,0.0,0.0,0.0,0.0,0.0,0.0,0.0,0.0,0.0,0.0,0.0,0.0,3.161,3.3924,3.5917,3.7514,3.8587,3.8797,3.8063,3.5996,3.3849,3.1699,0.0,0.0,0.0,0.0,0.0,0.0,0.0,0.0,0.0,0.0,0.0,0.0,0.0,0.0,0.0,0.0,0.0,0.0,0.0,0.0,0.0,0.0,0.0,0.0,0.0,0.0,0.0,0.0,0.0,0.0,0.0,0.0,0.0,0.0,0.0,0.0,0.0,0.0,0.0,2.5843,2.6452,0.0,0.0,0.0,0.0,0.0,0.0,0.0,0.0,2.5782,0.0,0.0,0.0,0.0,0.0,0.0,0.0,0.0,0.0,0.0,0.0,0.0,0.0,0.0,0.0,0.0,0.0,0.0,0.0,0.0,0.0,0.0,0.0,0.0,0.0,0.0,0.0,0.0,0.0,0.0,0.0,0.0,0.0,0.0,0.0,0.0,0.0,0.0,0.0,0.0,0.0,0.0,0.0,0.0,0.0,0.0,0.0,0.0,0.0,0.0,0.0,0.0,0.0,0.0,0.0,3.2089,3.4341,3.628,3.7865,3.859,3.8501,3.7529,3.5216,3.2953,0.0,0.0,0.0,0.0,0.0,0.0,0.0,0.0,0.0,0.0,0.0,0.0,0.0,0.0,0.0,0.0,0.0,0.0,0.0,0.0,0.0,0.0,0.0,0.0,0.0,0.0,0.0,0.0,0.0,0.0,0.0,0.0,0.0,0.0,0.0,0.0,0.0,0.0,0.0,0.0,2.7214,2.7807,2.8112,0.0,0.0,0.0,0.0,0.0,0.0,2.8242,2.7892,0.0,0.0,0.0,0.0,0.0,0.0,0.0,0.0,0.0,0.0,0.0,0.0,0.0,0.0,0.0,0.0,0.0,0.0,0.0,0.0,0.0,0.0,0.0,0.0,0.0,0.0,0.0,0.0,0.0,0.0,0.0,0.0,0.0,0.0,0.0,0.0,0.0,0.0,0.0,0.0,0.0,0.0,0.0,0.0,0.0,0.0,0.0,0.0,0.0,0.0,0.0,0.0,0.0,0.0,0.0,3.2552,3.4746,3.6615,3.8083,3.8473,3.8073,3.691,3.4296,3.1877,0.0,0.0,0.0,0.0,0.0,0.0,0.0,0.0,0.0,0.0,0.0,0.0,0.0,0.0,0.0,0.0,0.0,0.0,0.0,0.0,0.0,0.0,0.0,0.0,0.0,0.0,0.0,0.0,0.0,0.0,0.0,0.0,0.0,0.0,0.0,0.0,0.0,0.0,0.0,0.0,0.0,2.9331,3.0001,3.0603,0.0,0.0,0.0,0.0,3.0622,3.054,0.0,0.0,0.0,0.0,0.0,0.0,0.0,0.0,0.0,0.0,0.0,0.0,0.0,0.0,0.0,0.0,0.0,0.0,0.0,0.0,0.0,0.0,0.0,0.0,0.0,0.0,0.0,0.0,0.0,0.0,0.0,0.0,0.0,0.0,0.0,0.0,0.0,0.0,0.0,0.0,0.0,0.0,0.0,0.0,0.0,0.0,0.0,0.0,0.0,0.0,0.0,0.0,0.0,0.0,0.0,0.0,3.2906,3.5013,3.6672,3.7861,3.8271,3.7944,3.691,3.4296,3.1874,0.0,0.0,0.0,0.0,0.0,0.0,0.0,0.0,0.0,0.0,0.0,0.0,0.0,0.0,0.0,0.0,0.0,0.0,0.0,0.0,0.0,0.0,0.0,0.0,0.0,0.0,0.0,0.0,0.0,0.0,0.0,0.0,0.0,0.0,0.0,0.0,0.0,0.0,0.0,0.0,0.0,3.0693,3.1319,3.1405,3.1659,0.0,0.0,3.1947,3.1308,3.1059,0.0,0.0,0.0,0.0,0.0,0.0,0.0,0.0,0.0,0.0,0.0,0.0,0.0,0.0,0.0,0.0,0.0,0.0,0.0,0.0,0.0,0.0,0.0,0.0,0.0,0.0,0.0,0.0,0.0,0.0,0.0,0.0,0.0,0.0,0.0,0.0,0.0,0.0,0.0,0.0,0.0,0.0,0.0,0.0,0.0,0.0,0.0,0.0,0.0,0.0,0.0,0.0,0.0,0.0,0.0,3.0532,3.2805,3.4978,3.6629,3.774,3.7833,3.7339,3.6364,3.3713,3.129,0.0,0.0,0.0,0.0,0.0,0.0,0.0,0.0,0.0,0.0,0.0,0.0,0.0,0.0,0.0,0.0,0.0,0.0,0.0,0.0,0.0,0.0,0.0,0.0,0.0,0.0,0.0,0.0,0.0,0.0,0.0,0.0,0.0,0.0,0.0,0.0,0.0,0.0,0.0,0.0,0.0,0.0,3.197,3.2727,0.0,0.0,0.0,3.3479,3.3115,0.0,0.0,0.0,0.0,0.0,0.0,0.0,0.0,0.0,0.0,0.0,0.0,0.0,0.0,0.0,0.0,0.0,0.0,0.0,0.0,0.0,0.0,0.0,0.0,0.0,0.0,0.0,0.0,0.0,0.0,0.0,0.0,0.0,0.0,0.0,0.0,0.0,0.0,0.0,0.0,0.0,0.0,0.0,0.0,0.0,0.0,0.0,0.0,0.0,0.0,0.0,0.0,0.0,0.0,0.0,0.0,0.0,3.2615,3.4873,3.6504,3.7397,3.7438,3.685,3.5651,3.3191,0.0,0.0,0.0,0.0,0.0,0.0,0.0,0.0,0.0,0.0,0.0,0.0,0.0,0.0,0.0,0.0,0.0,0.0,0.0,0.0,0.0,0.0,0.0,0.0,0.0,0.0,0.0,1.9233,0.0,0.0,0.0,0.0,0.0,0.0,0.0,0.0,0.0,0.0,0.0,0.0,0.0,0.0,3.2962,3.3321,3.4352,3.5213,0.0,0.0,3.5416,3.5,3.4891,3.439,0.0,0.0,0.0,0.0,0.0,0.0,0.0,0.0,0.0,0.0,0.0,0.0,0.0,0.0,0.0,0.0,0.0,0.0,0.0,0.0,0.0,0.0,0.0,0.0,0.0,0.0,0.0,0.0,0.0,0.0,0.0,0.0,0.0,0.0,0.0,0.0,0.0,0.0,0.0,0.0,0.0,0.0,0.0,0.0,0.0,0.0,0.0,0.0,0.0,0.0,0.0,0.0,0.0,0.0,0.0,3.2406,3.4729,3.6179,3.6748,3.7181,3.664,3.5008,3.2979,3.1162,0.0,0.0,0.0,0.0,0.0,0.0,0.0,0.0,0.0,0.0,0.0,0.0,0.0,0.0,0.0,0.0,0.0,0.0,0.0,0.0,0.0,0.0,0.0,0.0,0.0,0.0,0.0,0.0,0.0,0.0,0.0,0.0,0.0,0.0,0.0,0.0,0.0,0.0,0.0,0.0,0.0,3.4144,3.6048,3.6401,3.6958,0.0,0.0,3.8031,3.656,3.6274,3.568,3.4268,0.0,0.0,0.0,0.0,0.0,0.0,0.0,0.0,0.0,0.0,0.0,0.0,0.0,0.0,0.0,0.0,0.0,0.0,0.0,0.0,0.0,0.0,0.0,0.0,0.0,0.0,0.0,0.0,0.0,0.0,0.0,0.0,0.0,0.0,0.0,0.0,0.0,0.0,0.0,0.0,0.0,0.0,0.0,0.0,0.0,0.0,0.0,0.0,0.0,0.0,0.0,0.0,0.0,2.9987,3.2195,3.425,3.5699,3.6555,3.675,3.6195,3.4815,3.3305,3.1512,0.0,0.0,0.0,0.0,0.0,0.0,0.0,0.0,0.0,0.0,0.0,0.0,0.0,0.0,0.0,0.0,0.0,0.0,0.0,0.0,0.0,0.0,0.0,0.0,0.0,0.0,0.0,0.0,2.1295,2.2039,2.3219,0.0,0.0,0.0,0.0,0.0,0.0,0.0,0.0,0.0,0.0,3.5561,3.6206,3.7106,0.0,0.0,3.8459,3.8225,3.7635,3.7216,3.6572,3.5654,3.4679,0.0,0.0,0.0,0.0,0.0,0.0,0.0,0.0,0.0,0.0,0.0,0.0,0.0,0.0,0.0,0.0,0.0,0.0,0.0,0.0,0.0,0.0,0.0,0.0,0.0,0.0,0.0,0.0,0.0,0.0,0.0,0.0,0.0,0.0,0.0,0.0,0.0,0.0,0.0,0.0,0.0,0.0,0.0,0.0,0.0,0.0,0.0,0.0,0.0,0.0,0.0,0.0,3.0085,3.2044,3.3924,3.5335,3.6186,3.6404,3.5832,3.4443,3.3396,3.1772,0.0,0.0,0.0,0.0,0.0,0.0,0.0,0.0,0.0,0.0,0.0,0.0,0.0,0.0,0.0,0.0,0.0,0.0,0.0,0.0,0.0,0.0,0.0,0.0,0.0,0.0,0.0,0.0,2.2514,2.3257,2.4306,0.0,0.0,0.0,0.0,0.0,0.0,0.0,0.0,0.0,0.0,3.6522,3.6965,3.7929,3.8658,3.8826,3.8815,3.8746,3.8502,3.8162,3.7666,3.6939,0.0,0.0,0.0,0.0,0.0,0.0,0.0,0.0,0.0,0.0,0.0,0.0,0.0,0.0,0.0,0.0,0.0,0.0,0.0,0.0,0.0,0.0,0.0,0.0,0.0,0.0,0.0,0.0,0.0,0.0,2.3348,0.0,0.0,0.0,0.0,0.0,0.0,0.0,0.0,0.0,0.0,0.0,0.0,0.0,0.0,0.0,0.0,0.0,0.0,0.0,0.0,0.0,0.0,3.0415,3.1902,3.3872,3.5086,3.5527,3.6156,3.56,3.3826,3.3081,3.1856,3.0017,0.0,0.0,0.0,0.0,0.0,0.0,0.0,0.0,0.0,0.0,0.0,0.0,0.0,0.0,0.0,0.0,0.0,0.0,0.0,0.0,0.0,0.0,0.0,0.0,0.0,0.0,2.4572,2.491,2.5034,0.0,0.0,0.0,0.0,0.0,0.0,0.0,0.0,0.0,0.0,3.5654,3.6817,3.873,3.9068,3.9339,4.0105,4.0214,3.997,3.9232,3.9228,3.9043,0.0,0.0,0.0,0.0,0.0,0.0,0.0,0.0,0.0,0.0,0.0,0.0,0.0,0.0,0.0,0.0,0.0,0.0,0.0,0.0,0.0,0.0,0.0,0.0,0.0,0.0,0.0,2.4302,2.4306,0.0,0.0,0.0,0.0,0.0,0.0,0.0,0.0,0.0,0.0,0.0,2.8441,2.8812,0.0,0.0,0.0,0.0,0.0,0.0,0.0,0.0,0.0,0.0,0.0,0.0,3.059,3.2523,3.3644,3.4627,3.5468,3.5721,3.5304,3.4266,3.3668,3.2098,2.9433,0.0,0.0,0.0,0.0,0.0,0.0,0.0,0.0,0.0,0.0,0.0,0.0,0.0,0.0,0.0,0.0,0.0,0.0,0.0,0.0,0.0,0.0,0.0,0.0,0.0,2.4196,0.0,0.0,0.0,0.0,0.0,0.0,0.0,0.0,0.0,0.0,0.0,3.3112,3.5335,3.6542,3.7603,3.8571,3.9165,3.9745,0.0,0.0,0.0,0.0,0.0,0.0,0.0,0.0,0.0,0.0,0.0,0.0,0.0,0.0,3.6079,3.4275,3.426,3.4365,3.3866,0.0,0.0,0.0,0.0,0.0,0.0,0.0,0.0,0.0,0.0,0.0,0.0,0.0,0.0,0.0,0.0,2.5389,0.0,0.0,0.0,0.0,0.0,0.0,0.0,0.0,2.9739,3.0118,2.9927,3.0286,3.0416,0.0,2.9903,2.9074,0.0,0.0,0.0,0.0,0.0,0.0,0.0,0.0,3.1046,3.276,3.3486,3.4361,3.5438,3.5489,3.519,3.4533,3.3494,3.1891,2.9675,2.886,2.8003,0.0,0.0,0.0,0.0,0.0,0.0,0.0,0.0,0.0,0.0,0.0,0.0,0.0,0.0,0.0,0.0,0.0,0.0,0.0,0.0,0.0,0.0,0.0,2.6191,0.0,0.0,0.0,0.0,0.0,0.0,0.0,0.0,0.0,3.166,3.2728,3.4082,3.5825,3.7114,3.8146,3.8837,0.0,0.0,0.0,0.0,0.0,0.0,0.0,3.9839,3.9233,3.8851,3.8599,3.8606,3.8964,3.9282,3.9282,0.0,0.0,3.6502,3.6243,3.6281,3.6039,3.6371,3.6799,3.703,3.7056,3.7211,0.0,0.0,0.0,0.0,0.0,0.0,0.0,0.0,2.8339,2.8431,0.0,2.7878,0.0,0.0,0.0,0.0,0.0,2.9399,0.0,0.0,3.1098,3.1483,3.122,3.122,3.1087,3.0894,3.0865,3.0661,3.0177,2.8362,0.0,0.0,0.0,0.0,0.0,0.0,3.1714,3.2704,3.3397,3.4283,3.5451,3.5503,3.519,3.4466,3.2632,3.1336,3.0712,2.9485,2.8629,2.8351,2.7687,0.0,0.0,0.0,0.0,0.0,0.0,0.0,0.0,0.0,0.0,0.0,0.0,0.0,0.0,0.0,0.0,0.0,0.0,0.0,0.0,2.8108,0.0,0.0,0.0,0.0,0.0,0.0,0.0,0.0,0.0,0.0,3.1471,3.3587,3.5477,3.6263,0.0,0.0,0.0,0.0,3.9996,4.0615,4.0731,4.0691,4.0629,4.0754,4.0838,4.0633,0.0,0.0,4.0809,4.0834,4.082,4.086,4.0497,3.9979,3.8639,3.7909,3.768,3.8194,3.8342,3.8674,3.9321,3.9289,3.9447,3.2002,0.0,0.0,0.0,0.0,3.108,3.1409,3.1814,3.1326,3.1144,3.1133,3.0057,0.0,0.0,0.0,0.0,0.0,0.0,3.1839,3.2094,3.2525,3.2918,3.33,3.3009,3.2844,3.2802,3.2344,3.2106,3.192,3.0655,2.967,2.902,0.0,0.0,0.0,0.0,3.1905,3.3011,3.3704,3.4463,3.5285,3.5285,3.5039,3.4526,3.35,3.2415,3.1306,3.0543,2.9907,2.9375,2.846,0.0,0.0,0.0,0.0,0.0,0.0,0.0,0.0,0.0,0.0,0.0,0.0,0.0,0.0,0.0,0.0,0.0,0.0,0.0,2.7951,2.8445,2.8727,0.0,0.0,0.0,0.0,0.0,0.0,0.0,0.0,0.0,3.3393,3.4089,3.5274,0.0,0.0,3.7929,3.8982,3.9178,3.9545,4.062,0.0,0.0,0.0,4.0788,4.0589,3.994,3.9884,3.9915,3.9907,4.0196,4.0404,4.0404,4.023,3.9977,3.9626,3.9357,3.9073,3.8804,3.9095,3.9677,4.0334,4.049,4.0623,3.4728,3.3341,3.2804,3.2752,3.3084,3.339,3.3613,3.3746,3.3435,3.3192,3.2993,3.2067,3.1338,3.0855,3.0296,0.0,0.0,0.0,3.3266,3.3558,3.3734,3.3985,3.4283,3.3954,3.3774,3.3702,3.3358,3.3086,3.2905,3.2254,3.1484,3.0576,0.0,0.0,3.0983,3.1516,3.2266,3.3242,3.3739,3.4319,3.4984,3.5138,3.4942,3.4393,3.3813,3.3006,3.1936,3.1421,3.0872,3.0313,2.972,2.9068,0.0,0.0,0.0,0.0,0.0,0.0,0.0,0.0,0.0,0.0,0.0,2.4716,0.0,0.0,0.0,0.0,2.7864,2.8467,2.9271,2.9899,0.0,0.0,0.0,0.0,0.0,0.0,0.0,3.2198,3.3358,3.4361,3.4979,3.5063,3.5631,3.7158,3.7332,3.7768,3.8887,0.0,3.9493,4.0734,4.0842,4.0802,4.0802,4.0728,4.0512,3.9974,3.9895,3.9895,3.9887,4.0125,4.0316,4.0291,4.0166,4.015,4.0419,4.0387,4.0223,3.9748,3.9977,4.0585,4.154,4.173,4.1831,3.7088,3.6618,3.5568,3.4957,3.4743,3.5355,3.5308,3.4798,3.4946,3.4788,3.4384,3.3893,3.3403,3.286,3.2497,0.0,3.216,3.3744,3.4448,3.4496,3.4696,3.4729,3.4659,3.4402,3.419,3.4089,3.3981,3.3707,3.3306,3.3189,3.2773,3.1996,3.1703,3.1512,3.1454,3.2071,3.2703,3.3314,3.3553,3.4026,3.4681,3.503,3.4893,3.4307,3.3811,3.3238,3.2632,3.2096,3.1583,3.1116,3.1168,3.0416,2.8762,0.0,0.0,0.0,0.0,0.0,0.0,0.0,0.0,0.0,0.0,0.0,0.0,0.0,0.0,0.0,2.987,0.0,3.063,3.1819,0.0,0.0,0.0,3.2429,3.2467,3.2346,3.2668,3.3765,0.0,0.0,3.612,0.0,3.6273,3.6684,3.7111,3.7794,3.8992,3.9132,3.9631,4.0667,4.0795,4.0723,4.067,4.0564,4.043,4.0382,4.047,4.0395,4.0387,4.04,4.0422,4.0391,4.0274,4.0335,4.1006,4.0929,4.0953,4.0993,4.0984,4.1383,4.2585,4.2874,4.286,3.7982,3.7837,3.8006,3.7374,3.6331,3.7043,3.7317,3.7146,3.6957,3.6525,3.5994,3.5573,3.4716,3.3558,3.3441,3.322,3.2962,3.4266,3.5041,3.5332,3.5464,3.5771,3.6148,3.5785,3.56,3.5505,3.4642,3.4152,3.4009,3.3324,3.2877,3.2671,3.2912,3.2466,3.1459,3.2029,3.2396,3.2546,3.324,3.389,3.445,3.4926,3.5123,3.4944,3.4114,3.357,3.3427,3.2474,3.19,3.1761,3.1412,3.0988,3.0532,2.983,0.0,0.0,0.0,0.0,0.0,0.0,0.0,0.0,0.0,2.7881,2.8729,0.0,2.9186,0.0,3.1169,3.1572,3.1572,3.1876,0.0,0.0,3.2315,3.2704,3.3231,3.354,3.3931,3.4488,3.5018,3.5435,3.5615,3.596,3.6215,3.6322,3.6645,3.7126,3.7823,3.8234,3.8719,3.9404,3.9908,4.0183,4.0213,4.0139,4.0104,4.0104,4.0104,4.0104,4.0134,3.9989,3.9901,3.9892,3.9732,3.9857,4.0467,4.0563,4.0951,4.1779,4.186,4.194,4.2823,4.3015,4.3128,3.932,3.9083,3.9538,3.8924,3.7743,3.837,3.8525,3.8263,3.8054,3.7605,3.7016,3.6483,3.5723,3.4831,3.4753,3.4509,3.4265,3.5079,3.5611,3.58,3.5758,3.5913,3.6249,3.5936,3.5786,3.576,3.5117,3.4796,3.4745,3.4255,3.3809,3.3396,3.3693,3.3274,3.2182,3.2726,3.2888,3.2602,3.3066,3.3594,3.4128,3.4668,3.4984,3.5037,3.4188,3.3683,3.3698,3.265,3.2072,3.2086,3.1845,3.1603,3.1297,3.0781,3.0235,0.0,0.0,0.0,0.0,0.0,0.0,0.0,0.0,0.0,0.0,0.0,3.0386,3.1266,3.2023,3.2466,3.2472,3.3029,3.3406,3.34,3.3581,3.3803,3.4083,3.43,3.4523,3.4932,3.535,3.5621,3.5669,3.5935,3.6132,3.6124,3.6172,3.6487,3.7153,3.7522,3.795,3.8856,3.926,3.9519,3.9672,3.9723,3.9744,3.9744,3.9753,3.9723,3.9744,3.9643,3.9571,3.9553,3.9472,3.9601,4.0247,4.0675,4.1194,4.207,4.2486,4.2671,4.3031,4.3122,4.3273,4.0627,4.0184,4.0402,3.9904,3.8958,3.9334,3.9177,3.8624,3.8589,3.8235,3.7568,3.6785,3.6291,3.6039,3.587,3.5648,3.5434,3.5905,3.6121,3.6125,3.5908,3.5811,3.58,3.5625,3.5524,3.5524,3.5437,3.54,3.5411,3.5334,3.4875,3.4109,3.4207,3.3928,3.3261,3.3662,3.3573,3.2995,3.3027,3.3266,3.3733,3.4298,3.4685,3.4847,3.4215,3.3789,3.3691,3.2842,3.2317,3.2233,3.2358,3.2143,3.1565,3.1658,3.1422,0.0,3.0429,0.0,0.0,0.0,0.0,0.0,0.0,0.0,0.0,3.124,3.1394,3.189,3.279,3.3345,3.3332,3.4464,3.518,3.5173,3.5139,3.5058,3.4882,3.4798,3.4907,3.524,3.5262,3.5429,3.582,3.5934,3.5926,3.5902,3.5814,3.5979,3.6621,3.6865,3.7403,3.8641,3.881,3.9057,3.9344,3.9409,3.9409,3.943,3.9418,3.9412,3.9439,3.94,3.9421,3.9391,3.9391,3.9631,4.0268,4.0945,4.1583,4.2261,4.284,4.321,4.3269,4.3279,4.329,4.0892,4.0454,4.0493,4.0129,3.9549,3.9626,3.932,3.8767,3.8927,3.8515,3.7692,3.6643,3.6031,3.5802,3.5747,3.5616,3.541,3.5999,3.6256,3.6282,3.6432,3.6509,3.6509,3.6325,3.622,3.6183,3.572,3.5484,3.547,3.5028,3.476,3.4567,3.4343,3.425,3.4281,0.0,0.0,0.0,3.3155,3.3292,3.3396,3.3922,3.4374,3.471,3.4578,0.0,3.3872,3.3421,3.2925,3.2416,3.2375,0.0,0.0,0.0,0.0,0.0,0.0,0.0,0.0,0.0,0.0,0.0,3.2825,3.2733,3.2387,3.2886,3.351,3.4105,3.4156,3.4184,3.4191,3.44,3.4554,3.4578,3.4915,3.5178,3.5133,3.55,3.5725,3.5634,3.5602,3.5599,3.5605,3.5587,3.5595,3.5603,3.5562,3.5614,3.5775,3.628,3.6864,3.7605,3.8561,3.9257,3.9391,3.9412,3.9412,3.9412,3.9412,3.9412,3.9412,3.9412,3.9412,3.9412,3.9412,3.9601,4.0247,4.0945,4.1592,4.2251,4.2851,4.329,4.329,4.329,4.329,4.158,0.0,4.0752,4.0337,0.0,3.9836,3.9511,3.9258,3.9177,3.8846,3.8223,3.737,3.6845,3.6627,3.6331,3.6245,3.6317,3.6619,3.6873,3.7128,3.7276,3.7216,3.6938,3.6855,3.6658,3.6393,3.6093,3.5931,3.5931,3.568,3.5392,3.5104,3.5055,3.4967,3.482,3.4378,3.384,3.3259,3.2989,3.3063,3.3444,3.3753,3.4187,3.4668,0.0,0.0,0.0,0.0,0.0,0.0,0.0,0.0,0.0,0.0,0.0,3.2922,3.2962,3.2863,3.2633,3.2943,3.336,3.3779,3.393,3.3858,3.3503,3.3822,3.4126,3.4465,3.4619,3.4706,3.4706,3.4988,3.5194,3.5187,3.543,3.5574,3.548,3.5682,3.579,3.5629,3.5589,3.5587,3.5497,3.5489,3.5489,3.5489,3.5489,3.5489,3.5511,3.578,3.6289,3.7285,3.8524,3.9382,3.9412,3.9412,3.9412,3.9412,3.9412,3.9412,3.9412,3.9412,3.9412,3.9412,3.9412,3.9541,3.987,4.0696,4.1502,4.1882,4.2661,4.327,4.329,4.329,4.329,4.2313,4.2123,4.1192,4.0701,4.0462,4.001,3.9772,3.9673,0.0,0.0,0.0,3.8195,3.7832,3.7638,3.7145,3.7064,3.7324,3.7349,3.7588,3.799,3.799,3.7764,3.7349,3.7349,3.706,3.6569,3.6544,3.6494,3.6393,3.6405,3.6155,3.5718,3.5778,3.5552,3.5055,3.4692,3.4253,3.3684,3.2994,3.2929,3.3523,3.3754,3.4114,3.4639,3.4736,3.4851,3.4933,3.4713,3.4532,3.4409,3.4378,3.4417,3.4378,3.4409,3.4319,3.4179,3.4252,3.429,3.4165,3.4361,3.4543,3.4605,3.4515,3.4492,3.4512,3.4385,3.4318,3.4447,3.485,3.5076,3.5114,3.5568,3.5932,3.5902,3.5902,3.5838,3.568,3.5655,3.5629,3.5514,3.5497,3.5489,3.5489,3.5489,3.5489,3.5489,3.5489,3.5489,3.5541,3.578,3.6319,3.7276,3.8533,3.9412,3.9412,3.9412,3.9412,3.9412,3.9412,3.9412,3.9412,3.9412,3.9412,3.9412,3.9412,3.9412,3.949,4.0376,4.1224,4.1364,4.2302,4.32,4.327,4.329,4.329,4.2612,4.2199,4.2023,4.1393,4.0487,4.0412,4.0111,3.9647,3.9145,3.8932,3.8844,3.8252,3.7975,3.7938,3.7851,3.7838,3.7889,3.7889,3.7939,0.0,3.799,3.7952,3.7889,3.7889,3.7625,3.7098,3.7085,3.6833,3.6443,3.6418,3.6343,3.6242,3.5803,3.5289,3.4771,3.4439,3.4299,3.4427,3.3875,3.3529,3.3347,3.3861,3.423,3.4428,3.4879,3.5014,3.4745,3.488,3.4623,3.4022,3.3992,3.3984,3.3992,3.403,3.3977,3.3924,3.3977,3.3969,3.3977,3.4539,3.5078,3.5475,3.5496,3.5317,3.4934,3.4742,3.4883,3.5419,3.5435,3.5434,3.5442,3.5518,3.5587,3.5578,3.557,3.5546,3.5538,3.553,3.5522,3.5489,3.5489,3.5489,3.5489,3.5489,3.5489,3.5489,3.5489,3.5489,3.5631,3.6439,3.7118,3.7516,3.8533,3.9293,3.9412,3.9412,3.9412,3.9412,3.9412,3.9412,3.9412,3.9412,3.9412,3.9412,3.9412,3.9412,3.9421,3.9999,4.0705,4.1254,4.2022,4.2681,4.313,4.327,4.33,4.3101,4.2612,4.2324,4.1694,4.0901,4.0299,3.9923,3.9672,3.9434,3.9346,3.9283,3.873,3.8479,3.8454,3.8165,3.8203,3.8479,3.8479,3.8642,3.8919,3.8931,3.8781,3.8504,3.8479,3.8203,3.7663,3.765,3.75,3.7248,3.6984,3.6833,3.6783,3.6269,3.5693,3.5143,3.4994,3.4757,3.4401,3.3908,3.3784,3.4095,3.4159,3.4406,3.4899,3.5091,3.5234,3.5234,3.5431,3.5382,3.5063,3.5032,3.5032,3.5032,3.5032,3.5001,3.4862,3.49,3.4846,3.4774,3.5083,3.5368,3.5551,3.5581,3.5523,3.5302,3.5184,3.5249,3.5551,3.5522,3.5489,3.5489,3.5489,3.5489,3.5489,3.5489,3.5489,3.5489,3.5489,3.5489,3.5489,3.5489,3.5489,3.5489,3.5489,3.5489,3.5489,3.5489,3.5489,3.5519,3.6306,3.7045,3.7404,3.8234,3.8952,3.9331,3.9412,3.9412,3.9412,3.9412,3.9412,3.9412,3.9412,3.9412,3.9412,3.9412,3.9412,3.9412,3.9939,4.0457,4.0795,4.1742,4.2461,4.2771,4.305,4.33,4.3578,4.3126,4.2601,4.197,4.1239,4.0287,3.9823,3.971,3.971,3.971,3.966,3.9258,3.907,3.9044,3.8605,3.8642,3.9032,3.9095,3.9283,3.9672,3.971,3.9484,3.912,3.907,3.8781,3.8241,3.8216,3.814,3.7965,3.7575,3.7324,3.7148,3.6669,3.6155,3.5707,3.557,3.5196,3.4592,3.4097,3.4082,3.4627,3.4527,3.4696,3.5111,3.5208,3.5314,3.5524,3.5655,3.575,3.575,3.5766,3.5766,3.5814,3.5822,3.5766,3.5678,3.5639,3.5613,3.5506,3.5489,3.5489,3.5489,3.5489,3.5489,3.5489,3.5489,3.5489,3.5489,3.5489,3.5489,3.5489,3.5489,3.5489,3.5489,3.5489,3.5489,3.5489,3.5489,3.5489,3.5489,3.5489,3.5489,3.5489,3.5489,3.5489,3.5489,3.5489,3.5489,3.5571,3.5968,3.6477,3.7135,3.7883,3.8661,3.9272,3.9412,3.9412,3.9412,3.9412,3.9412,3.9412,3.9412,3.9412,3.9412,3.9412,3.9412,3.9451,3.9789,4.0178,4.0457,4.1373,4.2231,4.2661,4.299,4.33,4.3765,4.3653,4.3126,4.2283,4.1277,4.065,4.0149,3.9722,3.971,3.971,3.9685,3.9622,3.9597,3.9622,3.9521,3.9534,3.9597,3.9635,3.966,3.9672,3.971,3.966,3.9609,3.9609,3.9346,3.8869,3.8818,3.8555,3.8103,3.7977,3.7688,3.7198,3.6669,3.6381,3.6256,3.5782,3.5573,3.5711,3.5106,3.4559,3.4233,3.4901,3.5115,3.4752,3.5108,3.5168,3.5035,3.4984,3.5009,3.5009,3.5017,3.5092,3.5231,3.5294,3.5359,3.5497,3.5506,3.5506,3.5481,3.5489,3.5473,3.5489,3.5465,3.5473,3.5473,3.5481,3.5489,3.5489,3.5489,3.5489,3.5489,3.5489,3.5489,3.5489,3.5489,3.5489,3.5489,3.5489,3.5489,3.5489,3.5489,3.5489,3.5489,3.5489,3.5489,3.5489,3.5489,3.5489,3.5519,3.5601,3.5946,3.6635,3.7563,3.855,3.9161,3.9391,3.9361,3.9352,3.9412,3.9412,3.9412,3.9412,3.9412,3.9412,3.9412,3.9412,3.9412,3.9511,3.9729,4.0238,4.1005,4.1852,4.2831,4.324,4.33,4.4077,4.374,4.3226,4.2333,4.1289,4.0725,4.0186,3.9722,3.971,3.971,3.971,3.971,3.971,3.971,3.971,3.971,3.971,3.971,3.971,3.971,3.971,3.971,3.971,3.971,3.9572,3.9383,3.9371,3.9271,3.8994,3.868,3.8253,3.7675,3.7135,3.6847,3.6822,3.6307,3.5915,3.5658,3.5545,3.5186,3.4716,3.4988,3.5313,3.547,3.5541,3.5399,3.5158,3.5122,3.4964,3.4651,3.4601,3.4677,3.4898,3.4906,3.4989,3.5138,3.5154,3.5125,3.5171,3.5133,3.5162,3.5133,3.5162,3.5203,3.531,3.5318,3.5359,3.5465,3.5489,3.5489,3.5489,3.5489,3.5489,3.5489,3.5489,3.5489,3.5489,3.5489,3.5489,3.5489,3.5489,3.5489,3.5489,3.5489,3.5489,3.5489,3.5489,3.5489,3.5489,3.5489,3.5789,3.6365,3.6964,3.7691,3.8571,3.8811,3.8981,3.9272,3.9412,3.9412,3.9412,3.9412,3.9412,3.9412,3.9412,3.9412,3.9412,3.9412,3.9541,4.0029,4.0756,4.1703,4.2591,4.305,4.324,4.4529,4.3966,4.3302,4.2448,4.1517,4.0951,4.0412,3.9923,3.9772,3.971,3.971,3.971,3.971,3.971,3.971,3.971,3.971,3.971,3.971,3.971,3.971,3.971,3.971,3.971,3.971,3.971,3.9697,3.971,3.9635,3.9157,3.8668,3.8216,3.7688,3.7361,3.7185,3.6783,3.6319,3.5817,3.5874,3.5664,3.5263,3.5307,3.5499,3.5716,3.5658,3.551,3.526,3.5249,3.497,3.4364,3.4335,3.4389,3.4454,3.4471,3.4534,3.4735,3.4769,3.4769,3.4769,3.476,3.4752,3.476,3.481,3.4893,3.5055,3.5146,3.5261,3.5375,3.5495,3.5489,3.5489,3.5489,3.5489,3.5489,3.5489,3.5489,3.5489,3.5489,3.5489,3.5489,3.5489,3.5489,3.5489,3.5489,3.5489,3.5489,3.5489,3.5489,3.5489,3.5519,3.5699,3.6164,3.6216,3.6844,3.8042,3.8461,3.8691,3.9161,3.9412,3.9412,3.9412,3.9412,3.9412,3.9412,3.9412,3.9412,3.9412,3.9412,3.9511,3.9819,4.0457,4.1343,4.1972,4.2611,4.296,4.5121,4.4428,4.3413,4.2649,4.2098,4.1517,4.0976,4.0437,3.996,3.9722,3.9747,3.9735,3.9697,3.971,3.971,3.971,3.971,3.971,3.971,3.971,3.971,3.971,3.971,3.971,3.971,3.971,3.971,3.971,3.9685,3.9195,3.8894,3.8818,3.8266,3.7713,3.7349,3.7223,3.6909,3.6405,3.6127,3.5874,3.585,3.5963,3.5722,3.5288,3.5349,3.5372,3.5115,3.5096,3.4815,3.4234,3.4178,3.4085,3.3887,3.3854,3.4034,3.434,3.4399,3.4391,3.4382,3.4374,3.4374,3.4408,3.4538,3.4689,3.4731,3.4972,3.5171,3.5198,3.5384,3.5465,3.5489,3.5489,3.5489,3.5489,3.5489,3.5489,3.5489,3.5489,3.5489,3.5489,3.5489,3.5489,3.5489,3.5489,3.5489,3.5489,3.5489,3.5489,3.5519,3.5519,3.5639,3.5699,3.5848,3.6246,3.7922,3.8251,3.8571,3.9152,3.9412,3.9412,3.9412,3.9412,3.9412,3.9412,3.9412,3.9412,3.9412,3.9511,3.9699,3.9948,4.0187,4.0855,4.1343,4.2021,4.2461,4.4959,4.4027,4.3302,4.2688,4.2199,4.1959,4.1555,4.0988,4.0826,4.0538,4.0249,4.0211,4.0023,3.971,3.971,3.971,3.971,3.971,3.971,3.971,3.971,3.971,3.971,3.971,3.971,3.971,3.971,3.971,3.9672,3.9496,3.9409,3.9333,3.8856,3.8454,3.824,3.7902,3.7449,3.6959,3.6791,3.6482,3.5953,3.5936,3.579,3.5537,3.5812,3.563,3.4941,3.4904,3.4639,3.4035,3.3632,3.3514,3.3646,3.3547,3.354,3.3661,3.3678,3.3687,3.3687,3.3687,3.3687,3.3724,3.3899,3.4105,3.4327,3.4543,3.4819,3.51,3.5253,3.5343,3.5457,3.5489,3.5489,3.5489,3.5489,3.5489,3.5489,3.5489,3.5489,3.5489,3.5489,3.5489,3.5489,3.5489,3.5489,3.5489,3.5489,3.5519,3.5579,3.5818,3.6118,3.6207,3.6468,3.7105,3.8131,3.7982,3.8063,3.8943,3.9412,3.9412,3.9412,3.9412,3.9412,3.9412,3.9412,3.9412,3.9412,3.9412,3.964,3.9699,3.9999,4.0337,4.0735,4.1532,4.2081,4.4754,4.4001,4.3316,4.2774,4.2475,4.2274,4.1959,4.1592,4.1403,4.1088,4.08,4.0763,4.0549,4.0211,4.0049,3.9948,3.9923,3.9798,3.971,3.971,3.971,3.971,3.971,3.971,3.971,3.971,3.971,3.971,3.971,3.971,3.971,3.966,3.9308,3.9082,3.8869,3.8479,3.8015,3.7538,3.7299,3.688,3.6354,3.622,3.6037,3.5862,3.612,3.5859,3.4945,3.4771,3.4406,3.3814,3.3368,3.3246,3.3444,3.3486,3.3511,3.3483,3.3297,3.3177,3.3158,3.3028,3.2917,3.2917,3.3174,3.3437,3.3733,3.4094,3.4517,3.4923,3.5171,3.5294,3.5432,3.5489,3.5489,3.5489,3.5489,3.5489,3.5489,3.5489,3.5489,3.5489,3.5489,3.5489,3.5489,3.5489,3.5609,3.5797,3.5818,3.5878,3.6148,3.6447,3.6776,3.6806,3.7084,3.7554,3.8221,3.8161,3.8272,3.9062,3.9382,3.9412,3.9412,3.9412,3.9412,3.9412,3.9412,3.9412,3.9412,3.9412,3.9412,3.9412,3.9601,3.9939,4.0487,4.1164,4.1712,4.4589,4.4403,4.3452,4.2989,4.2864,4.2475,4.2224,4.211,4.1642,4.1428,4.1327,4.1327,4.1252,4.1113,4.0675,4.0512,4.0437,4.0074,3.981,3.9697,3.971,3.971,3.971,3.971,3.971,3.971,3.971,3.971,3.971,3.971,3.971,3.971,3.9685,3.9383,3.8957,3.8894,3.8617,3.8077,3.7588,3.7273,3.7147,3.6834,3.6446,3.6022,3.6129,3.5915,3.519,3.4711,3.4193,3.3655,3.3462,3.3398,3.3249,3.3496,3.3817,3.3645,3.3284,3.3022,3.2941,3.2534,3.2281,3.2282,3.2535,3.2894,3.3129,3.3716,3.4255,3.4714,3.5022,3.5269,3.5432,3.5489,3.5489,3.5489,3.5489,3.5489,3.5489,3.5489,3.5489,3.5489,3.5489,3.5489,3.5511,3.5601,3.5818,3.6254,3.6455,3.6626,3.7015,3.7276,3.7396,3.7426,3.7665,3.8144,3.8302,3.8461,3.8841,3.9221,3.9331,3.9412,3.9412,3.9412,3.9412,3.9412,3.9412,3.9412,3.9412,3.9412,3.9412,3.9412,3.9541,3.9699,4.0277,4.0885,4.1403,4.4589,4.4464,4.3438,4.3,4.2975,4.2813,4.2738,4.2738,4.2548,4.2272,4.197,4.1934,4.1681,4.1352,4.1127,4.1038,4.104,4.0864,4.045,3.9823,3.9735,3.9735,3.9722,3.9735,3.971,3.971,3.971,3.971,3.971,3.971,3.971,3.971,3.971,3.9597,3.9434,3.9434,3.9157,3.8655,3.8467,3.8039,3.7311,3.7095,3.6778,3.6298,3.5929,3.5617,3.5398,3.4838,3.4467,3.4214,3.3493,3.2935,3.2713,3.284,3.3014,3.2988,3.2856,3.2724,3.2714,3.2539,3.2309,3.2233,3.2483,3.2691,3.2821,3.3413,3.4028,3.4589,3.4868,3.5108,3.5408,3.5489,3.5503,3.5489,3.5489,3.5489,3.5481,3.5481,3.5489,3.5489,3.5489,3.5489,3.5601,3.581,3.6234,3.655,3.684,3.7221,3.7409,3.7849,3.8063,3.8093,3.8413,3.8644,3.8802,3.8892,3.9101,3.9272,3.9361,3.9412,3.9412,3.9412,3.9412,3.9412,3.9412,3.9412,3.9412,3.9412,3.9412,3.9442,3.9541,3.9789,4.0127,4.0705,4.1433,4.4503,4.4202,4.3377,4.3,4.3,4.3,4.3,4.3,4.3,4.2788,4.2551,4.25,4.2297,4.1943,4.1717,4.1656,4.1617,4.1414,4.0951,4.0387,4.0287,4.0287,4.0287,4.03,4.0161,4.0023,3.9998,3.9898,3.971,3.971,3.971,3.971,3.971,3.9697,3.971,3.9697,3.9496,3.9208,3.9007,3.8542,3.7889,3.7424,3.7022,3.6669,3.6143,3.5844,3.5803,3.526,3.4859,3.455,3.383,3.3206,3.2777,3.29,3.3012,3.296,3.283,3.2711,3.2691,3.2498,3.237,3.228,3.2595,3.2796,3.2928,3.3368,3.3976,3.439,3.4677,3.4964,3.5212,3.5627,3.5717,3.5659,3.5557,3.5503,3.5503,3.5416,3.5384,3.5427,3.5535,3.5599,3.577,3.6178,3.6714,3.6952,3.7309,3.7725,3.7891,3.8361,3.8537,3.8701,3.8955,3.9164,3.9322,3.9352,3.9352,3.9382,3.9382,3.9412,3.9412,3.9412,3.9412,3.9412,3.9412,3.9412,3.9412,3.9412,3.9412,3.9472,3.978,4.0178,4.0666,4.1304,4.1972,4.4288,4.3765,4.3226,4.3,4.3,4.3,4.3,4.3,4.3,4.2975,4.2964,4.2925,4.2939,4.2838,4.2386,4.2249,4.2174,4.1768,4.1553,4.1428,4.1364,4.1314,4.1152,4.1102,4.0876,4.06,4.0487,4.0211,3.9848,3.976,3.971,3.971,3.971,3.971,3.971,3.971,3.9672,3.9584,3.9195,3.8944,3.8781,3.7902,3.7261,3.716,3.6708,3.6418,3.6217,3.5827,3.5264,3.4748,3.4294,3.3821,3.3545,3.3592,3.3545,3.3483,3.315,3.2935,3.2782,3.2516,3.2234,3.2418,3.2754,3.3,3.3083,3.3597,3.4103,3.4364,3.4736,3.4965,3.5213,3.5705,3.6056,3.5921,3.5708,3.5592,3.5514,3.5358,3.5311,3.5366,3.56,3.5903,3.5962,3.6437,3.7025,3.7467,3.7711,3.8053,3.8429,3.8698,3.8976,3.9135,3.9214,3.9316,3.9355,3.9412,3.9412,3.9412,3.9412,3.9412,3.9412,3.9412,3.9412,3.9412,3.9502,3.9472,3.9532,3.9631,3.99,4.0268,4.0576,4.0855,4.1274,4.1882,4.2292,4.4101,4.3765,4.3226,4.3,4.3,4.3,4.3,4.3,4.3,4.3,4.3,4.3,4.3,4.2975,4.285,4.2788,4.2713,4.2598,4.2559,4.2534,4.2548,4.2019,4.1453,4.1314,4.1239,4.1076,4.0763,4.0437,4.0261,3.9936,3.976,3.971,3.971,3.971,3.971,3.971,3.971,3.971,3.9584,3.9258,3.8919,3.8642,3.8002,3.7223,3.7085,3.6783,3.6468,3.6256,3.568,3.4764,3.4232,3.3935,3.378,3.3492,3.3355,3.3293,3.3146,3.3045,3.3019,3.2883,3.2724,3.253,3.294,3.3164,3.3257,3.392,3.4502,3.501,3.5548,3.5816,3.5869,3.6155,3.6289,3.6131,3.593,3.5777,3.5743,3.5629,3.5502,3.5544,3.5857,3.6035,3.6212,3.6648,3.7114,3.7394,3.7723,3.8099,3.8377,3.8547,3.8651,3.901,3.9144,3.9235,3.9328,3.9364,3.9412,3.9412,3.9412,3.9481,3.9451,3.9451,3.9421,3.9412,3.975,3.981,4.0029,4.0208,4.0606,4.1005,4.1184,4.1364,4.1822,4.2341,4.2621,4.3377,4.324,4.2915,4.2874,4.3,4.3,4.3,4.3,4.3,4.3,4.3,4.3,4.3,4.3,4.3,4.3,4.3,4.3,4.2975,4.2975,4.295,4.261,4.2144,4.2005,4.1893,4.1656,4.1354,4.1103,4.0789,4.0325,4.0074,3.9998,3.9798,3.971,3.971,3.971,3.971,3.971,3.971,3.9534,3.9271,3.8994,3.863,3.7939,3.7701,3.7311,3.682,3.6519,3.5942,3.5191,3.4753,3.4477,3.4212,3.3721,3.3456,3.3431,3.3241,3.3101,3.3126,3.3101,3.306,3.3005,3.3316,3.3501,3.3638,3.4192,3.4819,3.4966,3.5575,3.5792,3.584,3.6047,3.6334,3.6479,3.6194,3.5992,3.6009,3.579,3.5649,3.5714,3.589,3.6109,3.6138,3.6709,3.7033,3.7167,3.7386,3.7682,3.7901,3.8071,3.8278,3.8584,3.8955,3.9074,3.9279,3.9381,3.9801,3.9771,4.0029,3.9969,3.9729,3.9699,3.9819,3.99,4.0088,4.0298,4.0606,4.0915,4.1224,4.1523,4.1673,4.1992,4.2451,4.2661,4.293,4.2323,4.24,4.24,4.2597,4.286,4.2916,4.2874,4.2944,4.293,4.2958,4.3,4.3,4.3,4.3,4.3,4.3,4.3,4.3,4.3,4.3,4.3,4.2875,4.285,4.2774,4.2612,4.2299,4.2249,4.1858,4.1366,4.0864,4.0613,4.0474,4.0074,3.9823,3.9823,3.9772,3.971,3.971,3.971,3.9672,3.9559,3.9258,3.8944,3.8668,3.814,3.7675,3.7173,3.6746,3.6219,3.562,3.5545,3.5182,3.4753,3.4262,3.4022,3.3922,3.3657,3.3416,3.3291,3.3341,3.3291,3.3455,3.3772,3.4017,3.3968,3.443,3.4848,3.4881,3.5181,3.5536,3.5517,3.5769,3.6113,3.645,3.6216,3.6071,3.6063,3.5853,3.5671,3.5681,3.5855,3.5927,3.6122,3.644,3.6833,3.657,3.6787,3.6942,3.7202,3.7404,3.7711,3.8108,3.8493,3.8874,3.9117,3.9398,3.9946,4.0348,4.0756,4.0786,4.0307,4.0277,4.0427,4.0546,4.0666,4.0975,4.1403,4.1673,4.1862,4.2152,4.2411,4.2761,4.307,4.305,4.321,4.1498,4.1791,4.1777,4.1976,4.2241,4.2294,4.2411,4.2636,4.2611,4.2765,4.2958,4.3,4.3,4.3,4.3,4.3,4.3,4.3,4.3,4.3,4.3,4.3,4.3,4.3,4.2939,4.2713,4.2375,4.2149,4.187,4.1466,4.1138,4.1051,4.06,4.0324,4.0287,3.9948,3.971,3.971,3.971,3.971,3.971,3.9584,3.9308,3.8931,3.8341,3.7801,3.7336,3.711,3.6771,3.6257,3.5819,3.557,3.528,3.4828,3.4564,3.4488,3.4402,3.4313,3.4262,3.3958,3.3743,3.3816,3.3891,3.3853,3.4069,3.467,3.513,3.541,3.5855,3.6033,3.6012,3.5819,3.5882,3.5961,3.5852,3.571,3.5743,3.5608,3.5474,3.5508,3.5615,3.576,3.5722,3.577,3.5981,3.5981,3.6051,3.6133,3.6419,3.6695,3.7209,3.7681,3.8264,3.8796,3.961,3.9992,4.0612,4.1076,4.1474,4.1753,4.1265,4.1035,4.1274,4.1304,4.1224,4.1622,4.2112,4.2221,4.2371,4.2771,4.306,4.313,4.324,4.33,4.329,4.0209,4.0932,4.0947,4.1306,4.1816,4.1873,4.2114,4.2467,4.2524,4.2681,4.2958,4.3,4.3,4.3,4.3,4.3,4.3,4.3,4.3,4.3,4.3,4.3,4.3,4.3,4.3,4.2964,4.2738,4.2601,4.2436,4.2046,4.1717,4.1681,4.1165,4.0901,4.08,4.0324,4.0124,4.0023,3.981,3.971,3.971,3.9697,3.9635,3.9233,3.873,3.8253,3.8065,3.7726,3.7299,3.6847,3.6458,3.617,3.5869,3.5394,3.5104,3.5043,3.4792,3.4717,3.4577,3.4463,3.4299,3.4262,3.4291,3.4423,3.4643,3.5095,3.551,3.5874,3.6213,3.6476,3.6439,3.5808,3.5564,3.5416,3.5239,3.5127,3.5118,3.5251,3.5358,3.5276,3.5231,3.5142,3.5114,3.5151,3.512,3.5114,3.5141,3.5237,3.5619,3.5978,3.6745,3.7334,3.8043,3.8832,3.9913,4.0709,4.1428,4.1883,4.2262,4.2491,4.2392,4.2252,4.2232,4.2112,4.1972,4.2372,4.2791,4.283,4.284,4.305,4.322,4.327,4.329,4.329,4.329,3.8804,3.9916,3.9916,4.047,4.1249,4.132,4.1649,4.2217,4.233,4.2499,4.2916,4.2972,4.3,4.3,4.3,4.3,4.3,4.3,4.3,4.3,4.3,4.3,4.3,4.3,4.3,4.3,4.295,4.2939,4.2813,4.2576,4.2311,4.221,4.1717,4.1466,4.1341,4.0901,4.0563,4.0387,4.0099,3.9798,3.9722,3.971,3.9685,3.9559,3.9258,3.8919,3.8705,3.8366,3.7902,3.7386,3.7324,3.7022,3.6532,3.6006,3.5645,3.562,3.528,3.5166,3.5141,3.494,3.4828,3.4815,3.4914,3.5049,3.5132,3.5355,3.566,3.5948,3.6222,3.6411,3.6452,3.5814,3.5352,3.5168,3.4788,3.4486,3.4512,3.4902,3.4903,3.4903,3.4687,3.4506,3.4429,3.4408,3.4335,3.4293,3.433,3.4518,3.4955,3.5535,3.6406,3.7388,3.82,3.9381,4.0529,4.14,4.2147,4.2393,4.2831,4.2882,4.3001,4.2783,4.2564,4.2731,4.2791,4.303,4.315,4.313,4.316,4.33,4.329,4.329,4.329,4.329,4.3329,3.7714,3.8611,3.8626,3.9188,4.0019,4.0106,4.0629,4.1373,4.1706,4.2075,4.2583,4.2863,4.3,4.3,4.3,4.3,4.3,4.3,4.3,4.3,4.3,4.3,4.3,4.3,4.3,4.3,4.3,4.3,4.3,4.29,4.2763,4.2699,4.2297,4.206,4.1895,4.148,4.0989,4.0713,4.0412,4.0124,3.9848,3.9722,3.971,3.971,3.9534,3.9321,3.9019,3.8818,3.8479,3.7939,3.7889,3.7563,3.7098,3.6557,3.6281,3.6155,3.6043,3.5904,3.5904,3.5618,3.5431,3.5314,3.5284,3.5178,3.5206,3.5374,3.5703,3.5827,3.5934,3.5944,3.5859,3.5587,3.5414,3.5238,3.4915,3.4577,3.4517,3.4418,3.4328,3.4459,3.4176,3.3894,3.3889,3.3934,3.4037,3.4103,3.418,3.4542,3.5076,3.569,3.6445,3.7455,3.8522,3.9863,4.1233,4.205,4.2753,4.2773,4.2952,4.2852,4.2921,4.283,4.2801,4.2812,4.2942,4.3111,4.321,4.326,4.329,4.328,4.329,4.329,4.3359,4.3389,4.3479,3.6594,3.7315,3.7503,3.8134,3.8952,3.9226,3.9931,4.0904,4.1421,4.1948,4.2457,4.2846,4.3,4.3,4.3,4.3,4.3,4.3,4.3,4.3,4.3,4.3,4.3,4.3,4.3,4.3,4.3,4.3,4.3,4.2975,4.3,4.2939,4.2713,4.2612,4.25,4.206,4.1656,4.1292,4.0827,4.0412,4.0086,3.9898,3.9697,3.971,3.971,3.9559,3.9409,3.9308,3.9044,3.8605,3.8454,3.8153,3.765,3.7148,3.6683,3.6494,3.643,3.6405,3.6393,3.6093,3.5981,3.5968,3.5807,3.5789,3.5787,3.593,3.5963,3.6137,3.6231,3.6231,3.6257,3.5771,3.5483,3.5359,3.5012,3.473,3.4581,3.4342,3.4325,3.4288,3.3981,3.3738,3.3462,3.3567,3.377,3.3911,3.4038,3.4568,3.5178,3.5809,3.6486,3.7813,3.8957,4.0205,4.1408,4.2084,4.2759,4.288,4.287,4.2769,4.2668,4.2505,4.2556,4.2649,4.284,4.288,4.312,4.3091,4.319,4.326,4.328,4.3329,4.3419,4.3479,4.3628,3.5557,3.612,3.6395,3.705,3.7894,3.8268,3.9115,4.0272,4.098,4.1649,4.233,4.2681,4.293,4.3,4.3,4.3,4.3,4.3,4.3,4.3,4.3,4.3,4.3,4.3,4.3,4.3,4.3,4.3,4.3,4.3,4.3,4.2975,4.3,4.3,4.2864,4.2537,4.2361,4.1909,4.1393,4.084,4.0437,3.9998,3.971,3.971,3.971,3.9672,3.9635,3.9635,3.9459,3.917,3.9019,3.8781,3.8241,3.7764,3.7235,3.6683,3.648,3.643,3.6393,3.6393,3.6318,3.6292,3.6368,3.638,3.6355,3.6288,3.6398,3.6617,3.6588,3.6561,3.6448,3.6059,3.5778,3.5616,3.5276,3.4865,3.486,3.4757,3.4592,3.4379,3.3943,3.3842,3.3852,3.3845,3.4166,3.4216,3.4379,3.4804,3.5393,3.5875,3.6724,3.8179,3.9443,4.0594,4.1467,4.1831,4.2312,4.2466,4.2414,4.2291,4.2209,4.2135,4.2176,4.2125,4.2106,4.2159,4.2537,4.296,4.303,4.311,4.323,4.3449,4.3698,4.3938,4.4117,3.4735,3.5092,3.5139,3.5705,3.6624,3.7035,3.7864,3.91,4.0062,4.0889,4.182,4.2316,4.2737,4.2958,4.3,4.3,4.3,4.3,4.3,4.3,4.3,4.3,4.3,4.3,4.3,4.3,4.3,4.3,4.3,4.3,4.3,4.3,4.3,4.3,4.2975,4.2864,4.2663,4.2249,4.2048,4.1468,4.0588,3.9985,3.9798,3.971,3.971,3.971,3.971,3.971,3.9609,3.9609,3.9584,3.9333,3.8881,3.8768,3.809,3.7311,3.6733,3.6405,3.6418,3.6468,3.6494,3.6519,3.6519,3.6443,3.6494,3.6494,3.6492,3.6417,3.6452,3.6464,3.6487,3.6341,3.6281,3.6093,3.5743,3.5481,3.5394,3.5303,3.5141,3.5041,3.4763,3.469,3.4659,3.4611,3.4614,3.4639,3.4737,3.52,3.5655,3.6202,3.6937,3.8389,3.9284,4.0378,4.1008,4.143,4.1702,4.1943,4.1871,4.1733,4.1545,4.1438,4.1414,4.1382,4.1382,4.1767,4.2443,4.2757,4.2857,4.3039,4.3298,4.3707,4.4157,4.4396,4.4755,3.4032,3.436,3.4532,3.5092,3.5844,3.638,3.7352,3.8581,3.9703,4.073,4.1592,4.2231,4.2667,4.2958,4.3,4.3,4.3,4.3,4.3,4.3,4.3,4.3,4.3,4.3,4.3,4.3,4.3,4.3,4.3,4.3,4.3,4.3,4.3,4.3,4.3,4.3,4.2889,4.2626,4.2299,4.1594,4.0738,4.0261,4.0023,3.9735,3.9735,3.971,3.971,3.971,3.971,3.971,3.971,3.9635,3.9308,3.9057,3.858,3.8266,3.7637,3.706,3.6569,3.6708,3.6808,3.6959,3.706,3.7223,3.6984,3.6845,3.6695,3.643,3.6405,3.643,3.643,3.6405,3.6405,3.6292,3.6118,3.6068,3.5931,3.5892,3.5778,3.5691,3.5616,3.549,3.5353,3.5241,3.518,3.5205,3.5378,3.5786,3.6241,3.6735,3.756,3.8577,3.9248,3.987,4.0322,4.0709,4.0923,4.1107,4.117,4.1008,4.073,4.0619,4.0759,4.0864,4.0922,4.1471,4.2292,4.2497,4.2478,4.2937,4.3463,4.4011,4.4571,4.5373,4.5762,3.3544,3.3796,3.4047,3.4532,3.5201,3.5859,3.6883,3.8164,3.9418,4.0542,4.1506,4.2259,4.2804,4.2958,4.3,4.3,4.3,4.3,4.3,4.3,4.3,4.3,4.3,4.3,4.3,4.3,4.3,4.3,4.3,4.3,4.3,4.3,4.3,4.3,4.3,4.3,4.2964,4.29,4.2436,4.1783,4.1103,4.0625,4.0287,3.9998,3.9798,3.971,3.971,3.971,3.971,3.971,3.971,3.9685,3.9584,3.9333,3.9044,3.8743,3.8316,3.7801,3.7299,3.7198,3.7374,3.7525,3.7675,3.7726,3.75,3.7399,3.7299,3.6934,3.6695,3.6669,3.6569,3.6519,3.6405,3.6405,3.6368,3.6393,3.6393,3.6318,3.6217,3.6091,3.6055,3.6167,3.6029,3.5869,3.5782,3.5794,3.6043,3.6355,3.6687,3.7013,3.7583,3.8338,3.8744,3.9225,3.9585,3.9913,4.012,4.0312,4.0405,4.038,4.02,4.0277,4.0471,4.0513,4.0588,4.1003,4.1725,4.1903,4.2172,4.2934,4.3715,4.4395,4.5079,4.5913,4.6529,3.3402,3.3434,3.3461,3.389,3.4548,3.5185,3.6264,3.7631,3.8841,4.0121,4.1363,4.2344,4.2958,4.3,4.3,4.3,4.3,4.3,4.3,4.3,4.3,4.3,4.3,4.3,4.3,4.3,4.3,4.3,4.3,4.3,4.3,4.3,4.3,4.3,4.3,4.3,4.3,4.29,4.2537,4.2249,4.1708,4.1178,4.0563,4.0337,3.9973,3.971,3.971,3.971,3.971,3.971,3.971,3.971,3.9647,3.9572,3.9346,3.907,3.8944,3.8479,3.8115,3.7914,3.7927,3.799,3.8077,3.8178,3.799,3.7952,3.7889,3.7726,3.7324,3.7185,3.7009,3.6783,3.6708,3.6745,3.6833,3.682,3.6795,3.6708,3.6594,3.6468,3.6468,3.6569,3.6468,3.6244,3.6107,3.6093,3.6142,3.6428,3.6582,3.691,3.7248,3.7744,3.8088,3.8485,3.8852,3.9163,3.9509,3.9678,3.9755,3.9821,3.9795,3.9959,4.0159,4.0449,4.0559,4.0834,4.1172,4.1661,4.2279,4.3186,4.3957,4.4597,4.547,4.6334,4.6813,3.2808,3.3027,3.3047,3.3559,3.4454,3.5108,3.6156,3.748,3.876,4.0246,4.173,4.2594,4.3,4.3,4.3,4.3,4.3,4.3,4.3,4.3,4.3,4.3,4.3,4.3,4.3,4.3,4.3,4.3,4.3,4.3,4.3,4.3,4.3,4.3,4.3,4.3,4.3,4.295,4.2788,4.2576,4.211,4.1858,4.1217,4.0501,4.04,3.9998,3.9772,3.971,3.971,3.971,3.971,3.971,3.971,3.971,3.9584,3.9383,3.9333,3.9208,3.8969,3.8756,3.8705,3.8994,3.9032,3.8906,3.8592,3.8555,3.8291,3.8077,3.7864,3.7726,3.7638,3.7513,3.7462,3.7399,3.7324,3.7286,3.7235,3.7148,3.7148,3.711,3.6984,3.6934,3.6783,3.6582,3.6468,3.6368,3.6417,3.6502,3.6745,3.6888,3.7271,3.7568,3.7895,3.8028,3.8397,3.8663,3.8948,3.9065,3.9198,3.9359,3.953,3.9585,3.9791,4.0154,4.0571,4.0808,4.1181,4.1693,4.2359,4.3131,4.3943,4.4766,4.5698,4.6647,4.6973,3.2374,3.2613,3.2633,3.3256,3.4273,3.4968,3.5957,3.7186,3.8455,4.0135,4.1958,4.258,4.293,4.2972,4.3,4.3,4.3,4.3,4.3,4.3,4.3,4.3,4.3,4.3,4.3,4.3,4.3,4.3,4.3,4.3,4.3,4.3,4.3,4.3,4.3,4.3,4.3,4.3,4.2964,4.2864,4.2462,4.2199,4.1744,4.0839,4.0588,4.0199,3.9848,3.971,3.971,3.971,3.971,3.971,3.971,3.971,3.971,3.971,3.971,3.971,3.9584,3.9459,3.9308,3.9496,3.9572,3.9409,3.9258,3.9145,3.8956,3.8668,3.8442,3.8266,3.8241,3.804,3.7864,3.7713,3.7739,3.7713,3.7739,3.7688,3.7764,3.7789,3.7613,3.7424,3.7349,3.7198,3.7009,3.6884,3.6795,3.697,3.7282,3.739,3.7459,3.7687,3.7901,3.7928,3.7969,3.8477,3.8889,3.8891,3.9024,3.9215,3.9376,3.9429,3.9725,4.0254,4.0602,4.0794,4.1107,4.1476,4.2172,4.2975,4.3956,4.5046,4.5671,4.6543,4.685,3.2179,3.2198,3.2218,3.2852,3.3865,3.4621,3.55,3.6648,3.8029,3.9747,4.1606,4.2287,4.2748,4.2944,4.3,4.3,4.3,4.3,4.3,4.3,4.3,4.3,4.3,4.3,4.3,4.3,4.3,4.3,4.3,4.3,4.3,4.3,4.3,4.3,4.3,4.3,4.3,4.3,4.3,4.2925,4.2813,4.25,4.1945,4.1391,4.0851,4.0412,3.9998,3.9735,3.971,3.971,3.971,3.971,3.971,3.971,3.971,3.971,3.971,3.971,3.9685,3.9647,3.9647,3.9672,3.971,3.9635,3.966,3.9635,3.9559,3.922,3.9082,3.8919,3.8718,3.8467,3.8291,3.8266,3.8316,3.8341,3.8391,3.8391,3.8467,3.8467,3.8191,3.799,3.7965,3.7864,3.7625,3.7449,3.7248,3.7386,3.7724,3.7761,3.7733,3.7792,3.7936,3.8022,3.8131,3.8548,3.8837,3.8813,3.8968,3.9264,3.9417,3.9557,3.9915,4.0363,4.0452,4.0489,4.0805,4.1172,4.204,4.2994,4.4351,4.5377,4.5916,4.6369,4.6723,3.1484,3.1738,3.1738,3.2146,3.2905,3.4033,3.5199,3.6642,3.8573,4.0301,4.1521,4.2245,4.2692,4.2916,4.3,4.3,4.3,4.3,4.3,4.3,4.3,4.3,4.3,4.3,4.3,4.3,4.3,4.3,4.3,4.3,4.3,4.3,4.3,4.3,4.3,4.3,4.3,4.3,4.3,4.2975,4.2975,4.2788,4.245,4.1895,4.1316,4.0763,4.0211,3.9948,3.9772,3.9722,3.971,3.971,3.971,3.971,3.971,3.971,3.971,3.971,3.971,3.9697,3.9697,3.971,3.971,3.971,3.971,3.971,3.971,3.971,3.9509,3.9358,3.9358,3.9283,3.9195,3.922,3.9245,3.9233,3.9258,3.922,3.9245,3.9132,3.8956,3.8454,3.8241,3.8391,3.8241,3.8203,3.8052,3.7864,3.8065,3.7977,3.7926,3.7938,3.8012,3.8124,3.8312,3.8764,3.8992,3.8992,3.9221,3.9512,3.9651,3.9652,3.9829,4.016,4.0134,4.0134,4.0681,4.126,4.2055,4.3076,4.4263,4.5184,4.5629,4.6135,4.6657,3.1055,3.1274,3.1309,3.1558,3.2123,3.3326,3.4786,3.6518,3.8595,4.0126,4.1105,4.1848,4.2414,4.2723,4.2958,4.3,4.3,4.3,4.3,4.3,4.3,4.3,4.3,4.3,4.3,4.3,4.3,4.3,4.3,4.3,4.3,4.3,4.3,4.3,4.3,4.3,4.3,4.3,4.3,4.3,4.3,4.2914,4.2727,4.2235,4.1744,4.1279,4.0651,4.0199,3.986,3.9772,3.971,3.971,3.971,3.971,3.971,3.971,3.971,3.971,3.971,3.971,3.971,3.971,3.971,3.971,3.971,3.971,3.971,3.971,3.971,3.9697,3.9672,3.971,3.971,3.9672,3.9685,3.966,3.9635,3.9572,3.9546,3.9509,3.9409,3.8931,3.8617,3.8743,3.8843,3.8843,3.8856,3.8668,3.8492,3.8454,3.8429,3.8467,3.8529,3.873,3.8869,3.9083,3.9221,3.9195,3.9409,3.9685,3.9698,3.9688,3.9827,3.9904,3.9916,4.0109,4.0719,4.1398,4.2166,4.297,4.3915,4.4688,4.5253,4.5962,4.6731,3.0913,3.0913,3.0913,3.1133,3.1613,3.2675,3.4291,3.6257,3.7702,3.9054,4.031,4.1292,4.2019,4.2527,4.2874,4.3,4.3,4.3,4.3,4.3,4.3,4.3,4.3,4.3,4.3,4.3,4.3,4.3,4.3,4.3,4.3,4.3,4.3,4.3,4.3,4.3,4.3,4.3,4.3,4.3,4.3,4.2975,4.2763,4.2411,4.2085,4.1594,4.1028,4.0538,4.0199,3.9948,3.9735,3.971,3.971,3.971,3.971,3.971,3.971,3.971,3.971,3.971,3.971,3.971,3.971,3.971,3.971,3.971,3.971,3.971,3.971,3.971,3.971,3.971,3.971,3.971,3.971,3.971,3.971,3.9672,3.9685,3.966,3.966,3.9434,3.9383,3.9421,3.9245,3.932,3.9308,3.9295,3.9195,3.9245,3.9245,3.927,3.9358,3.9509,3.9572,3.9446,3.9446,3.9434,3.9509,3.971,3.971,3.971,3.9774,3.9788,3.9787,4.0083,4.0719,4.146,4.2266,4.3109,4.4117,4.4546,4.5235,4.6245,4.6971,3.0913,3.0913,3.0913,3.0957,3.1216,3.2235,3.3906,3.5926,3.7266,3.8684,4.0266,4.1206,4.1866,4.2485,4.286,4.2972,4.3,4.3,4.3,4.3,4.3,4.3,4.3,4.3,4.3,4.3,4.3,4.3,4.3,4.3,4.3,4.3,4.3,4.3,4.3,4.3,4.3,4.3,4.3,4.3,4.3,4.3,4.2838,4.2713,4.2386,4.1959,4.1619,4.0889,4.0512,4.0287,3.9873,3.9722,3.971,3.971,3.971,3.971,3.971,3.971,3.971,3.971,3.971,3.971,3.971,3.971,3.971,3.971,3.971,3.971,3.971,3.971,3.971,3.971,3.971,3.971,3.971,3.971,3.971,3.971,3.971,3.971,3.971,3.971,3.971,3.9672,3.9521,3.9622,3.971,3.971,3.971,3.971,3.971,3.971,3.971,3.971,3.971,3.9597,3.9647,3.9685,3.971,3.971,3.971,3.971,3.971,3.9787,3.9916,4.0249,4.0744,4.1587,4.2616,4.3633,4.4585,4.4861,4.5304,4.6439,4.7265,3.0913,3.0913,3.0913,3.0913,3.104,3.171,3.3085,3.4779,3.6267,3.7909,3.9552,4.0497,4.1454,4.2287,4.265,4.286,4.3,4.3,4.3,4.3,4.3,4.3,4.3,4.3,4.3,4.3,4.3,4.3,4.3,4.3,4.3,4.3,4.3,4.3,4.3,4.3,4.3,4.3,4.3,4.3,4.3,4.3,4.3,4.2925,4.2612,4.2436,4.216,4.1354,4.1014,4.0613,4.0086,3.9898,3.9798,3.971,3.971,3.971,3.971,3.971,3.971,3.971,3.971,3.971,3.971,3.971,3.971,3.971,3.971,3.971,3.971,3.971,3.971,3.971,3.971,3.971,3.971,3.971,3.971,3.971,3.971,3.971,3.971,3.971,3.971,3.971,3.971,3.971,3.971,3.971,3.971,3.971,3.971,3.971,3.971,3.971,3.971,3.971,3.971,3.971,3.971,3.971,3.971,3.971,3.971,3.9903,4.0147,4.0581,4.113,4.2078,4.3098,4.4138,4.5165,4.5716,4.6219,4.6969,4.7633,3.0913,3.0913,3.0913,3.0913,3.0942,3.1248,3.2011,3.3091,3.4925,3.6761,3.839,3.9476,4.0724,4.178,4.2351,4.2723,4.2916,4.3,4.3,4.3,4.3,4.3,4.3,4.3,4.3,4.3,4.3,4.3,4.3,4.3,4.3,4.3,4.3,4.3,4.3,4.3,4.3,4.3,4.3,4.3,4.3,4.3,4.3,4.3,4.2914,4.2802,4.24,4.2034,4.1719,4.1003,4.0512,4.035,4.0023,3.9848,3.9823,3.971,3.971,3.971,3.971,3.971,3.971,3.971,3.971,3.971,3.971,3.971,3.971,3.971,3.971,3.971,3.971,3.971,3.971,3.971,3.971,3.971,3.971,3.971,3.971,3.971,3.971,3.971,3.971,3.971,3.971,3.971,3.971,3.971,3.971,3.971,3.971,3.971,3.971,3.971,3.971,3.971,3.971,3.971,3.971,3.971,3.971,3.971,3.9735,4.0029,4.0387,4.1055,4.1685,4.258,4.3563,4.4837,4.5805,4.6591,4.7229,4.778,4.822,3.0913,3.0913,3.0913,3.0913,3.0957,3.1185,3.1718,3.2477,3.3628,3.5349,3.7322,3.8865,4.0163,4.1163,4.2062,4.2589,4.2869,4.2975,4.3,4.3,4.3,4.3,4.3,4.3,4.3,4.3,4.3,4.3,4.3,4.3,4.3,4.3,4.3,4.3,4.3,4.3,4.3,4.3,4.3,4.3,4.3,4.3,4.3,4.3,4.2964,4.2964,4.2637,4.2375,4.2149,4.1783,4.1316,4.0864,4.0362,4.0325,4.0099,3.9798,3.9735,3.971,3.971,3.971,3.971,3.971,3.971,3.971,3.971,3.971,3.971,3.971,3.971,3.971,3.971,3.971,3.971,3.971,3.971,3.971,3.971,3.971,3.971,3.971,3.971,3.971,3.971,3.971,3.971,3.971,3.971,3.971,3.971,3.971,3.971,3.971,3.971,3.971,3.971,3.971,3.971,3.971,3.971,3.971,3.9722,3.9823,3.9961,4.0278,4.0688,4.1386,4.2099,4.2852,4.3954,4.5331,4.6406,4.7192,4.8003,4.8641,4.8972,3.0586,3.0605,3.0801,3.0913,3.0942,3.1054,3.1469,3.209,3.2714,3.3983,3.5819,3.7694,3.9304,4.047,4.1527,4.2249,4.2604,4.29,4.2975,4.3,4.295,4.3,4.3,4.3,4.3,4.3,4.3,4.3,4.3,4.3,4.3,4.3,4.3,4.3,4.3,4.3,4.3,4.3,4.3,4.3,4.3,4.3,4.3,4.3,4.3,4.3,4.2939,4.2676,4.245,4.211,4.1567,4.1252,4.0826,4.0588,4.0362,4.0099,3.9898,3.971,3.971,3.971,3.971,3.971,3.971,3.971,3.971,3.971,3.971,3.971,3.971,3.971,3.971,3.971,3.971,3.971,3.971,3.971,3.971,3.971,3.971,3.971,3.971,3.971,3.971,3.971,3.971,3.971,3.971,3.9747,3.9747,3.9772,3.9747,3.971,3.971,3.971,3.971,3.971,3.971,3.971,3.971,3.9898,3.9998,4.0061,4.0212,4.0692,4.1205,4.1844,4.2551,4.3297,4.4438,4.5817,4.6865,4.7778,4.8576,4.9219,4.9567,3.0156,3.0254,3.0703,3.0913,3.0913,3.0928,3.1214,3.1744,3.2084,3.2899,3.4321,3.6353,3.8139,3.9558,4.074,4.1398,4.1954,4.2292,4.2585,4.2838,4.2838,4.2889,4.2964,4.3,4.3,4.3,4.3,4.3,4.3,4.3,4.3,4.3,4.3,4.3,4.3,4.3,4.3,4.3,4.3,4.3,4.3,4.3,4.3,4.3,4.3,4.3,4.3,4.2939,4.2701,4.2411,4.1957,4.1667,4.1302,4.0976,4.0638,4.0375,3.9936,3.9785,3.971,3.971,3.971,3.971,3.971,3.971,3.971,3.971,3.971,3.971,3.971,3.971,3.971,3.971,3.971,3.9722,3.9722,3.9747,3.9747,3.9722,3.9735,3.9735,3.971,3.971,3.9735,3.9735,3.9772,3.9747,3.9798,3.9798,3.9848,3.9923,3.9948,3.9823,3.971,3.971,3.971,3.971,3.971,3.971,3.9747,4.0036,4.0312,4.0487,4.0763,4.1281,4.1825,4.2272,4.3038,4.3831,4.505,4.6083,4.6927,4.7757,4.8499,4.9198,4.9876,2.9916,3.0234,3.0703,3.0913,3.0913,3.0913,3.1083,3.1441,3.1969,3.2771,3.3826,3.5121,3.6736,3.8366,3.9699,4.0572,4.1232,4.162,4.2019,4.2274,4.2336,4.2612,4.2864,4.295,4.2975,4.3,4.3,4.3,4.3,4.3,4.3,4.3,4.3,4.3,4.3,4.3,4.3,4.3,4.3,4.3,4.3,4.3,4.3,4.3,4.3,4.3,4.3,4.3,4.2939,4.2838,4.2674,4.2347,4.1957,4.1466,4.104,4.0588,4.0124,3.9823,3.9747,3.971,3.971,3.971,3.971,3.971,3.971,3.971,3.971,3.971,3.971,3.971,3.971,3.971,3.971,3.9798,3.9823,3.9873,3.9898,3.9848,3.9798,3.9785,3.976,3.9785,3.9798,3.9873,4.0036,4.0111,4.0337,4.0337,4.0362,4.0287,4.0224,3.9998,3.9823,3.971,3.971,3.971,3.971,3.971,3.9848,4.0275,4.0638,4.0951,4.1316,4.1845,4.218,4.2564,4.3388,4.4152,4.4902,4.5821,4.6755,4.7596,4.8396,4.9273,5.0072]},{"header":{"parameterUnit":"m.s-1","parameterCategory":1,"la1":31.0,"la2":29.5877,"lo1":-88.7671,"lo2":-86.6584,"dy":0.0162,"dx":0.0185,"nx":115,"ny":88,"refTime":"2024-03-22T18:00:00:Z","depth":0,"parameterNumber":3,"parameterNumberName":"V-component_of_WINDS"},"data":[0.0,0.0,0.0,0.0,0.0,0.0,0.0,0.0,0.0,0.0,0.0,0.0,0.0,0.0,0.0,0.0,0.0,0.0,0.0,0.0,0.0,0.0,0.0,0.0,0.0,0.0,0.0,0.0,0.0,0.0,0.0,0.0,0.0,0.0,0.0,0.0,0.0,0.0,0.0,0.0,0.0,0.0,0.0,0.0,0.0,0.0,0.0,0.0,0.0,0.0,0.0,0.0,0.0,0.0,0.0,0.0,0.0,0.0,0.0,0.0,0.0,0.0,0.0,0.0,0.0,0.0,0.0,0.0,0.0,0.0,0.0,0.0,0.0,0.0,0.0,0.0,0.0,0.0,0.0,0.0,0.0,0.0,0.0,0.0,0.0,0.0,0.0,0.0,0.0,0.0,0.0,0.0,0.0,0.0,0.0,0.0,0.0,0.0,0.0,0.0,0.0,0.0,0.0,0.0,0.0,0.0,0.0,0.0,0.0,0.0,0.0,0.0,0.0,0.0,0.0,0.0,0.0,0.0,0.0,0.0,0.0,0.0,0.0,0.0,0.0,0.0,0.0,0.0,0.0,0.0,0.0,0.0,0.0,0.0,0.0,0.0,0.0,0.0,0.0,0.0,0.0,0.0,0.0,0.0,0.0,0.0,0.0,0.0,0.0,0.0,0.0,0.0,0.0,0.0,0.0,0.0,0.0,0.0,0.0,0.0,0.0,0.0,0.0,0.0,0.0,0.0,0.0,0.0,0.0,0.0,0.0,0.0,0.0,0.0,0.0,0.0,0.0,0.0,0.0,0.0,0.0,0.0,0.0,0.0,0.0,0.0,0.0,0.0,0.0,0.0,0.0,0.0,0.0,0.0,0.0,0.0,0.0,0.0,0.0,0.0,0.0,0.0,0.0,0.0,0.0,0.0,0.0,0.0,0.0,0.0,0.0,0.0,0.0,0.0,0.0,0.0,0.0,0.0,0.0,0.0,0.0,0.0,0.0,0.0,0.0,0.0,0.0,0.0,0.0,0.0,0.0,0.0,0.0,0.0,0.0,0.0,0.0,0.0,0.0,0.0,0.0,0.0,0.0,0.0,0.0,0.0,0.0,0.0,0.0,0.0,0.0,0.0,0.0,0.0,0.0,0.0,0.0,0.0,0.0,0.0,0.0,0.0,0.0,0.0,0.0,0.0,0.0,0.0,0.0,0.0,0.0,0.0,0.0,0.0,0.0,0.0,0.0,0.0,0.0,0.0,0.0,0.0,0.0,0.0,0.0,0.0,0.0,0.0,0.0,0.0,0.0,0.0,0.0,0.0,0.0,0.0,0.0,0.0,0.0,0.0,0.0,0.0,0.0,0.0,0.0,0.0,0.0,0.0,0.0,0.0,0.0,0.0,0.0,0.0,0.0,0.0,0.0,0.0,0.0,0.0,0.0,0.0,0.0,0.0,0.0,0.0,0.0,0.0,0.0,0.0,0.0,0.0,0.0,0.0,0.0,0.0,0.0,0.0,0.0,0.0,0.0,0.0,0.0,0.0,0.0,0.0,0.0,0.0,0.0,0.0,0.0,0.0,0.0,0.0,0.0,0.0,0.0,0.0,0.0,0.0,0.0,0.0,0.0,0.0,0.0,0.0,0.0,0.0,0.0,0.0,0.0,0.0,0.0,0.0,0.0,0.0,0.0,0.0,0.0,0.0,0.0,0.0,0.0,0.0,0.0,0.0,0.0,0.0,0.0,0.0,0.0,0.0,0.0,0.0,0.0,0.0,0.0,0.0,0.0,0.0,0.0,0.0,0.0,0.0,0.0,0.0,0.0,0.0,0.0,0.0,0.0,0.0,0.0,0.0,0.0,0.0,0.0,0.0,0.0,0.0,0.0,0.0,0.0,0.0,0.0,0.0,0.0,0.0,0.0,0.0,0.0,0.0,0.0,0.0,0.0,0.0,0.0,0.0,0.0,0.0,0.0,0.0,0.0,0.0,0.0,0.0,0.0,0.0,0.0,0.0,0.0,0.0,0.0,0.0,0.0,0.0,0.0,0.0,0.0,0.0,0.0,0.0,0.0,0.0,0.0,0.0,0.0,0.0,0.0,0.0,0.0,0.0,0.0,0.0,0.0,0.0,0.0,0.0,0.0,0.0,0.0,0.0,0.0,0.0,0.0,0.0,0.0,0.0,0.0,0.0,0.0,0.0,0.0,0.0,0.0,0.0,0.0,0.0,0.0,0.0,0.0,0.0,0.0,0.0,0.0,0.0,0.0,0.0,0.0,0.0,0.0,0.0,0.0,0.0,0.0,0.0,0.0,0.0,0.0,0.0,0.0,0.0,0.0,0.0,0.0,0.0,0.0,0.0,0.0,0.0,0.0,0.0,0.0,0.0,0.0,0.0,0.0,0.0,0.0,0.0,0.0,0.0,0.0,0.0,0.0,0.0,0.0,0.0,0.0,0.0,0.0,0.0,0.0,0.0,0.0,0.0,0.0,0.0,0.0,0.0,0.0,0.0,0.0,0.0,0.0,0.0,0.0,0.0,0.0,0.0,0.0,0.0,0.0,0.0,0.0,0.0,0.0,0.0,0.0,0.0,0.0,0.0,0.0,0.0,0.0,0.0,0.0,0.0,0.0,0.0,0.0,0.0,0.0,0.0,0.0,0.0,0.0,0.0,0.0,0.0,0.0,0.0,0.0,0.0,0.0,0.0,0.0,0.0,0.0,0.0,0.0,0.0,0.0,0.0,0.0,0.0,0.0,0.0,0.0,0.0,0.0,0.0,0.0,0.0,0.0,0.0,0.0,0.0,0.0,0.0,0.0,0.0,0.0,0.0,0.0,0.0,0.0,0.0,0.0,0.0,0.0,0.0,0.0,0.0,0.0,0.0,0.0,0.0,0.0,0.0,0.0,0.0,0.0,0.0,0.0,0.0,0.0,0.0,0.0,0.0,0.0,0.0,0.0,0.0,0.0,0.0,0.0,0.0,0.0,0.0,0.0,0.0,0.0,0.0,0.0,0.0,0.0,0.0,0.0,0.0,0.0,0.0,0.0,0.0,0.0,0.0,0.0,0.0,0.0,0.0,0.0,0.0,0.0,0.0,0.0,0.0,0.0,0.0,0.0,0.0,0.0,0.0,0.0,0.0,0.0,0.0,0.0,0.0,0.0,0.0,0.0,0.0,0.0,0.0,0.0,0.0,0.0,0.0,0.0,0.0,0.0,0.0,0.0,0.0,0.0,0.0,0.0,0.0,0.0,0.0,0.0,0.0,0.0,0.0,0.0,0.0,0.0,0.0,0.0,0.0,0.0,0.0,0.0,0.0,0.0,0.0,0.0,0.0,0.0,0.0,0.0,0.0,0.0,0.0,0.0,0.0,0.0,0.0,0.0,0.0,0.0,0.0,0.0,0.0,0.0,0.0,0.0,0.0,0.0,0.0,0.0,0.0,0.0,0.0,0.0,0.0,0.0,0.0,0.0,0.0,0.0,0.0,0.0,0.0,0.0,0.0,0.0,0.0,0.0,0.0,0.0,0.0,0.0,0.0,0.0,0.0,0.0,0.0,0.0,0.0,0.0,0.0,0.0,0.0,0.0,0.0,0.0,0.0,0.0,0.0,0.0,0.0,0.0,0.0,0.0,0.0,0.0,0.0,0.0,0.0,0.0,0.0,0.0,0.0,0.0,0.0,0.0,0.0,0.0,0.0,0.0,0.0,0.0,0.0,0.0,0.0,0.0,0.0,0.0,0.0,0.0,0.0,0.0,0.0,0.0,0.0,0.0,0.0,0.0,0.0,0.0,0.0,0.0,0.0,0.0,0.0,0.0,0.0,0.0,0.0,0.0,0.0,0.0,0.0,0.0,0.0,0.0,0.0,0.0,0.0,0.0,0.0,0.0,0.0,0.0,0.0,0.0,0.0,0.0,0.0,0.0,0.0,0.0,0.0,0.0,0.0,0.0,0.0,0.0,0.0,0.0,0.0,0.0,0.0,0.0,0.0,0.0,0.0,0.0,0.0,0.0,0.0,0.0,0.0,0.0,0.0,0.0,0.0,0.0,0.0,0.0,0.0,0.0,0.0,0.0,0.0,0.0,0.0,0.0,0.0,0.0,0.0,0.0,0.0,0.0,0.0,0.0,0.0,0.0,0.0,0.0,0.0,0.0,0.0,0.0,0.0,0.0,0.0,0.0,0.0,0.0,0.0,0.0,0.0,0.0,0.0,0.0,0.0,0.0,0.0,0.0,0.0,0.0,0.0,0.0,0.0,0.0,0.0,0.0,0.0,0.0,0.0,0.0,0.0,0.0,0.0,0.8175,0.0,0.0,0.0,0.0,0.0,0.0,0.0,0.0,0.0,0.0,0.0,0.0,0.0,0.0,0.0,0.0,0.0,0.0,0.0,0.0,0.0,0.0,0.0,0.0,0.0,0.0,0.0,0.0,0.0,0.0,0.0,0.0,0.0,0.0,0.0,0.0,0.0,0.0,0.0,0.0,0.0,0.0,0.0,0.0,0.0,0.0,0.0,0.0,0.0,0.0,0.0,0.0,0.0,0.0,0.0,0.0,0.0,0.0,0.0,0.0,0.0,0.0,0.0,0.0,0.0,0.0,0.0,0.0,0.0,0.0,0.0,0.0,0.0,0.0,0.0,0.0,0.0,0.0,0.0,0.0,0.0,0.0,0.0,0.0,0.0,0.0,0.0,0.0,0.0,0.0,0.0,0.0,0.0,0.0,0.0,0.0,0.0,0.0,0.0,0.0,0.0,0.0,0.0,0.0,0.0,0.0,0.0,0.0,0.0,0.0,0.8389,0.8396,0.8077,0.8012,0.8295,0.0,0.0,0.0,0.0,0.0,0.0,0.0,0.0,0.0,0.0,0.0,0.0,0.0,0.0,0.0,0.0,0.0,0.0,0.0,0.0,0.0,0.0,0.0,0.0,0.0,0.0,0.0,0.0,0.0,0.0,0.0,0.0,0.0,0.0,0.0,0.0,0.0,0.0,0.0,0.0,0.0,0.0,0.0,0.0,0.0,0.0,0.0,0.0,0.0,0.0,0.0,0.0,0.0,0.0,0.0,0.0,0.0,0.0,0.0,0.0,0.0,0.0,0.0,0.0,0.0,0.0,0.0,0.0,0.0,0.0,0.0,0.0,0.0,0.0,0.0,0.0,0.0,0.0,0.0,0.0,0.0,0.0,0.0,0.0,0.0,0.0,0.0,0.0,0.0,0.0,0.0,0.0,0.0,0.0,0.0,0.0,0.0,0.0,0.0,0.0,0.0,0.0,0.0,0.0,0.0,0.0,0.0,0.0,0.0,0.0,0.0,0.0,0.8256,0.8293,0.8608,0.0,0.0,0.0,0.0,0.0,0.0,0.0,0.0,0.0,0.0,0.0,0.0,0.0,0.0,0.0,0.0,0.0,0.0,0.0,0.0,0.0,0.0,0.0,0.0,0.0,0.0,0.0,0.0,0.0,0.0,0.0,0.0,0.0,0.0,0.0,0.0,0.0,0.0,0.0,0.0,0.0,0.0,0.0,0.0,0.0,0.0,0.0,0.0,0.0,0.0,0.0,0.0,0.0,0.0,0.0,0.0,0.0,0.0,0.0,0.0,0.0,0.0,0.0,0.0,0.0,0.0,0.0,0.0,0.0,0.0,0.0,0.0,0.0,0.0,0.0,0.0,0.0,0.0,0.0,0.0,0.0,0.0,0.0,0.0,0.0,0.0,0.0,0.0,0.0,0.0,0.0,0.0,0.0,0.0,0.0,0.0,0.0,0.0,0.0,0.0,0.0,0.0,0.0,0.0,0.0,0.0,0.0,0.0,0.0,0.0,0.8758,0.8764,0.8849,0.0,0.9483,0.0,0.0,0.0,0.0,0.0,0.0,0.0,0.0,0.0,0.0,0.0,0.0,0.0,0.0,0.0,0.0,0.0,0.0,0.0,0.0,0.0,0.0,0.0,0.0,0.0,0.0,0.0,0.0,0.0,0.0,0.0,0.0,0.0,0.0,0.0,0.0,0.0,0.0,0.0,0.0,0.0,0.0,0.0,0.0,0.0,0.0,0.0,0.0,0.0,0.0,0.0,0.0,0.0,0.0,0.0,0.0,0.0,0.0,0.0,0.0,0.0,0.0,0.0,0.0,0.0,0.0,0.0,0.0,0.0,0.0,0.0,0.0,0.0,0.0,0.0,0.0,0.0,0.0,0.0,0.0,0.0,0.0,0.0,0.0,0.0,0.0,0.0,0.0,0.0,0.0,0.0,0.0,0.0,0.0,0.0,0.0,0.0,0.0,0.0,0.0,0.0,0.0,0.0,0.0,0.0,0.0,0.0,0.0,0.0,0.0,0.8785,0.8785,0.9087,0.9375,0.0,0.0,0.0,0.0,0.0,0.0,0.0,0.0,0.0,0.0,0.0,0.0,0.0,0.0,0.0,0.0,0.0,0.0,0.0,0.0,0.0,0.0,0.0,0.0,0.0,0.0,0.0,0.0,0.0,0.0,0.0,0.0,0.0,0.0,0.0,0.0,0.0,0.0,0.0,0.0,0.0,0.0,0.0,0.0,0.0,0.0,0.0,0.0,0.0,0.0,0.0,0.0,0.0,0.0,0.0,0.0,0.0,0.0,0.0,0.0,0.0,0.0,0.0,0.0,0.0,0.0,0.0,0.0,0.0,0.0,0.0,0.0,0.0,0.0,0.0,0.0,0.0,0.0,0.0,0.0,0.0,0.0,0.0,0.0,0.0,0.0,0.0,0.0,0.0,0.0,0.0,0.0,0.0,0.0,0.0,0.0,0.0,0.0,0.0,0.0,0.0,0.0,0.0,0.0,0.0,0.0,0.0,0.0,0.0,0.0,0.887,0.8844,0.893,0.9231,0.957,0.9916,0.0,0.0,0.0,0.0,0.0,0.0,0.0,0.0,0.0,0.0,0.0,0.0,0.0,0.0,0.0,0.0,0.0,0.0,0.0,0.0,0.0,0.0,0.0,0.0,0.0,0.0,0.0,0.0,0.0,0.0,0.0,0.0,0.0,0.0,0.0,0.0,0.0,0.0,0.0,0.0,0.0,0.0,0.0,0.0,0.0,0.0,0.0,0.0,0.0,0.0,0.0,0.0,0.0,0.0,0.0,0.0,0.0,0.0,0.0,0.0,0.0,0.0,0.0,0.0,0.0,0.0,0.0,0.0,0.0,0.0,0.0,0.0,0.0,0.0,0.0,0.0,0.0,0.0,0.0,0.0,0.0,0.0,0.0,0.0,0.0,0.0,0.0,0.0,0.0,0.0,0.0,0.0,0.0,0.0,0.0,0.0,0.0,0.0,0.0,0.0,0.0,0.0,0.0,0.0,0.0,0.0,0.0,0.0,0.8995,0.8864,0.8936,0.9185,0.9342,0.9668,0.0,0.0,0.0,0.0,0.0,0.0,0.0,0.0,0.0,0.0,0.0,0.0,0.0,0.0,0.0,0.0,0.0,0.0,0.0,0.0,0.0,0.0,0.0,0.0,0.0,0.0,0.0,0.0,0.0,0.0,0.0,0.0,0.0,0.0,0.0,0.0,0.0,0.0,0.0,0.0,0.0,0.0,0.0,0.0,0.0,0.0,0.0,0.0,0.0,0.0,0.0,0.0,0.0,0.0,0.0,0.0,0.0,0.0,0.0,0.0,0.0,0.0,0.0,0.0,0.0,0.0,0.0,0.0,0.0,0.0,0.0,0.0,0.0,0.0,0.0,0.0,0.0,0.0,0.0,0.0,0.0,0.0,0.0,0.0,0.0,0.0,0.0,0.0,0.0,0.0,0.0,0.0,0.0,0.0,0.0,0.0,0.0,0.0,0.0,0.0,0.0,0.0,0.0,0.0,0.0,0.0,0.0,0.0,0.0,0.887,0.8916,0.9087,0.9445,0.959,0.9909,0.0,0.0,0.0,0.0,0.0,0.0,0.0,0.0,0.0,0.0,0.0,0.0,0.0,0.0,0.0,0.0,0.0,0.0,0.0,0.0,0.0,0.0,0.0,0.0,0.0,0.0,0.0,0.0,0.0,0.0,0.0,0.0,0.0,0.0,0.0,0.0,0.0,0.0,0.0,0.0,0.0,0.0,0.0,0.0,0.0,0.0,0.0,0.0,0.0,0.0,0.0,0.0,0.0,0.0,0.0,0.0,0.0,0.0,0.0,0.0,0.0,0.0,0.0,0.0,0.0,0.0,0.0,0.0,0.0,0.0,0.0,0.0,0.0,0.0,0.0,0.0,0.0,0.0,0.0,0.0,0.0,0.0,0.0,0.0,0.0,0.0,0.0,0.0,0.0,0.0,0.0,0.0,0.0,0.0,0.0,0.0,0.0,0.0,0.0,0.0,0.0,0.0,0.0,0.0,0.0,0.0,0.0,0.0,0.0,0.8936,0.0,0.9388,0.9588,0.9941,1.0289,0.0,0.0,0.0,0.0,0.0,0.0,0.0,0.0,0.0,0.0,0.0,0.0,0.0,0.0,0.0,0.0,0.0,0.0,0.0,0.0,0.0,0.0,0.0,0.0,0.0,0.0,0.0,0.0,0.0,0.0,0.0,0.0,0.0,0.0,0.0,0.0,0.0,0.0,0.0,0.0,0.0,0.0,0.0,0.0,0.0,0.0,0.0,0.0,0.0,0.0,0.0,0.0,0.0,0.0,0.0,0.0,0.0,0.0,0.0,0.0,0.0,0.0,0.0,0.0,0.0,0.0,0.0,0.0,0.0,0.0,0.0,0.0,0.0,0.0,0.0,0.0,0.0,0.0,0.0,0.0,0.0,0.0,0.0,0.0,0.0,0.0,0.0,0.0,0.0,0.0,0.0,0.0,0.0,0.0,0.0,0.0,0.0,0.0,0.0,0.0,0.0,0.0,0.0,0.0,0.0,0.0,0.0,0.0,0.9037,0.9218,0.9668,0.9844,0.965,1.0417,1.083,0.0,0.0,0.0,0.0,0.0,0.0,0.0,0.0,0.0,0.0,0.0,0.0,0.0,0.0,0.0,0.0,0.0,0.0,0.0,0.0,0.0,0.0,0.0,0.0,0.0,0.0,0.0,0.0,0.0,0.0,0.0,0.0,0.0,0.0,0.0,0.0,0.0,0.0,0.0,0.0,0.0,0.0,0.0,0.0,0.0,0.0,0.0,0.0,0.0,0.0,0.0,0.0,0.0,0.0,0.0,0.0,0.0,0.0,0.0,0.0,0.0,0.0,0.0,0.0,0.0,0.0,0.0,0.0,0.0,0.0,0.0,0.0,0.0,0.0,0.0,0.0,0.0,0.0,0.0,0.0,0.0,0.0,0.0,0.0,0.0,0.0,0.0,0.0,0.0,0.0,0.0,0.0,0.0,0.0,0.0,0.0,0.0,0.0,0.0,0.0,0.0,0.0,0.0,0.0,0.0,0.0,0.0,0.0,0.0,1.0039,1.0487,1.0899,1.1231,1.1218,1.1424,0.0,0.0,0.0,0.0,0.0,0.0,0.0,0.0,0.0,0.0,0.0,0.0,0.0,0.0,0.0,0.0,0.0,0.0,0.0,0.0,0.0,0.0,0.0,0.0,0.0,0.0,0.0,0.0,0.0,0.0,0.0,0.0,0.0,0.0,0.0,0.0,0.0,0.0,0.0,0.0,0.0,0.0,0.0,0.0,0.0,0.0,0.0,0.0,0.0,0.0,0.0,0.0,0.0,0.0,0.0,0.0,0.0,0.0,0.0,0.0,0.0,0.0,0.0,0.0,0.0,0.0,0.0,0.0,0.0,0.0,0.0,0.0,0.0,0.0,0.0,0.0,0.0,0.0,0.0,0.0,0.0,0.0,0.0,0.0,0.0,0.0,0.0,0.0,0.0,0.0,0.0,0.0,0.0,0.0,0.0,0.0,0.0,0.0,0.0,0.0,0.0,0.0,0.0,0.0,0.0,0.0,0.0,0.0,0.0,1.2298,1.2219,1.2327,1.2661,1.2593,1.2618,1.274,0.0,0.0,0.0,0.0,0.0,0.0,0.0,0.0,0.0,0.0,0.0,0.0,0.0,0.0,0.0,0.0,0.0,0.0,0.0,0.0,0.0,0.0,0.0,0.0,0.0,0.0,0.0,0.0,0.0,0.0,0.0,0.0,0.0,0.0,0.0,0.0,0.0,0.0,0.0,0.0,0.0,0.0,0.0,0.0,0.0,0.0,0.0,0.0,0.0,0.0,0.0,0.0,0.0,0.0,0.0,0.0,0.0,0.0,0.0,0.0,0.0,0.0,0.0,0.0,0.0,0.0,0.0,0.0,0.0,0.0,0.0,0.0,0.0,0.0,0.0,0.0,0.0,0.0,0.0,0.0,0.0,0.0,0.0,0.0,0.0,0.0,0.0,0.0,0.0,0.0,0.0,0.0,0.0,0.0,0.0,0.0,0.0,0.0,0.0,0.0,0.0,0.0,0.0,0.0,0.0,0.0,0.0,0.0,1.5634,1.4812,1.4278,1.4033,1.4408,1.4324,0.0,0.0,0.0,0.0,0.0,0.0,0.0,0.0,0.0,0.0,0.0,0.0,0.0,0.0,0.0,0.0,0.0,0.0,0.0,0.0,0.0,0.0,0.0,0.0,0.0,0.0,0.0,0.0,0.0,0.0,0.0,0.0,0.0,0.0,0.0,0.0,0.0,0.0,0.0,0.0,0.0,0.0,0.0,0.0,0.0,0.0,0.0,0.0,0.0,0.0,0.0,0.0,0.0,0.0,0.0,0.0,0.0,0.0,0.0,0.0,0.0,0.0,0.0,0.0,0.0,0.0,0.0,0.0,0.0,0.0,0.0,0.0,0.0,0.0,0.0,0.0,0.0,0.0,0.0,0.0,0.0,0.0,0.0,0.0,0.0,0.0,0.0,0.0,0.0,0.0,0.0,0.0,0.0,0.0,0.0,0.0,0.0,0.0,0.0,0.0,0.0,0.0,0.0,0.0,0.0,0.0,0.0,0.0,0.0,1.7517,1.8464,1.818,1.6611,1.6367,1.604,0.0,0.0,0.0,0.0,0.0,0.0,0.0,0.0,0.0,0.0,0.0,0.0,0.0,0.0,0.0,0.0,0.0,0.0,0.0,0.0,0.0,0.0,0.0,0.0,0.0,0.0,0.0,0.0,0.0,0.0,0.0,0.0,0.0,0.0,0.0,0.0,0.0,0.0,0.0,0.0,0.0,0.0,0.0,0.0,0.0,0.0,0.0,0.0,0.0,0.0,0.0,0.0,0.0,0.0,0.0,0.0,0.0,0.0,0.0,0.0,0.0,0.0,0.0,0.0,0.0,0.0,0.0,0.0,0.0,0.0,0.0,0.0,0.0,0.0,0.0,0.0,0.0,0.0,0.0,0.0,0.0,0.0,0.0,0.0,0.0,0.0,0.0,0.0,0.0,0.0,0.0,0.0,0.0,0.0,0.0,0.0,0.0,0.0,0.0,0.0,0.0,0.0,0.0,0.0,0.0,0.0,0.0,0.0,1.7953,1.9787,2.1187,2.1432,2.0441,1.9169,1.8069,0.0,0.0,0.0,0.0,0.0,0.0,0.0,0.0,0.0,0.0,0.0,0.0,0.0,0.0,0.0,0.0,0.0,0.0,0.0,0.0,0.0,0.0,0.0,0.0,0.0,0.0,0.0,0.0,0.0,0.0,0.0,0.0,0.0,0.0,0.0,0.0,0.0,0.0,0.0,0.0,0.0,0.0,0.0,0.0,0.0,0.0,0.0,0.0,0.0,0.0,0.0,0.0,0.0,0.0,0.0,0.0,0.0,0.0,0.0,0.0,0.0,0.0,0.0,0.0,0.0,0.0,0.0,0.0,0.0,0.0,0.0,0.0,0.0,0.0,0.0,0.0,0.0,0.0,0.0,0.0,0.0,0.0,0.0,0.0,0.0,0.0,0.0,0.0,0.0,0.0,0.0,0.0,0.0,0.0,0.0,0.0,0.0,0.0,0.0,0.0,0.0,0.0,0.0,0.0,0.0,0.0,0.0,0.0,2.0206,2.2139,2.3349,2.4211,2.4622,2.2307,2.0273,0.0,0.0,0.0,0.0,0.0,0.0,0.0,0.0,0.0,0.0,0.0,0.0,0.0,0.0,0.0,0.0,0.0,0.0,0.0,0.0,0.0,0.0,0.0,0.0,0.0,0.0,0.0,0.0,0.0,0.0,0.0,0.0,0.0,0.0,0.0,0.0,0.0,0.0,0.0,0.0,0.0,0.0,0.0,0.0,0.0,0.0,0.0,0.0,0.0,0.0,0.0,0.0,0.0,0.0,0.0,0.0,0.0,0.0,0.0,0.0,0.0,0.0,0.0,0.0,0.0,0.0,0.0,0.0,0.0,0.0,0.0,0.0,0.0,0.0,0.0,0.0,0.0,0.0,0.0,0.0,0.0,0.0,0.0,0.0,0.0,0.0,0.0,0.0,0.0,0.0,0.0,0.0,0.0,0.0,0.0,0.0,0.0,0.0,0.0,0.0,0.0,0.0,0.0,0.0,0.0,0.0,0.0,0.0,2.1488,2.3964,2.5499,2.6484,2.6896,2.4141,2.199,0.0,0.0,0.0,0.0,0.0,0.0,0.0,0.0,0.0,0.0,0.0,0.0,0.0,0.0,0.0,0.0,0.0,0.0,0.0,0.0,0.0,0.0,0.0,0.0,0.0,0.0,0.0,0.0,0.0,0.0,0.0,0.0,0.0,0.0,0.0,0.0,0.0,0.0,0.0,0.0,0.0,0.0,0.0,0.0,0.0,0.0,0.0,0.0,0.9165,0.0,0.0,0.0,0.0,0.0,0.0,0.0,0.0,0.0,0.0,0.0,0.0,0.0,0.0,0.0,0.0,0.0,0.0,0.0,0.0,0.0,0.0,0.0,0.0,0.0,0.0,0.0,0.0,0.0,0.0,0.0,0.0,0.0,0.0,0.0,0.0,0.0,0.0,0.0,0.0,0.0,0.0,0.0,0.0,0.0,0.0,0.0,0.0,0.0,0.0,0.0,0.0,0.0,0.0,0.0,0.0,0.0,0.0,0.0,2.3457,2.5819,2.7461,2.8345,2.8316,2.6028,2.3857,0.0,0.0,0.0,0.0,0.0,0.0,0.0,0.0,0.0,0.0,0.0,0.0,0.0,0.0,0.0,0.0,0.0,0.0,0.0,0.0,0.0,0.0,0.0,0.0,0.0,0.0,0.0,0.0,0.0,0.0,0.0,0.0,0.0,0.0,0.0,0.0,0.0,0.0,0.0,0.0,0.0,0.0,0.0,0.0,0.0,0.0,0.0,0.0,0.0,0.0,0.0,0.0,0.0,0.0,0.0,0.0,0.0,0.0,0.0,0.0,0.0,0.0,0.0,0.0,0.0,0.0,0.0,0.0,0.0,0.0,0.0,0.0,0.0,0.0,0.0,0.0,0.0,0.0,0.0,0.0,0.0,0.0,0.0,0.0,0.0,0.0,0.0,0.0,0.0,0.0,0.0,0.0,0.0,0.0,0.0,0.0,0.0,0.0,0.0,0.0,0.0,0.0,0.0,0.0,0.0,0.0,0.0,2.3093,2.5471,2.7529,2.9195,2.9837,2.9439,2.7703,2.5606,2.3247,0.0,0.0,0.0,0.0,0.0,0.0,0.0,0.0,0.0,0.0,0.0,0.0,0.0,0.0,0.0,0.0,0.0,0.0,0.0,0.0,0.0,0.0,0.0,0.0,0.0,0.0,0.0,0.0,0.0,0.0,0.0,0.0,0.0,0.0,0.0,0.0,0.0,0.0,0.7775,0.8567,0.0,0.0,0.0,0.0,0.0,0.0,0.0,0.0,1.0701,0.0,0.0,0.0,0.0,0.0,0.0,0.0,0.0,0.0,0.0,0.0,0.0,0.0,0.0,0.0,0.0,0.0,0.0,0.0,0.0,0.0,0.0,0.0,0.0,0.0,0.0,0.0,0.0,0.0,0.0,0.0,0.0,0.0,0.0,0.0,0.0,0.0,0.0,0.0,0.0,0.0,0.0,0.0,0.0,0.0,0.0,0.0,0.0,0.0,0.0,0.0,0.0,0.0,0.0,0.0,0.0,2.1662,2.4282,2.6653,2.8753,3.0301,3.0792,3.0209,2.8665,2.6595,2.4009,0.0,0.0,0.0,0.0,0.0,0.0,0.0,0.0,0.0,0.0,0.0,0.0,0.0,0.0,0.0,0.0,0.0,0.0,0.0,0.0,0.0,0.0,0.0,0.0,0.0,0.0,0.0,0.0,0.0,0.0,0.0,0.0,0.0,0.0,0.0,0.0,0.0,0.0,0.0,0.9287,0.9669,0.0,0.0,0.0,0.0,0.0,0.0,0.0,0.0,1.1336,0.0,0.0,0.0,0.0,0.0,0.0,0.0,0.0,0.0,0.0,0.0,0.0,0.0,0.0,0.0,0.0,0.0,0.0,0.0,0.0,0.0,0.0,0.0,0.0,0.0,0.0,0.0,0.0,0.0,0.0,0.0,0.0,0.0,0.0,0.0,0.0,0.0,0.0,0.0,0.0,0.0,0.0,0.0,0.0,0.0,0.0,0.0,0.0,0.0,0.0,0.0,0.0,0.0,0.0,0.0,2.2547,2.5237,2.7666,2.9766,3.0989,3.116,3.0188,2.839,2.6153,0.0,0.0,0.0,0.0,0.0,0.0,0.0,0.0,0.0,0.0,0.0,0.0,0.0,0.0,0.0,0.0,0.0,0.0,0.0,0.0,0.0,0.0,0.0,0.0,0.0,0.0,0.0,0.0,0.0,0.0,0.0,0.0,0.0,0.0,0.0,0.0,0.0,0.0,0.0,0.0,1.031,1.0727,1.1127,0.0,0.0,0.0,0.0,0.0,0.0,1.263,1.2647,0.0,0.0,0.0,0.0,0.0,0.0,0.0,0.0,0.0,0.0,0.0,0.0,0.0,0.0,0.0,0.0,0.0,0.0,0.0,0.0,0.0,0.0,0.0,0.0,0.0,0.0,0.0,0.0,0.0,0.0,0.0,0.0,0.0,0.0,0.0,0.0,0.0,0.0,0.0,0.0,0.0,0.0,0.0,0.0,0.0,0.0,0.0,0.0,0.0,0.0,0.0,0.0,0.0,0.0,0.0,2.338,2.6198,2.8575,3.0497,3.1504,3.1315,3.0022,2.7912,2.5498,0.0,0.0,0.0,0.0,0.0,0.0,0.0,0.0,0.0,0.0,0.0,0.0,0.0,0.0,0.0,0.0,0.0,0.0,0.0,0.0,0.0,0.0,0.0,0.0,0.0,0.0,0.0,0.0,0.0,0.0,0.0,0.0,0.0,0.0,0.0,0.0,0.0,0.0,0.0,0.0,0.0,1.1971,1.26,1.298,0.0,0.0,0.0,0.0,1.4097,1.418,0.0,0.0,0.0,0.0,0.0,0.0,0.0,0.0,0.0,0.0,0.0,0.0,0.0,0.0,0.0,0.0,0.0,0.0,0.0,0.0,0.0,0.0,0.0,0.0,0.0,0.0,0.0,0.0,0.0,0.0,0.0,0.0,0.0,0.0,0.0,0.0,0.0,0.0,0.0,0.0,0.0,0.0,0.0,0.0,0.0,0.0,0.0,0.0,0.0,0.0,0.0,0.0,0.0,0.0,0.0,0.0,2.4419,2.7263,2.9383,3.071,3.1689,3.1471,3.0022,2.7912,2.5439,0.0,0.0,0.0,0.0,0.0,0.0,0.0,0.0,0.0,0.0,0.0,0.0,0.0,0.0,0.0,0.0,0.0,0.0,0.0,0.0,0.0,0.0,0.0,0.0,0.0,0.0,0.0,0.0,0.0,0.0,0.0,0.0,0.0,0.0,0.0,0.0,0.0,0.0,0.0,0.0,0.0,1.3167,1.3883,1.4168,1.4459,0.0,0.0,1.5227,1.4933,1.518,0.0,0.0,0.0,0.0,0.0,0.0,0.0,0.0,0.0,0.0,0.0,0.0,0.0,0.0,0.0,0.0,0.0,0.0,0.0,0.0,0.0,0.0,0.0,0.0,0.0,0.0,0.0,0.0,0.0,0.0,0.0,0.0,0.0,0.0,0.0,0.0,0.0,0.0,0.0,0.0,0.0,0.0,0.0,0.0,0.0,0.0,0.0,0.0,0.0,0.0,0.0,0.0,0.0,0.0,0.0,2.2107,2.4749,2.7497,2.9562,3.0921,3.1483,3.1038,2.9579,2.7453,2.5043,0.0,0.0,0.0,0.0,0.0,0.0,0.0,0.0,0.0,0.0,0.0,0.0,0.0,0.0,0.0,0.0,0.0,0.0,0.0,0.0,0.0,0.0,0.0,0.0,0.0,0.0,0.0,0.0,0.0,0.0,0.0,0.0,0.0,0.0,0.0,0.0,0.0,0.0,0.0,0.0,0.0,0.0,1.5089,1.5588,0.0,0.0,0.0,1.6544,1.6488,0.0,0.0,0.0,0.0,0.0,0.0,0.0,0.0,0.0,0.0,0.0,0.0,0.0,0.0,0.0,0.0,0.0,0.0,0.0,0.0,0.0,0.0,0.0,0.0,0.0,0.0,0.0,0.0,0.0,0.0,0.0,0.0,0.0,0.0,0.0,0.0,0.0,0.0,0.0,0.0,0.0,0.0,0.0,0.0,0.0,0.0,0.0,0.0,0.0,0.0,0.0,0.0,0.0,0.0,0.0,0.0,0.0,2.4998,2.763,2.9593,3.0845,3.1224,3.0648,2.9031,2.7042,0.0,0.0,0.0,0.0,0.0,0.0,0.0,0.0,0.0,0.0,0.0,0.0,0.0,0.0,0.0,0.0,0.0,0.0,0.0,0.0,0.0,0.0,0.0,0.0,0.0,0.0,0.0,0.8469,0.0,0.0,0.0,0.0,0.0,0.0,0.0,0.0,0.0,0.0,0.0,0.0,0.0,0.0,1.5821,1.6511,1.7069,1.7532,0.0,0.0,1.7997,1.7954,1.7994,1.7688,0.0,0.0,0.0,0.0,0.0,0.0,0.0,0.0,0.0,0.0,0.0,0.0,0.0,0.0,0.0,0.0,0.0,0.0,0.0,0.0,0.0,0.0,0.0,0.0,0.0,0.0,0.0,0.0,0.0,0.0,0.0,0.0,0.0,0.0,0.0,0.0,0.0,0.0,0.0,0.0,0.0,0.0,0.0,0.0,0.0,0.0,0.0,0.0,0.0,0.0,0.0,0.0,0.0,0.0,0.0,2.5333,2.7873,2.9559,3.0343,3.1044,3.0473,2.8523,2.687,2.4954,0.0,0.0,0.0,0.0,0.0,0.0,0.0,0.0,0.0,0.0,0.0,0.0,0.0,0.0,0.0,0.0,0.0,0.0,0.0,0.0,0.0,0.0,0.0,0.0,0.0,0.0,0.0,0.0,0.0,0.0,0.0,0.0,0.0,0.0,0.0,0.0,0.0,0.0,0.0,0.0,0.0,1.6873,1.8306,1.856,1.8844,0.0,0.0,1.9745,1.9019,1.9059,1.8847,1.7839,0.0,0.0,0.0,0.0,0.0,0.0,0.0,0.0,0.0,0.0,0.0,0.0,0.0,0.0,0.0,0.0,0.0,0.0,0.0,0.0,0.0,0.0,0.0,0.0,0.0,0.0,0.0,0.0,0.0,0.0,0.0,0.0,0.0,0.0,0.0,0.0,0.0,0.0,0.0,0.0,0.0,0.0,0.0,0.0,0.0,0.0,0.0,0.0,0.0,0.0,0.0,0.0,0.0,2.2841,2.5538,2.7658,2.9281,3.0453,3.0768,3.0153,2.8635,2.7211,2.539,0.0,0.0,0.0,0.0,0.0,0.0,0.0,0.0,0.0,0.0,0.0,0.0,0.0,0.0,0.0,0.0,0.0,0.0,0.0,0.0,0.0,0.0,0.0,0.0,0.0,0.0,0.0,0.0,1.0157,1.0593,1.1294,0.0,0.0,0.0,0.0,0.0,0.0,0.0,0.0,0.0,0.0,1.8315,1.9188,1.9743,0.0,0.0,2.0773,2.0714,2.0408,2.0115,1.9664,1.8895,1.8149,0.0,0.0,0.0,0.0,0.0,0.0,0.0,0.0,0.0,0.0,0.0,0.0,0.0,0.0,0.0,0.0,0.0,0.0,0.0,0.0,0.0,0.0,0.0,0.0,0.0,0.0,0.0,0.0,0.0,0.0,0.0,0.0,0.0,0.0,0.0,0.0,0.0,0.0,0.0,0.0,0.0,0.0,0.0,0.0,0.0,0.0,0.0,0.0,0.0,0.0,0.0,0.0,2.3098,2.579,2.7502,2.9047,3.0347,3.0512,2.9917,2.8472,2.7408,2.5815,0.0,0.0,0.0,0.0,0.0,0.0,0.0,0.0,0.0,0.0,0.0,0.0,0.0,0.0,0.0,0.0,0.0,0.0,0.0,0.0,0.0,0.0,0.0,0.0,0.0,0.0,0.0,0.0,1.131,1.1659,1.2268,0.0,0.0,0.0,0.0,0.0,0.0,0.0,0.0,0.0,0.0,1.9509,2.0332,2.093,2.1387,2.1647,2.1668,2.163,2.1507,2.1072,2.0597,2.0135,0.0,0.0,0.0,0.0,0.0,0.0,0.0,0.0,0.0,0.0,0.0,0.0,0.0,0.0,0.0,0.0,0.0,0.0,0.0,0.0,0.0,0.0,0.0,0.0,0.0,0.0,0.0,0.0,0.0,0.0,1.561,0.0,0.0,0.0,0.0,0.0,0.0,0.0,0.0,0.0,0.0,0.0,0.0,0.0,0.0,0.0,0.0,0.0,0.0,0.0,0.0,0.0,0.0,2.363,2.5964,2.7567,2.8859,2.9794,3.0322,2.9707,2.7931,2.73,2.6144,2.4321,0.0,0.0,0.0,0.0,0.0,0.0,0.0,0.0,0.0,0.0,0.0,0.0,0.0,0.0,0.0,0.0,0.0,0.0,0.0,0.0,0.0,0.0,0.0,0.0,0.0,0.0,1.3194,1.3141,1.2989,0.0,0.0,0.0,0.0,0.0,0.0,0.0,0.0,0.0,0.0,1.9308,2.0277,2.1898,2.2174,2.2328,2.2719,2.2766,2.2642,2.2281,2.1969,2.1739,0.0,0.0,0.0,0.0,0.0,0.0,0.0,0.0,0.0,0.0,0.0,0.0,0.0,0.0,0.0,0.0,0.0,0.0,0.0,0.0,0.0,0.0,0.0,0.0,0.0,0.0,0.0,1.7656,1.7518,0.0,0.0,0.0,0.0,0.0,0.0,0.0,0.0,0.0,0.0,0.0,2.2096,2.2573,0.0,0.0,0.0,0.0,0.0,0.0,0.0,0.0,0.0,0.0,0.0,0.0,2.3913,2.6439,2.7351,2.8433,2.9744,2.999,2.9574,2.8562,2.7877,2.6342,2.3861,0.0,0.0,0.0,0.0,0.0,0.0,0.0,0.0,0.0,0.0,0.0,0.0,0.0,0.0,0.0,0.0,0.0,0.0,0.0,0.0,0.0,0.0,0.0,0.0,0.0,1.3395,0.0,0.0,0.0,0.0,0.0,0.0,0.0,0.0,0.0,0.0,0.0,1.8178,1.9486,2.053,2.1587,2.272,2.3098,2.3499,0.0,0.0,0.0,0.0,0.0,0.0,0.0,0.0,0.0,0.0,0.0,0.0,0.0,0.0,2.0555,1.8574,1.8602,1.8817,1.8508,0.0,0.0,0.0,0.0,0.0,0.0,0.0,0.0,0.0,0.0,0.0,0.0,0.0,0.0,0.0,0.0,1.9013,0.0,0.0,0.0,0.0,0.0,0.0,0.0,0.0,2.3353,2.4132,2.4369,2.4855,2.5128,0.0,2.4829,2.3808,0.0,0.0,0.0,0.0,0.0,0.0,0.0,0.0,2.4598,2.6766,2.7359,2.8325,2.9719,2.9779,2.9528,2.8913,2.7903,2.6348,2.4245,2.3266,2.2274,0.0,0.0,0.0,0.0,0.0,0.0,0.0,0.0,0.0,0.0,0.0,0.0,0.0,0.0,0.0,0.0,0.0,0.0,0.0,0.0,0.0,0.0,0.0,1.479,0.0,0.0,0.0,0.0,0.0,0.0,0.0,0.0,0.0,1.7168,1.8387,1.964,2.0605,2.1807,2.2977,2.4018,0.0,0.0,0.0,0.0,0.0,0.0,0.0,2.4849,2.4784,2.4365,2.4032,2.4021,2.4259,2.4487,2.4487,0.0,0.0,2.1074,2.0819,2.0987,2.086,2.1065,2.134,2.1487,2.1597,2.1796,0.0,0.0,0.0,0.0,0.0,0.0,0.0,0.0,2.2479,2.2363,0.0,2.161,0.0,0.0,0.0,0.0,0.0,2.328,0.0,0.0,2.5835,2.6653,2.702,2.708,2.7173,2.7333,2.7307,2.6889,2.6017,2.3198,0.0,0.0,0.0,0.0,0.0,0.0,2.5638,2.7019,2.7591,2.8481,2.9764,2.9824,2.9528,2.8872,2.7412,2.6221,2.5444,2.4414,2.3365,2.2338,2.1729,0.0,0.0,0.0,0.0,0.0,0.0,0.0,0.0,0.0,0.0,0.0,0.0,0.0,0.0,0.0,0.0,0.0,0.0,0.0,0.0,1.6238,0.0,0.0,0.0,0.0,0.0,0.0,0.0,0.0,0.0,0.0,1.8147,1.9945,2.1502,2.1938,0.0,0.0,0.0,0.0,2.6269,2.6962,2.7071,2.706,2.7083,2.6894,2.6838,2.7006,0.0,0.0,2.674,2.6772,2.6794,2.6805,2.7139,2.665,2.4042,2.3216,2.2991,2.3348,2.3482,2.3612,2.4052,2.4402,2.4739,3.0853,0.0,0.0,0.0,0.0,2.5979,2.6195,2.6562,2.6111,2.5902,2.5793,2.4888,0.0,0.0,0.0,0.0,0.0,0.0,2.6776,2.7441,2.8555,2.9348,2.9918,3.0181,3.036,3.0405,2.998,2.9662,2.9345,2.7602,2.5707,2.375,0.0,0.0,0.0,0.0,2.6697,2.7931,2.8564,2.9239,3.002,3.002,2.9646,2.8922,2.8079,2.7184,2.6196,2.5403,2.464,2.3934,2.2765,0.0,0.0,0.0,0.0,0.0,0.0,0.0,0.0,0.0,0.0,0.0,0.0,0.0,0.0,0.0,0.0,0.0,0.0,0.0,1.666,1.6975,1.7112,0.0,0.0,0.0,0.0,0.0,0.0,0.0,0.0,0.0,2.1376,2.1809,2.2567,0.0,0.0,2.5358,2.6729,2.6926,2.729,2.8343,0.0,0.0,0.0,2.8444,2.8388,2.8292,2.8236,2.8193,2.8203,2.8606,2.892,2.892,2.9162,2.9111,2.8396,2.7287,2.6526,2.6297,2.6494,2.6889,2.7382,2.7569,2.7789,3.608,3.2782,3.069,2.9766,2.9691,2.9818,2.9919,3.0004,2.9532,2.9157,2.8791,2.7891,2.7062,2.6367,2.6177,0.0,0.0,0.0,2.9838,3.0332,3.1354,3.2057,3.2481,3.2825,3.3009,3.3083,3.2709,3.2372,3.2055,3.1267,2.9698,2.7455,0.0,0.0,2.6638,2.7276,2.8079,2.904,2.9362,2.9767,3.0311,3.0193,2.9761,2.9019,2.8435,2.7695,2.6842,2.6118,2.5435,2.4822,2.3879,2.3005,0.0,0.0,0.0,0.0,0.0,0.0,0.0,0.0,0.0,0.0,0.0,1.4378,0.0,0.0,0.0,0.0,1.6804,1.7317,1.7948,1.8345,0.0,0.0,0.0,0.0,0.0,0.0,0.0,2.1349,2.2355,2.3313,2.4139,2.4225,2.4432,2.5034,2.5613,2.6492,2.7818,0.0,2.8447,2.9663,2.9913,2.9968,2.9968,3.0068,3.0097,2.9969,2.9944,2.9944,2.9955,3.0288,3.0553,3.0586,3.0751,3.0965,3.119,3.059,2.9831,2.9028,2.9045,2.947,3.0215,3.0353,3.0479,4.0719,3.9613,3.6353,3.4259,3.3187,3.3734,3.3671,3.313,3.2802,3.2228,3.1455,3.0719,2.9978,2.9296,2.9583,0.0,3.0121,3.2197,3.3157,3.3276,3.4189,3.4767,3.5001,3.5199,3.5405,3.561,3.5497,3.5057,3.4358,3.42,3.3459,3.2031,3.0036,2.8923,2.8697,2.918,2.9705,3.0194,3.0046,3.0219,3.0717,3.0318,2.9818,2.9301,2.8497,2.7844,2.7351,2.659,2.5862,2.5197,2.4946,2.4072,2.251,0.0,0.0,0.0,0.0,0.0,0.0,0.0,0.0,0.0,0.0,0.0,0.0,0.0,0.0,0.0,1.8688,0.0,1.9314,2.0064,0.0,0.0,0.0,2.0997,2.1009,2.1409,2.2191,2.3492,0.0,0.0,2.6378,0.0,2.6764,2.6197,2.6808,2.7728,2.8935,2.9138,2.9645,3.0802,3.1215,3.1372,3.1313,3.1514,3.1623,3.1621,3.1761,3.1667,3.1678,3.1724,3.1759,3.1735,3.1946,3.2246,3.2783,3.2941,3.285,3.1598,3.1289,3.1539,3.2474,3.2676,3.2758,4.3429,4.2463,4.2049,3.9817,3.6589,3.6982,3.7094,3.6823,3.618,3.5504,3.4873,3.4072,3.3215,3.2336,3.24,3.2627,3.3052,3.451,3.5502,3.6092,3.7107,3.7839,3.8342,3.8734,3.8957,3.8938,3.8033,3.7475,3.7236,3.6168,3.5411,3.5016,3.4249,3.2555,3.0066,3.0544,3.0894,3.102,3.1252,3.1242,3.0917,3.0378,3.0031,2.9878,2.8562,2.7811,2.7678,2.6562,2.5905,2.5705,2.5141,2.4608,2.4177,2.311,0.0,0.0,0.0,0.0,0.0,0.0,0.0,0.0,0.0,1.7002,1.7562,0.0,1.8382,0.0,2.0496,2.1021,2.1021,2.1198,0.0,0.0,2.2015,2.2622,2.2959,2.3676,2.4539,2.5564,2.603,2.6581,2.7313,2.7953,2.8262,2.8124,2.8024,2.8295,2.9121,2.9738,3.0387,3.1221,3.178,3.2124,3.2148,3.2179,3.2223,3.2223,3.2223,3.2223,3.2247,3.2365,3.2474,3.2484,3.268,3.302,3.3507,3.3698,3.3964,3.4249,3.3841,3.3492,3.4139,3.4273,3.4383,4.5785,4.5009,4.5234,4.3587,4.0808,4.0811,4.0664,4.0321,3.9385,3.8623,3.7997,3.6823,3.6036,3.5599,3.5675,3.5911,3.6306,3.731,3.8042,3.8454,3.913,3.9623,3.9951,4.0285,4.0471,4.0442,3.9758,3.9417,3.9358,3.8591,3.7838,3.7212,3.689,3.5468,3.3054,3.3012,3.2906,3.2584,3.2282,3.1845,3.1272,3.0672,3.0311,3.019,2.8656,2.7797,2.7779,2.6469,2.5755,2.5737,2.5288,2.49,2.4658,2.386,2.3096,0.0,0.0,0.0,0.0,0.0,0.0,0.0,0.0,0.0,0.0,0.0,2.0052,2.1126,2.2164,2.2759,2.275,2.3181,2.3459,2.3468,2.4022,2.4517,2.4862,2.5424,2.6104,2.7048,2.7402,2.7752,2.8261,2.868,2.8934,2.8944,2.8821,2.8926,2.947,2.9947,3.0475,3.1343,3.1899,3.2324,3.263,3.2691,3.2726,3.2726,3.2716,3.2691,3.2726,3.2788,3.2874,3.2896,3.2993,3.3266,3.3771,3.4112,3.4527,3.5184,3.5296,3.5195,3.5433,3.5507,3.5631,4.77,4.7153,4.6915,4.6107,4.5014,4.4581,4.399,4.3227,4.2205,4.1363,4.0597,3.8976,3.8368,3.8605,3.8762,3.8967,3.9267,4.0051,4.0382,4.0431,4.0676,4.0813,4.0822,4.1027,4.1115,4.1115,4.1035,4.1016,4.1006,4.0917,4.023,3.898,3.8686,3.7888,3.6597,3.5961,3.5185,3.4224,3.3153,3.23,3.1698,3.1086,3.0653,3.0409,2.8806,2.7853,2.7726,2.6417,2.5635,2.5553,2.5394,2.5099,2.4633,2.4513,2.4179,0.0,2.2774,0.0,0.0,0.0,0.0,0.0,0.0,0.0,0.0,2.1233,2.1906,2.2694,2.3851,2.4548,2.4566,2.54,2.5943,2.5952,2.6195,2.6433,2.66,2.6838,2.7334,2.8173,2.827,2.8499,2.9071,2.918,2.9189,2.9219,2.9326,2.9494,2.9821,2.9953,3.0407,3.1361,3.1833,3.2393,3.2904,3.3068,3.3068,3.3104,3.3058,3.3126,3.3093,3.3079,3.3115,3.309,3.309,3.3291,3.3807,3.4338,3.4853,3.5382,3.5907,3.6257,3.6307,3.6296,3.6405,4.8652,4.8051,4.8018,4.7507,4.6821,4.6705,4.5785,4.4351,4.3951,4.301,4.1701,4.0385,3.9885,4.0091,4.014,4.0256,4.0489,4.1116,4.141,4.144,4.2189,4.2535,4.2535,4.2743,4.2832,4.2812,4.2334,4.2125,4.2085,4.1538,4.1151,4.0854,4.0121,3.9531,3.909,0.0,0.0,0.0,3.3905,3.3165,3.2109,3.1495,3.1001,3.0625,2.9224,0.0,2.7567,2.6569,2.5811,2.5383,2.5309,0.0,0.0,0.0,0.0,0.0,0.0,0.0,0.0,0.0,0.0,0.0,2.4068,2.3796,2.2599,2.3852,2.4981,2.5555,2.6135,2.6483,2.6474,2.665,2.677,2.6803,2.7324,2.7748,2.7805,2.8285,2.8817,2.9114,2.9153,2.928,2.958,2.9663,2.9653,2.9643,2.9692,2.9752,2.9803,3.0173,3.0693,3.1328,3.2195,3.2886,3.309,3.3126,3.3126,3.3126,3.3126,3.3126,3.3126,3.3126,3.3126,3.3126,3.3126,3.3266,3.3771,3.4338,3.4842,3.5394,3.5956,3.6405,3.6405,3.6405,3.6405,4.9553,0.0,4.8566,4.8098,0.0,4.7448,4.6802,4.594,4.5392,4.449,4.3322,4.2355,4.2037,4.2227,4.1863,4.2041,4.2545,4.2852,4.3149,4.3496,4.3935,4.3985,4.3657,4.3728,4.3638,4.33,4.299,4.2821,4.2821,4.2521,4.2202,4.1882,4.1362,4.0873,4.0433,3.9678,3.8124,3.5803,3.4878,3.394,3.2955,3.1961,3.1207,3.0672,0.0,0.0,0.0,0.0,0.0,0.0,0.0,0.0,0.0,0.0,0.0,2.5751,2.5637,2.5445,2.5168,2.5278,2.5439,2.5599,2.6109,2.601,2.499,2.5865,2.6557,2.6821,2.7322,2.7652,2.7652,2.7862,2.8042,2.8051,2.8372,2.8631,2.8747,2.9056,2.9356,2.955,2.9599,2.9663,2.9769,2.9779,2.9779,2.9779,2.9779,2.9779,2.9814,3.004,3.0467,3.1286,3.2361,3.3101,3.3126,3.3126,3.3126,3.3126,3.3126,3.3126,3.3126,3.3126,3.3126,3.3126,3.3126,3.3215,3.3492,3.4148,3.4767,3.5104,3.5817,3.6368,3.6405,3.6405,3.6405,5.0315,5.0117,4.9063,4.8506,4.8248,4.7709,4.7399,4.7228,0.0,0.0,0.0,4.4279,4.4076,4.419,4.3636,4.3806,4.4456,4.4486,4.4796,4.5274,4.5274,4.5005,4.4486,4.4486,4.4117,4.3509,4.3479,4.3419,4.33,4.329,4.304,4.2591,4.2286,4.1811,4.1157,4.0285,3.9166,3.774,3.6047,3.4719,3.3762,3.2525,3.1518,3.0764,2.952,2.8713,2.8367,2.7581,2.7116,2.702,2.6996,2.701,2.6996,2.702,2.707,2.7248,2.7093,2.7108,2.7328,2.727,2.7292,2.7403,2.7578,2.7544,2.7268,2.7428,2.7574,2.7662,2.8221,2.8563,2.8578,2.8948,2.9243,2.9219,2.9219,2.9297,2.9428,2.9457,2.955,2.975,2.9769,2.9779,2.9779,2.9779,2.9779,2.9779,2.9779,2.9779,2.9839,3.004,3.0492,3.1296,3.2351,3.3126,3.3126,3.3126,3.3126,3.3126,3.3126,3.3126,3.3126,3.3126,3.3126,3.3126,3.3126,3.3126,3.3154,3.3861,3.4552,3.4689,3.5515,3.6269,3.6368,3.6405,3.6405,5.0727,5.0207,4.9998,4.9303,4.8278,4.8188,4.7829,4.7249,4.6548,4.6166,4.6036,4.536,4.5082,4.5113,4.5034,4.5044,4.5155,4.5155,4.5214,0.0,4.5274,4.5255,4.5155,4.5155,4.4815,4.4187,4.4147,4.3848,4.3359,4.3329,4.324,4.312,4.2622,4.2033,4.1346,4.0501,3.985,3.9429,3.7622,3.5818,3.399,3.3257,3.2253,3.0999,3.0253,2.9494,2.8658,2.8308,2.7881,2.7443,2.7419,2.7428,2.7419,2.7434,2.7437,2.744,2.7437,2.7446,2.7499,2.786,2.8374,2.9,2.9098,2.8823,2.8179,2.8354,2.8675,2.9068,2.9357,2.9601,2.9592,2.9622,2.9663,2.9672,2.9682,2.9711,2.9721,2.9731,2.974,2.9779,2.9779,2.9779,2.9779,2.9779,2.9779,2.9779,2.9779,2.9779,2.9914,3.0592,3.118,3.1497,3.2351,3.3025,3.3126,3.3126,3.3126,3.3126,3.3126,3.3126,3.3126,3.3126,3.3126,3.3126,3.3126,3.3126,3.3115,3.3581,3.4137,3.4577,3.5241,3.5794,3.623,3.6368,3.6393,5.1337,5.0727,5.0357,4.9662,4.8798,4.8079,4.7578,4.7279,4.6969,4.6839,4.679,4.6132,4.5832,4.5802,4.5484,4.5503,4.5832,4.5832,4.6052,4.6381,4.6371,4.6191,4.5862,4.5832,4.5503,4.4885,4.4845,4.4666,4.4366,4.4027,4.3848,4.3788,4.32,4.2561,4.1952,4.1566,4.0898,3.9968,3.8116,3.6488,3.5171,3.3788,3.2579,3.1527,3.0605,2.9779,2.9109,2.8868,2.862,2.8393,2.8369,2.8369,2.8369,2.8369,2.8407,2.8515,2.8531,2.8597,2.8745,2.8985,2.9253,2.9584,2.9609,2.9495,2.9149,2.923,2.9397,2.9584,2.974,2.9779,2.9779,2.9779,2.9779,2.9779,2.9779,2.9779,2.9779,2.9779,2.9779,2.9779,2.9779,2.9779,2.9779,2.9779,2.9779,2.9779,2.9779,2.9779,2.9804,3.0447,3.1085,3.1386,3.21,3.2702,3.304,3.3126,3.3126,3.3126,3.3126,3.3126,3.3126,3.3126,3.3126,3.3126,3.3126,3.3126,3.3126,3.3531,3.3947,3.4212,3.4968,3.557,3.5869,3.6143,3.6393,5.1905,5.1367,5.0686,4.9991,4.9228,4.8038,4.7459,4.7298,4.7298,4.7298,4.7238,4.676,4.651,4.648,4.5982,4.6052,4.6491,4.654,4.679,4.7279,4.7298,4.7029,4.657,4.651,4.6191,4.5574,4.5544,4.5454,4.5244,4.4755,4.4456,4.4247,4.3628,4.304,4.2601,4.2461,4.1805,4.0525,3.8731,3.7275,3.6231,3.4527,3.3124,3.205,3.1064,3.0228,2.9677,2.9457,2.9404,2.9404,2.9385,2.9385,2.9326,2.9317,2.9385,2.9492,2.9477,2.957,2.976,2.9779,2.9779,2.9779,2.9779,2.9779,2.9779,2.9779,2.9779,2.9779,2.9779,2.9779,2.9779,2.9779,2.9779,2.9779,2.9779,2.9779,2.9779,2.9779,2.9779,2.9779,2.9779,2.9779,2.9779,2.9779,2.9779,2.9779,2.9779,2.9779,2.9864,3.0181,3.0608,3.116,3.1788,3.2441,3.2989,3.3126,3.3126,3.3126,3.3126,3.3126,3.3126,3.3126,3.3126,3.3126,3.3126,3.3126,3.314,3.3406,3.3732,3.3947,3.4678,3.5357,3.5757,3.6093,3.6393,5.2157,5.1995,5.1367,5.0391,4.9247,4.8498,4.7848,4.7339,4.7298,4.7298,4.7268,4.7219,4.7189,4.7219,4.71,4.7089,4.7189,4.7209,4.7238,4.7279,4.7298,4.7238,4.7179,4.7179,4.6839,4.6271,4.6211,4.5922,4.5434,4.5285,4.4915,4.4307,4.3628,4.3309,4.316,4.269,4.2254,4.1881,4.0185,3.8424,3.671,3.5749,3.4376,3.2496,3.1995,3.1286,3.0372,3.0311,3.0282,3.0282,3.0273,3.0187,3.0024,3.0011,2.9934,2.9769,2.976,2.976,2.9789,2.9779,2.9798,2.9779,2.9808,2.9798,2.9798,2.9789,2.9779,2.9779,2.9779,2.9779,2.9779,2.9779,2.9779,2.9779,2.9779,2.9779,2.9779,2.9779,2.9779,2.9779,2.9779,2.9779,2.9779,2.9779,2.9779,2.9779,2.9779,2.9779,2.9804,2.9889,3.0146,3.0723,3.1501,3.233,3.2878,3.309,3.3065,3.3075,3.3126,3.3126,3.3126,3.3126,3.3126,3.3126,3.3126,3.3126,3.3126,3.319,3.3355,3.3782,3.4388,3.5079,3.5979,3.6343,3.6393,5.2558,5.2127,5.1487,5.0451,4.9288,4.8588,4.7919,4.7339,4.7298,4.7298,4.7298,4.7298,4.7298,4.7298,4.7298,4.7298,4.7298,4.7298,4.7298,4.7298,4.7298,4.7298,4.7298,4.7298,4.716,4.6909,4.692,4.6749,4.6471,4.6072,4.5563,4.4875,4.4207,4.3888,4.3858,4.3269,4.2731,4.2284,4.1457,4.0166,3.8388,3.6589,3.5121,3.401,3.3197,3.2313,3.1414,3.1279,3.1104,3.0809,3.0748,3.0663,3.047,3.0461,3.0365,3.0193,3.0174,3.0149,3.0155,3.0139,3.0164,3.0139,3.0164,3.0116,2.9991,2.9982,2.9934,2.9808,2.9779,2.9779,2.9779,2.9779,2.9779,2.9779,2.9779,2.9779,2.9779,2.9779,2.9779,2.9779,2.9779,2.9779,2.9779,2.9779,2.9779,2.9779,2.9779,2.9779,2.9779,2.9779,3.003,3.0497,3.0999,3.1591,3.2365,3.2566,3.2727,3.2989,3.3126,3.3126,3.3126,3.3126,3.3126,3.3126,3.3126,3.3126,3.3126,3.3126,3.3215,3.3607,3.4198,3.4954,3.5718,3.6143,3.6343,5.3097,5.2396,5.1576,5.0559,4.9505,4.8858,4.8188,4.7578,4.7399,4.7298,4.7298,4.7298,4.7298,4.7298,4.7298,4.7298,4.7298,4.7298,4.7298,4.7298,4.7298,4.7298,4.7298,4.7298,4.7298,4.7298,4.7309,4.7298,4.7209,4.664,4.6031,4.5544,4.4915,4.4476,4.4267,4.3788,4.326,4.2661,4.2306,4.1458,4.0099,3.8112,3.6421,3.5213,3.4378,3.3514,3.2523,3.2477,3.2203,3.1593,3.1566,3.1392,3.0971,3.0953,3.0823,3.0596,3.0558,3.0558,3.0558,3.0568,3.0577,3.0568,3.0511,3.0416,3.0289,3.0184,3.0049,2.9914,2.9833,2.9779,2.9779,2.9779,2.9779,2.9779,2.9779,2.9779,2.9779,2.9779,2.9779,2.9779,2.9779,2.9779,2.9779,2.9779,2.9779,2.9779,2.9779,2.9779,2.9779,2.9804,2.9955,3.0312,3.0372,3.0899,3.1903,3.2254,3.2466,3.2878,3.3126,3.3126,3.3126,3.3126,3.3126,3.3126,3.3126,3.3126,3.3126,3.3126,3.319,3.3431,3.3947,3.4653,3.518,3.5755,3.6068,5.3773,5.2977,5.1738,5.0799,5.0088,4.9505,4.8887,4.8218,4.7649,4.7339,4.7369,4.7328,4.7309,4.7298,4.7298,4.7298,4.7298,4.7298,4.7298,4.7298,4.7298,4.7298,4.7298,4.7298,4.7298,4.7298,4.7298,4.7298,4.7268,4.6659,4.63,4.6211,4.5603,4.4945,4.4486,4.4337,4.3938,4.329,4.2604,4.205,4.1813,4.0627,3.858,3.6244,3.5582,3.495,3.404,3.3892,3.362,3.3041,3.2987,3.2576,3.1704,3.1569,3.1375,3.1039,3.0973,3.0983,3.0992,3.1001,3.1001,3.0964,3.0877,3.0707,3.066,3.0384,3.0155,3.0062,2.9905,2.9808,2.9779,2.9779,2.9779,2.9779,2.9779,2.9779,2.9779,2.9779,2.9779,2.9779,2.9779,2.9779,2.9779,2.9779,2.9779,2.9779,2.9779,2.9779,2.9804,2.9804,2.9905,2.9955,3.008,3.0397,3.1803,3.2079,3.2365,3.2889,3.3126,3.3126,3.3126,3.3126,3.3126,3.3126,3.3126,3.3126,3.3126,3.319,3.333,3.352,3.3721,3.4262,3.4653,3.5182,3.557,5.3551,5.2498,5.1576,5.0817,5.0207,4.9949,4.9523,4.8929,4.8708,4.8338,4.7967,4.7948,4.7698,4.7298,4.7298,4.7298,4.7298,4.7298,4.7298,4.7298,4.7298,4.7298,4.7298,4.7298,4.7298,4.7298,4.7298,4.7298,4.7279,4.707,4.6939,4.685,4.6281,4.5802,4.5523,4.5144,4.4606,4.3997,4.3628,4.3071,4.2188,4.1637,4.052,3.8909,3.78,3.6675,3.5382,3.5363,3.5076,3.4465,3.4038,3.3551,3.2973,3.229,3.1845,3.1717,3.1699,3.169,3.169,3.169,3.169,3.1707,3.1577,3.1355,3.1112,3.0814,3.0501,3.0177,3.0059,2.9953,2.9818,2.9779,2.9779,2.9779,2.9779,2.9779,2.9779,2.9779,2.9779,2.9779,2.9779,2.9779,2.9779,2.9779,2.9779,2.9779,2.9779,2.9804,2.9854,3.0055,3.0306,3.0382,3.0618,3.1135,3.1978,3.1853,3.1938,3.2713,3.3126,3.3126,3.3126,3.3126,3.3126,3.3126,3.3126,3.3126,3.3126,3.3126,3.328,3.333,3.3581,3.3847,3.4162,3.4792,3.5232,5.3366,5.2468,5.1565,5.0948,5.0536,5.0297,4.9949,4.9595,4.9396,4.9048,4.8678,4.8607,4.8379,4.7948,4.7728,4.7608,4.7578,4.7429,4.7298,4.7298,4.7298,4.7298,4.7298,4.7298,4.7298,4.7298,4.7298,4.7298,4.7298,4.7298,4.7298,4.7238,4.682,4.6499,4.6271,4.5832,4.5304,4.4736,4.4426,4.3758,4.2872,4.2525,4.1962,4.1028,3.9962,3.8665,3.7168,3.6902,3.6495,3.5926,3.5433,3.4957,3.4387,3.3578,3.3111,3.3083,3.2882,3.2781,3.2745,3.2599,3.2489,3.2489,3.2282,3.2009,3.1698,3.131,3.0842,3.0442,3.0155,3.0011,2.9847,2.9779,2.9779,2.9779,2.9779,2.9779,2.9779,2.9779,2.9779,2.9779,2.9779,2.9779,2.9779,2.9779,2.988,3.002,3.0055,3.0105,3.0331,3.0583,3.0859,3.0884,3.11,3.1512,3.2054,3.2003,3.2114,3.2813,3.3101,3.3126,3.3126,3.3126,3.3126,3.3126,3.3126,3.3126,3.3126,3.3126,3.3126,3.3126,3.3266,3.3531,3.3972,3.4502,3.4942,5.3198,5.2947,5.1756,5.1176,5.1026,5.0536,5.0237,5.0129,4.9655,4.9426,4.9307,4.9307,4.9217,4.9078,4.8528,4.8308,4.8218,4.7758,4.7418,4.7309,4.7298,4.7298,4.7298,4.7298,4.7298,4.7298,4.7298,4.7298,4.7298,4.7298,4.7298,4.7298,4.7268,4.6909,4.635,4.63,4.5971,4.5354,4.4796,4.4346,4.4197,4.3438,4.2743,4.2129,4.1676,4.0774,3.9276,3.8551,3.7913,3.7399,3.7204,3.6789,3.5812,3.5259,3.5114,3.4954,3.4542,3.4252,3.4167,3.3746,3.3501,3.3338,3.2981,3.2679,3.2273,3.1716,3.1132,3.0679,3.0327,3.004,2.9847,2.9779,2.9779,2.9779,2.9779,2.9779,2.9779,2.9779,2.9779,2.9779,2.9779,2.9779,2.9814,2.9889,3.0055,3.0387,3.0573,3.0733,3.106,3.1296,3.1396,3.1421,3.1622,3.2024,3.2139,3.2254,3.2591,3.2928,3.304,3.3126,3.3126,3.3126,3.3126,3.3126,3.3126,3.3126,3.3126,3.3126,3.3126,3.3126,3.3215,3.333,3.3796,3.4288,3.4703,5.3198,5.3049,5.1768,5.1217,5.1187,5.0966,5.0877,5.0877,5.0679,5.035,4.9991,4.992,4.9673,4.9337,4.9067,4.8989,4.8936,4.8727,4.8207,4.7459,4.7328,4.7328,4.7339,4.7328,4.7298,4.7298,4.7298,4.7298,4.7298,4.7298,4.7298,4.7298,4.7298,4.7189,4.6969,4.6969,4.664,4.6042,4.5792,4.5284,4.4416,4.4037,4.3588,4.2971,4.2465,4.191,4.1377,4.0055,3.9238,3.8992,3.817,3.7308,3.6512,3.6134,3.6029,3.6,3.5856,3.5712,3.5721,3.551,3.5085,3.4623,3.4174,3.3485,3.2696,3.2091,3.1438,3.0821,3.0444,3.0168,2.9876,2.9779,2.9824,2.9779,2.9779,2.9779,2.9789,2.9789,2.9779,2.9779,2.9779,2.9779,2.9889,3.0065,3.0471,3.0703,3.0964,3.1301,3.1442,3.1829,3.1938,3.1964,3.225,3.2462,3.2577,3.2652,3.2828,3.2989,3.3065,3.3126,3.3126,3.3126,3.3126,3.3126,3.3126,3.3126,3.3126,3.3126,3.3126,3.3151,3.3215,3.3406,3.3671,3.4137,3.4728,5.3067,5.2707,5.1666,5.1217,5.1217,5.1217,5.1217,5.1217,5.1217,5.0936,5.0626,5.0566,5.038,5.0014,4.9744,4.9643,4.9625,4.9438,4.8858,4.8158,4.8038,4.8038,4.8038,4.8027,4.7889,4.7698,4.7668,4.7549,4.7298,4.7298,4.7298,4.7298,4.7298,4.7309,4.7298,4.7309,4.707,4.67,4.6409,4.5882,4.5104,4.4576,4.4097,4.3628,4.305,4.2741,4.2622,4.1444,4.0657,4.0252,3.9326,3.8368,3.7602,3.7391,3.7292,3.7234,3.7088,3.6933,3.695,3.6652,3.6347,3.5693,3.53,3.4522,3.3471,3.2755,3.2066,3.1101,3.0663,3.0394,3.0107,3.0161,3.0237,3.0305,3.0002,2.9824,2.9824,2.9866,2.9905,2.9974,3.0149,3.0254,3.0416,3.078,3.1235,3.1438,3.1742,3.2096,3.2202,3.2493,3.2588,3.2636,3.2759,3.2935,3.305,3.3075,3.3075,3.3101,3.3101,3.3126,3.3126,3.3126,3.3126,3.3126,3.3126,3.3126,3.3126,3.3126,3.3126,3.3176,3.3416,3.3732,3.4123,3.4639,3.518,5.2839,5.2157,5.1487,5.1217,5.1217,5.1217,5.1217,5.1217,5.1217,5.1187,5.1146,5.1128,5.1116,5.0996,5.0458,5.0267,5.0177,4.9804,4.9576,4.9426,4.9378,4.9318,4.9097,4.9037,4.8768,4.8438,4.8278,4.7948,4.7489,4.7358,4.7298,4.7298,4.7298,4.7298,4.7298,4.7298,4.7279,4.7149,4.6659,4.636,4.614,4.5144,4.4356,4.4237,4.3698,4.3329,4.309,4.2602,4.2003,4.1365,4.042,3.9643,3.9211,3.8964,3.8695,3.8645,3.8261,3.8034,3.7857,3.7571,3.704,3.6722,3.6318,3.5563,3.4465,3.3744,3.2951,3.1766,3.1242,3.0867,3.0762,3.0851,3.1102,3.1139,3.0548,3.0081,2.9932,3.0116,3.0292,3.0406,3.0794,3.1279,3.133,3.1796,3.231,3.2695,3.289,3.3152,3.3314,3.3362,3.3399,3.3332,3.3179,3.3118,3.3133,3.3126,3.3126,3.3126,3.3126,3.3126,3.3126,3.3126,3.3126,3.3126,3.3201,3.3176,3.3226,3.3291,3.3517,3.3807,3.4048,3.4262,3.4614,3.5104,3.5467,5.2996,5.2157,5.1487,5.1217,5.1217,5.1217,5.1217,5.1217,5.1217,5.1217,5.1217,5.1217,5.1217,5.1187,5.1038,5.0936,5.0847,5.0739,5.072,5.069,5.0679,5.0103,4.9456,4.9318,4.9228,4.9007,4.8607,4.8218,4.8008,4.7568,4.7358,4.7298,4.7298,4.7298,4.7298,4.7298,4.7298,4.7298,4.7149,4.676,4.633,4.6001,4.5264,4.4337,4.4147,4.3788,4.3389,4.316,4.2521,4.1454,4.0728,4.0263,4.0035,3.9563,3.927,3.9219,3.9088,3.8969,3.894,3.88,3.8421,3.7816,3.7355,3.6631,3.543,3.4687,3.3942,3.3133,3.2556,3.2143,3.2085,3.2057,3.2141,3.2142,3.1545,3.0947,3.0867,3.1058,3.1203,3.1274,3.1863,3.2251,3.2463,3.2854,3.3271,3.3485,3.3762,3.3986,3.4084,3.401,3.3952,3.3539,3.3322,3.3215,3.3165,3.3122,3.3126,3.3126,3.3126,3.3165,3.314,3.314,3.3115,3.3126,3.3391,3.3442,3.3607,3.3757,3.4073,3.4388,3.4539,3.4689,3.5054,3.5469,3.5743,5.2884,5.1933,5.1543,5.1323,5.1217,5.1217,5.1217,5.1217,5.1217,5.1217,5.1217,5.1217,5.1217,5.1217,5.1217,5.1217,5.1217,5.1217,5.1187,5.1187,5.1158,5.078,5.0253,5.0115,4.9954,4.9643,4.9284,4.8985,4.8637,4.8057,4.7758,4.7668,4.7429,4.7298,4.7298,4.7298,4.7298,4.7298,4.7298,4.7089,4.6749,4.642,4.5961,4.5164,4.4905,4.4416,4.3808,4.3449,4.2811,4.1962,4.1463,4.1134,4.0795,4.0187,3.9849,3.9819,3.9571,3.9382,3.9412,3.9382,3.9161,3.8644,3.8221,3.7432,3.641,3.562,3.4952,3.4137,3.3502,3.3213,3.3276,3.334,3.3605,3.3851,3.3238,3.2532,3.1928,3.2173,3.2328,3.2547,3.305,3.3617,3.3644,3.412,3.4402,3.4545,3.4768,3.4794,3.4729,3.46,3.4371,3.3968,3.3603,3.3464,3.3344,3.3283,3.3452,3.3427,3.3607,3.3556,3.3355,3.333,3.3431,3.3517,3.3657,3.3833,3.4073,3.4313,3.4552,3.4803,3.4929,3.5216,3.5581,3.5757,3.6043,5.2733,5.1665,5.1665,5.1503,5.1334,5.1288,5.1323,5.1264,5.1276,5.1253,5.1217,5.1217,5.1217,5.1217,5.1217,5.1217,5.1217,5.1217,5.1217,5.1217,5.1217,5.1068,5.1038,5.0948,5.0727,5.0327,5.0267,4.983,4.9325,4.8727,4.8427,4.8289,4.7758,4.7459,4.7459,4.7399,4.7298,4.7298,4.7298,4.7279,4.7119,4.676,4.636,4.6031,4.5454,4.4875,4.4277,4.3768,4.314,4.2521,4.2431,4.2021,4.1463,4.0855,4.0546,4.0427,4.0088,3.978,3.9631,3.969,3.9477,3.9236,3.8808,3.8176,3.7273,3.658,3.591,3.5111,3.4309,3.4223,3.4355,3.4769,3.5199,3.5469,3.5261,3.4455,3.361,3.3434,3.3629,3.3675,3.4511,3.4998,3.5246,3.5479,3.5803,3.5625,3.5739,3.5635,3.5477,3.5263,3.4936,3.4501,3.4131,3.3756,3.3594,3.3445,3.3705,3.3894,3.4198,3.4223,3.3822,3.3796,3.3922,3.4022,3.4123,3.4363,3.4703,3.4929,3.5068,3.533,3.5568,3.5881,3.618,3.6143,3.6318,5.3385,5.2158,5.217,5.201,5.1845,5.1852,5.1707,5.1521,5.1491,5.1363,5.1253,5.1217,5.1217,5.1217,5.1217,5.1217,5.1217,5.1217,5.1217,5.1217,5.1217,5.1217,5.1217,5.1217,5.1116,5.0847,5.0416,5.0147,4.9871,4.9445,4.9108,4.8977,4.8438,4.8109,4.8038,4.7608,4.7298,4.7298,4.7298,4.7298,4.7298,4.7149,4.682,4.6371,4.5693,4.5025,4.4446,4.4177,4.3798,4.321,4.2711,4.2461,4.2092,4.1553,4.1214,4.1124,4.1044,4.0915,4.0855,4.0447,4.0169,4.0056,3.9376,3.8581,3.8234,3.769,3.71,3.6508,3.6071,3.5837,3.5914,3.6271,3.6593,3.6734,3.6623,3.6378,3.6017,3.5434,3.507,3.5257,3.5868,3.6549,3.653,3.6539,3.6715,3.6715,3.6646,3.651,3.628,3.6001,3.5639,3.5254,3.4737,3.4437,3.4338,3.4194,3.4248,3.4486,3.4801,3.5015,3.4625,3.4413,3.4614,3.4639,3.4552,3.4867,3.5317,3.5369,3.5494,3.5869,3.6132,3.623,3.6343,3.6393,3.6405,5.3876,5.2835,5.2824,5.2544,5.2189,5.2143,5.1949,5.166,5.1614,5.1433,5.1253,5.1217,5.1217,5.1217,5.1217,5.1217,5.1217,5.1217,5.1217,5.1217,5.1217,5.1217,5.1217,5.1217,5.1217,5.1146,5.0877,5.0686,5.0518,5.0081,4.9744,4.9673,4.9086,4.8798,4.8678,4.8109,4.7818,4.7698,4.7418,4.7298,4.7298,4.7309,4.7209,4.673,4.6132,4.5563,4.5313,4.4935,4.4426,4.3888,4.3449,4.313,4.2771,4.2251,4.1882,4.1832,4.1532,4.1443,4.1254,4.1094,4.0876,4.0855,4.0217,3.995,3.9655,3.9256,3.888,3.8491,3.8119,3.7813,3.7795,3.7857,3.8033,3.7958,3.7748,3.7586,3.7434,3.6824,3.6395,3.6529,3.7004,3.7357,3.7491,3.751,3.7539,3.7491,3.7519,3.7376,3.7066,3.6772,3.6506,3.6073,3.5496,3.5157,3.5119,3.5038,3.4916,3.5164,3.5442,3.5655,3.5591,3.5454,3.5417,3.5317,3.518,3.5554,3.5906,3.5919,3.5907,3.6143,3.6306,3.6368,3.6405,3.6405,3.6405,5.437,5.3607,5.3607,5.319,5.2589,5.2532,5.2272,5.1815,5.1723,5.1584,5.1288,5.1241,5.1217,5.1217,5.1217,5.1217,5.1217,5.1217,5.1217,5.1217,5.1217,5.1217,5.1217,5.1217,5.1217,5.1217,5.1158,5.1116,5.0966,5.0656,5.0368,5.0249,4.9744,4.9445,4.9295,4.8798,4.8368,4.8158,4.7788,4.7429,4.7339,4.7298,4.7268,4.7119,4.676,4.633,4.6051,4.5672,4.5144,4.4506,4.4456,4.4097,4.3489,4.291,4.2551,4.2521,4.2092,4.1932,4.1903,4.1663,4.1553,4.1513,4.1174,4.106,4.0885,4.0537,4.0217,4.0012,3.9659,3.9432,3.9607,3.9449,3.9392,3.9295,3.8849,3.849,3.8309,3.7901,3.7634,3.7634,3.7834,3.8051,3.8174,3.8193,3.8258,3.8296,3.8316,3.8252,3.7959,3.7631,3.7392,3.7023,3.6468,3.583,3.572,3.5791,3.57,3.571,3.6039,3.6162,3.6323,3.6278,3.6113,3.5915,3.5906,3.6167,3.6267,3.623,3.6256,3.6393,3.6405,3.6405,3.6405,3.6405,3.6418,5.5131,5.4507,5.4496,5.4093,5.3531,5.3465,5.3069,5.2541,5.2227,5.193,5.1514,5.1281,5.1217,5.1217,5.1217,5.1217,5.1217,5.1217,5.1217,5.1217,5.1217,5.1217,5.1217,5.1217,5.1217,5.1217,5.1217,5.1217,5.1217,5.1098,5.0907,5.0858,5.038,5.0069,4.9901,4.9434,4.8876,4.8547,4.8188,4.7818,4.7489,4.7339,4.7298,4.7298,4.7089,4.6809,4.645,4.6211,4.5832,4.5214,4.5155,4.4766,4.4187,4.3519,4.319,4.304,4.293,4.2741,4.2741,4.2471,4.2271,4.2063,4.168,4.1257,4.113,4.0986,4.0959,4.0695,4.0549,4.0383,4.0354,4.049,4.0538,4.038,3.9988,3.9557,3.9402,3.9073,3.8631,3.8672,3.8714,3.8649,3.8706,3.8822,3.894,3.9037,3.9126,3.9172,3.9063,3.8715,3.8384,3.7949,3.7485,3.6808,3.628,3.6413,3.6434,3.629,3.6442,3.6559,3.6719,3.6884,3.6798,3.6545,3.6333,3.6375,3.6439,3.644,3.6405,3.6417,3.6405,3.6405,3.6443,3.6468,3.6544,5.5881,5.5355,5.5275,5.4842,5.4264,5.4114,5.3596,5.2858,5.2453,5.2033,5.1618,5.1346,5.1217,5.1217,5.1217,5.1217,5.1217,5.1217,5.1217,5.1217,5.1217,5.1217,5.1217,5.1217,5.1217,5.1217,5.1217,5.1217,5.1217,5.1187,5.1217,5.1116,5.0847,5.0727,5.0566,5.0069,4.9643,4.9183,4.8656,4.8188,4.7799,4.7549,4.7309,4.7298,4.7298,4.7119,4.6939,4.682,4.648,4.5982,4.5802,4.5443,4.4845,4.4247,4.3668,4.3419,4.3319,4.329,4.33,4.299,4.288,4.2841,4.2414,4.2276,4.2227,4.2208,4.1922,4.1824,4.1794,4.1794,4.1824,4.1675,4.1614,4.1514,4.1039,4.0664,4.0534,4.0276,4.0034,3.9705,3.935,3.9199,3.9179,3.9345,3.9583,3.9771,3.9919,4.003,4.0069,3.977,3.9363,3.8965,3.8492,3.7759,3.7141,3.7028,3.7027,3.6887,3.6898,3.7015,3.7132,3.7317,3.7259,3.7094,3.6933,3.6887,3.6605,3.658,3.6523,3.644,3.6417,3.6418,3.6494,3.6544,3.6669,5.6593,5.6188,5.6011,5.558,5.5008,5.4748,5.4147,5.3291,5.2748,5.2272,5.1723,5.1433,5.1276,5.1217,5.1217,5.1217,5.1217,5.1217,5.1217,5.1217,5.1217,5.1217,5.1217,5.1217,5.1217,5.1217,5.1217,5.1217,5.1217,5.1217,5.1217,5.1187,5.1217,5.1217,5.1026,5.0637,5.0428,4.989,4.9303,4.8645,4.8218,4.7668,4.7298,4.7298,4.7298,4.7279,4.7209,4.7209,4.6999,4.6629,4.645,4.6191,4.5574,4.5005,4.4326,4.3668,4.3379,4.3319,4.33,4.33,4.321,4.318,4.327,4.326,4.323,4.3031,4.3091,4.311,4.2981,4.2902,4.2793,4.2713,4.2592,4.2422,4.1993,4.1573,4.1475,4.1307,4.1088,4.0655,4.0051,3.9932,4.0077,4.0134,4.0426,4.0485,4.0655,4.0909,4.0918,4.0705,4.0364,3.9969,3.9443,3.8712,3.8123,3.7665,3.7537,3.7303,3.7422,3.756,3.7652,3.7793,3.7747,3.7805,3.7767,3.7649,3.7222,3.6793,3.6711,3.6617,3.6476,3.6519,3.6708,3.6909,3.706,5.7101,5.6882,5.6853,5.6453,5.5861,5.559,5.5028,5.4157,5.3498,5.2869,5.2136,5.1734,5.1386,5.1253,5.1217,5.1217,5.1217,5.1217,5.1217,5.1217,5.1217,5.1217,5.1217,5.1217,5.1217,5.1217,5.1217,5.1217,5.1217,5.1217,5.1217,5.1217,5.1217,5.1217,5.1187,5.1026,5.0787,5.0267,5.0028,4.9392,4.8397,4.7679,4.7429,4.7298,4.7298,4.7298,4.7298,4.7298,4.7179,4.7179,4.7149,4.685,4.6311,4.6151,4.5343,4.4416,4.3728,4.329,4.3329,4.3389,4.3419,4.3449,4.3449,4.3359,4.3419,4.3419,4.3369,4.328,4.325,4.324,4.322,4.319,4.319,4.299,4.2621,4.2331,4.2251,4.2073,4.1903,4.1783,4.12,4.1159,4.1236,4.1225,4.1274,4.1304,4.1375,4.1649,4.1723,4.1509,4.1067,4.0631,4.015,3.9442,3.8957,3.8508,3.8213,3.789,3.797,3.8179,3.8383,3.8557,3.864,3.8674,3.8674,3.8546,3.8153,3.7683,3.7152,3.6881,3.6878,3.694,3.7073,3.7274,3.7575,5.7523,5.7327,5.7224,5.6882,5.6365,5.602,5.5377,5.4528,5.3717,5.2991,5.2318,5.1803,5.1444,5.1253,5.1217,5.1217,5.1217,5.1217,5.1217,5.1217,5.1217,5.1217,5.1217,5.1217,5.1217,5.1217,5.1217,5.1217,5.1217,5.1217,5.1217,5.1217,5.1217,5.1217,5.1217,5.1217,5.1056,5.0715,5.0327,4.9542,4.8577,4.8008,4.7698,4.7328,4.7328,4.7298,4.7298,4.7298,4.7298,4.7298,4.7298,4.7209,4.682,4.652,4.5952,4.5553,4.4805,4.4117,4.3509,4.3698,4.3818,4.3997,4.4117,4.4337,4.4027,4.3838,4.3658,4.3319,4.329,4.3319,4.3319,4.329,4.329,4.318,4.302,4.296,4.2821,4.2751,4.2592,4.2512,4.2422,4.2272,4.2132,4.2022,4.1972,4.2002,4.2162,4.2483,4.2456,4.2236,4.1715,4.1098,4.0621,4.0066,3.9667,3.9269,3.9047,3.8796,3.8729,3.8957,3.9247,3.9418,3.9554,3.9895,4.017,3.983,3.9244,3.8559,3.7996,3.7655,3.7347,3.7547,3.7733,3.8115,3.8441,5.7808,5.7662,5.7514,5.7224,5.6815,5.6355,5.5691,5.4821,5.3975,5.3135,5.2386,5.178,5.1381,5.1253,5.1217,5.1217,5.1217,5.1217,5.1217,5.1217,5.1217,5.1217,5.1217,5.1217,5.1217,5.1217,5.1217,5.1217,5.1217,5.1217,5.1217,5.1217,5.1217,5.1217,5.1217,5.1217,5.1146,5.1098,5.0518,4.974,4.8985,4.8468,4.8038,4.7668,4.7429,4.7298,4.7298,4.7298,4.7298,4.7298,4.7298,4.7268,4.7149,4.685,4.648,4.6121,4.5613,4.5025,4.4426,4.4307,4.4516,4.4696,4.4875,4.4935,4.4666,4.4546,4.4426,4.3967,4.3658,4.3628,4.3509,4.3449,4.329,4.329,4.327,4.33,4.33,4.321,4.309,4.2941,4.2921,4.303,4.2891,4.2771,4.269,4.2681,4.293,4.323,4.305,4.2719,4.2271,4.1587,4.1209,4.0752,4.0348,4.0022,3.9815,3.9788,3.9749,3.9942,4.0398,4.0542,4.0625,4.1024,4.1552,4.1363,4.0914,3.983,3.8856,3.8658,3.8485,3.8359,3.8522,3.8868,3.9107,5.7891,5.7872,5.7811,5.7606,5.7214,5.6824,5.6142,5.5236,5.4391,5.3454,5.2499,5.1711,5.1253,5.1217,5.1217,5.1217,5.1217,5.1217,5.1217,5.1217,5.1217,5.1217,5.1217,5.1217,5.1217,5.1217,5.1217,5.1217,5.1217,5.1217,5.1217,5.1217,5.1217,5.1217,5.1217,5.1217,5.1217,5.1098,5.0637,5.0267,4.965,4.9075,4.8368,4.8098,4.7638,4.7298,4.7298,4.7298,4.7298,4.7298,4.7298,4.7298,4.7249,4.716,4.6839,4.651,4.636,4.5832,4.5424,4.5185,4.5225,4.5274,4.5354,4.5473,4.5274,4.5255,4.5155,4.4935,4.4456,4.4267,4.4057,4.3788,4.3698,4.3718,4.3848,4.3808,4.3778,4.3698,4.3539,4.3389,4.3389,4.3509,4.3389,4.317,4.303,4.299,4.3,4.327,4.314,4.286,4.2566,4.2127,4.1817,4.1451,4.1054,4.0865,4.0912,4.102,4.1055,4.1371,4.1775,4.1833,4.1859,4.2392,4.288,4.2726,4.2565,4.1866,4.1074,4.0118,3.9623,3.9434,3.9266,3.9399,3.9498,5.679,5.7205,5.7239,5.7257,5.7271,5.6872,5.6211,5.5338,5.4497,5.3409,5.2257,5.1556,5.1217,5.1217,5.1217,5.1217,5.1217,5.1217,5.1217,5.1217,5.1217,5.1217,5.1217,5.1217,5.1217,5.1217,5.1217,5.1217,5.1217,5.1217,5.1217,5.1217,5.1217,5.1217,5.1217,5.1217,5.1217,5.1158,5.0936,5.0656,5.0129,4.983,4.9093,4.8267,4.8147,4.7668,4.7399,4.7298,4.7298,4.7298,4.7298,4.7298,4.7298,4.7298,4.7149,4.6909,4.685,4.67,4.6441,4.6161,4.6102,4.6471,4.6491,4.6341,4.5992,4.5922,4.5633,4.5354,4.5125,4.4935,4.4855,4.4706,4.4646,4.4546,4.4456,4.4386,4.4326,4.4247,4.4247,4.4177,4.4027,4.3967,4.3788,4.3549,4.3389,4.327,4.328,4.331,4.3309,4.3238,4.3064,4.2909,4.2621,4.2397,4.2064,4.2032,4.2087,4.2191,4.2335,4.2718,4.3092,4.32,4.3329,4.3844,4.4203,4.4145,4.4065,4.3959,4.3152,4.1765,4.0911,4.0418,4.0253,3.9995,3.9853,5.6003,5.6452,5.6486,5.6846,5.7288,5.6958,5.6339,5.5489,5.4665,5.3443,5.2075,5.1567,5.1276,5.1241,5.1217,5.1217,5.1217,5.1217,5.1217,5.1217,5.1217,5.1217,5.1217,5.1217,5.1217,5.1217,5.1217,5.1217,5.1217,5.1217,5.1217,5.1217,5.1217,5.1217,5.1217,5.1217,5.1217,5.1217,5.1146,5.1026,5.0548,5.0207,4.9722,4.8697,4.8397,4.7908,4.7489,4.7298,4.7298,4.7298,4.7298,4.7298,4.7298,4.7298,4.7298,4.7298,4.7298,4.7298,4.7149,4.6999,4.682,4.707,4.716,4.6939,4.676,4.66,4.6401,4.6082,4.5813,4.5603,4.5574,4.5334,4.5125,4.4945,4.4975,4.4945,4.4975,4.4915,4.5005,4.5035,4.4825,4.4576,4.4486,4.4307,4.4057,4.3908,4.3778,4.3937,4.4185,4.4094,4.3932,4.3737,4.3552,4.332,4.3129,4.3253,4.3357,4.3407,4.3603,4.4009,4.4336,4.4445,4.4704,4.5175,4.5441,4.5531,4.5354,4.5016,4.415,4.3093,4.2148,4.1097,4.0696,4.0414,4.0058,5.5665,5.5699,5.5733,5.6403,5.7349,5.7124,5.6536,5.5799,5.4914,5.3684,5.2306,5.1757,5.1428,5.1264,5.1217,5.1217,5.1217,5.1217,5.1217,5.1217,5.1217,5.1217,5.1217,5.1217,5.1217,5.1217,5.1217,5.1217,5.1217,5.1217,5.1217,5.1217,5.1217,5.1217,5.1217,5.1217,5.1217,5.1217,5.1217,5.1128,5.0966,5.0566,4.9961,4.9355,4.8738,4.8188,4.7668,4.7328,4.7298,4.7298,4.7298,4.7298,4.7298,4.7298,4.7298,4.7298,4.7298,4.7298,4.7268,4.7249,4.7249,4.7279,4.7298,4.7209,4.7238,4.7209,4.7119,4.6741,4.655,4.633,4.6091,4.5792,4.5633,4.5603,4.5663,4.5693,4.5753,4.5753,4.5843,4.5843,4.5514,4.5274,4.5244,4.5125,4.4815,4.4606,4.4366,4.4506,4.4834,4.4803,4.4571,4.447,4.4295,4.4273,4.418,4.4491,4.4653,4.4674,4.4902,4.5317,4.5494,4.558,4.5942,4.6381,4.6407,4.627,4.6096,4.5927,4.4812,4.3679,4.2526,4.1603,4.1184,4.0732,4.0326,5.4532,5.4972,5.4972,5.5504,5.6282,5.6293,5.6126,5.5756,5.4486,5.3269,5.2374,5.1792,5.1474,5.1288,5.1217,5.1217,5.1217,5.1217,5.1217,5.1217,5.1217,5.1217,5.1217,5.1217,5.1217,5.1217,5.1217,5.1217,5.1217,5.1217,5.1217,5.1217,5.1217,5.1217,5.1217,5.1217,5.1217,5.1217,5.1217,5.1187,5.1187,5.0936,5.0506,4.9901,4.9265,4.8607,4.7948,4.7608,4.7399,4.7339,4.7298,4.7298,4.7298,4.7298,4.7298,4.7298,4.7298,4.7298,4.7298,4.7309,4.7309,4.7298,4.7298,4.7298,4.7298,4.7298,4.7298,4.7298,4.7059,4.6879,4.6879,4.679,4.6711,4.6741,4.677,4.673,4.676,4.6741,4.677,4.661,4.6401,4.5802,4.5574,4.5753,4.5574,4.5503,4.5324,4.5125,4.5313,4.5234,4.5073,4.5063,4.5001,4.5059,4.5156,4.5437,4.5654,4.5654,4.6075,4.6596,4.6734,4.6529,4.6583,4.6762,4.6836,4.6887,4.6414,4.59,4.5173,4.4146,4.2955,4.2043,4.156,4.0997,4.0402,5.3788,5.4203,5.4228,5.4625,5.5291,5.5533,5.5601,5.537,5.4327,5.3401,5.2701,5.2113,5.1653,5.1398,5.1253,5.1217,5.1217,5.1217,5.1217,5.1217,5.1217,5.1217,5.1217,5.1217,5.1217,5.1217,5.1217,5.1217,5.1217,5.1217,5.1217,5.1217,5.1217,5.1217,5.1217,5.1217,5.1217,5.1217,5.1217,5.1217,5.1217,5.1086,5.0835,5.0278,4.9722,4.9194,4.8446,4.7908,4.7529,4.7399,4.7298,4.7298,4.7298,4.7298,4.7298,4.7298,4.7298,4.7298,4.7298,4.7298,4.7298,4.7298,4.7298,4.7298,4.7298,4.7298,4.7298,4.7298,4.7298,4.7309,4.7279,4.7298,4.7298,4.7279,4.7268,4.7238,4.7209,4.716,4.713,4.7059,4.6939,4.6371,4.6022,4.6172,4.6292,4.6292,4.6281,4.6082,4.5873,4.5853,4.5823,4.5843,4.5892,4.6029,4.6168,4.6397,4.6535,4.6659,4.6939,4.7268,4.7258,4.6959,4.7046,4.7084,4.7073,4.6909,4.638,4.5776,4.5069,4.4303,4.3367,4.257,4.1969,4.1249,4.0555,5.3509,5.3509,5.3509,5.3923,5.4548,5.4921,5.4943,5.4746,5.4665,5.4094,5.3312,5.2555,5.1976,5.1561,5.1323,5.1217,5.1217,5.1217,5.1217,5.1217,5.1217,5.1217,5.1217,5.1217,5.1217,5.1217,5.1217,5.1217,5.1217,5.1217,5.1217,5.1217,5.1217,5.1217,5.1217,5.1217,5.1217,5.1217,5.1217,5.1217,5.1217,5.1187,5.0907,5.0488,5.0099,4.9542,4.8895,4.8338,4.7908,4.7608,4.7328,4.7298,4.7298,4.7298,4.7298,4.7298,4.7298,4.7298,4.7298,4.7298,4.7298,4.7298,4.7298,4.7298,4.7298,4.7298,4.7298,4.7298,4.7298,4.7298,4.7298,4.7298,4.7298,4.7298,4.7298,4.7298,4.7298,4.7279,4.7268,4.7238,4.7238,4.6969,4.6909,4.698,4.677,4.686,4.682,4.683,4.6711,4.677,4.677,4.68,4.6879,4.7059,4.716,4.701,4.701,4.6969,4.7059,4.7298,4.7298,4.7298,4.7244,4.7182,4.7233,4.6931,4.638,4.5719,4.5029,4.4277,4.3662,4.2831,4.216,4.1343,4.0696,5.3509,5.3509,5.3509,5.3619,5.383,5.4183,5.4492,5.4731,5.4254,5.3735,5.3345,5.2622,5.2048,5.1595,5.1334,5.1241,5.1217,5.1217,5.1217,5.1217,5.1217,5.1217,5.1217,5.1217,5.1217,5.1217,5.1217,5.1217,5.1217,5.1217,5.1217,5.1217,5.1217,5.1217,5.1217,5.1217,5.1217,5.1217,5.1217,5.1217,5.1217,5.1217,5.0996,5.0847,5.0458,4.9949,4.9572,4.8757,4.8308,4.8038,4.7519,4.7339,4.7298,4.7298,4.7298,4.7298,4.7298,4.7298,4.7298,4.7298,4.7298,4.7298,4.7298,4.7298,4.7298,4.7298,4.7298,4.7298,4.7298,4.7298,4.7298,4.7298,4.7298,4.7298,4.7298,4.7298,4.7298,4.7298,4.7298,4.7298,4.7298,4.7298,4.7298,4.7279,4.71,4.7219,4.7298,4.7298,4.7298,4.7298,4.7298,4.7298,4.7298,4.7298,4.7298,4.7189,4.7249,4.7268,4.7298,4.7298,4.7298,4.7298,4.7298,4.7233,4.7125,4.6789,4.6358,4.5709,4.5129,4.4693,4.4078,4.318,4.2316,4.1654,4.1132,5.3509,5.3509,5.3509,5.3509,5.3526,5.3632,5.3989,5.4264,5.38,5.3424,5.3148,5.248,5.2028,5.1757,5.1509,5.1334,5.1217,5.1217,5.1217,5.1217,5.1217,5.1217,5.1217,5.1217,5.1217,5.1217,5.1217,5.1217,5.1217,5.1217,5.1217,5.1217,5.1217,5.1217,5.1217,5.1217,5.1217,5.1217,5.1217,5.1217,5.1217,5.1217,5.1217,5.1128,5.0727,5.0518,5.0189,4.9284,4.8906,4.8427,4.7799,4.7549,4.7429,4.7298,4.7298,4.7298,4.7298,4.7298,4.7298,4.7298,4.7298,4.7298,4.7298,4.7298,4.7298,4.7298,4.7298,4.7298,4.7298,4.7298,4.7298,4.7298,4.7298,4.7298,4.7298,4.7298,4.7298,4.7298,4.7298,4.7298,4.7298,4.7298,4.7298,4.7298,4.7298,4.7298,4.7298,4.7298,4.7298,4.7298,4.7298,4.7298,4.7298,4.7298,4.7298,4.7298,4.7298,4.7298,4.7298,4.7298,4.7298,4.7298,4.7298,4.7135,4.6928,4.6709,4.6643,4.5895,4.5317,4.4964,4.4602,4.3812,4.3052,4.2407,4.1957,5.3509,5.3509,5.3509,5.3509,5.3492,5.3314,5.3407,5.3573,5.3238,5.3084,5.2839,5.2326,5.2007,5.1767,5.1604,5.1398,5.1288,5.1217,5.1217,5.1217,5.1217,5.1217,5.1217,5.1217,5.1217,5.1217,5.1217,5.1217,5.1217,5.1217,5.1217,5.1217,5.1217,5.1217,5.1217,5.1217,5.1217,5.1217,5.1217,5.1217,5.1217,5.1217,5.1217,5.1217,5.1086,5.0925,5.0446,5.0039,4.9692,4.8865,4.8308,4.8087,4.7698,4.7489,4.7459,4.7298,4.7298,4.7298,4.7298,4.7298,4.7298,4.7298,4.7298,4.7298,4.7298,4.7298,4.7298,4.7298,4.7298,4.7298,4.7298,4.7298,4.7298,4.7298,4.7298,4.7298,4.7298,4.7298,4.7298,4.7298,4.7298,4.7298,4.7298,4.7298,4.7298,4.7298,4.7298,4.7298,4.7298,4.7298,4.7298,4.7298,4.7298,4.7298,4.7298,4.7298,4.7298,4.7298,4.7298,4.7298,4.7298,4.7298,4.7328,4.7336,4.7339,4.7228,4.6987,4.6443,4.6007,4.5701,4.5233,4.448,4.3802,4.3258,4.2708,5.3509,5.3509,5.3509,5.3509,5.3484,5.3306,5.3082,5.2804,5.2311,5.2346,5.2596,5.2344,5.19,5.146,5.1538,5.1407,5.1174,5.1187,5.1217,5.1217,5.1217,5.1217,5.1217,5.1217,5.1217,5.1217,5.1217,5.1217,5.1217,5.1217,5.1217,5.1217,5.1217,5.1217,5.1217,5.1217,5.1217,5.1217,5.1217,5.1217,5.1217,5.1217,5.1217,5.1217,5.1146,5.1146,5.0757,5.0416,5.0147,4.974,4.9265,4.8727,4.8128,4.8057,4.7788,4.7429,4.7328,4.7298,4.7298,4.7298,4.7298,4.7298,4.7298,4.7298,4.7298,4.7298,4.7298,4.7298,4.7298,4.7298,4.7298,4.7298,4.7298,4.7298,4.7298,4.7298,4.7298,4.7298,4.7298,4.7298,4.7298,4.7298,4.7298,4.7298,4.7298,4.7298,4.7298,4.7298,4.7298,4.7298,4.7298,4.7298,4.7298,4.7298,4.7298,4.7298,4.7298,4.7298,4.7298,4.7298,4.7339,4.7459,4.7597,4.7842,4.7904,4.782,4.7663,4.7357,4.698,4.6584,4.5903,4.5151,4.4862,4.4401,4.3685,5.2976,5.301,5.3348,5.3509,5.3492,5.3382,5.3093,5.272,5.2289,5.2081,5.2026,5.1703,5.1279,5.0964,5.1167,5.1081,5.0887,5.1098,5.1187,5.1217,5.1158,5.1217,5.1217,5.1217,5.1217,5.1217,5.1217,5.1217,5.1217,5.1217,5.1217,5.1217,5.1217,5.1217,5.1217,5.1217,5.1217,5.1217,5.1217,5.1217,5.1217,5.1217,5.1217,5.1217,5.1217,5.1217,5.1116,5.0775,5.0506,5.0129,4.9565,4.9217,4.8708,4.8397,4.8128,4.7788,4.7549,4.7298,4.7298,4.7298,4.7298,4.7298,4.7298,4.7298,4.7298,4.7298,4.7298,4.7298,4.7298,4.7298,4.7298,4.7298,4.7298,4.7298,4.7298,4.7298,4.7298,4.7298,4.7298,4.7298,4.7298,4.7298,4.7298,4.7298,4.7298,4.7298,4.7298,4.7369,4.7369,4.7399,4.7369,4.7298,4.7298,4.7298,4.7298,4.7298,4.7298,4.7298,4.7298,4.7549,4.7668,4.7769,4.7897,4.8361,4.8592,4.8509,4.8307,4.8113,4.7811,4.7419,4.6661,4.5838,4.5621,4.5274,4.4484,5.2232,5.2401,5.3179,5.3509,5.3509,5.3501,5.3289,5.2929,5.2678,5.2173,5.1578,5.0936,5.0497,5.0489,5.0648,5.0415,5.0361,5.0486,5.075,5.0996,5.0996,5.1056,5.1146,5.1217,5.1217,5.1217,5.1217,5.1217,5.1217,5.1217,5.1217,5.1217,5.1217,5.1217,5.1217,5.1217,5.1217,5.1217,5.1217,5.1217,5.1217,5.1217,5.1217,5.1217,5.1217,5.1217,5.1217,5.1116,5.0805,5.0488,5.0002,4.9684,4.9277,4.8887,4.8457,4.8117,4.7568,4.7388,4.7298,4.7298,4.7298,4.7298,4.7298,4.7298,4.7298,4.7298,4.7298,4.7298,4.7298,4.7298,4.7298,4.7298,4.7298,4.7339,4.7339,4.7369,4.7369,4.7339,4.7328,4.7328,4.7298,4.7298,4.7328,4.7328,4.7399,4.7369,4.7429,4.7429,4.7489,4.7578,4.7608,4.7459,4.7298,4.7298,4.7298,4.7298,4.7298,4.7298,4.7369,4.7739,4.8068,4.8278,4.8607,4.9142,4.9296,4.9222,4.9075,4.8894,4.8575,4.8139,4.7261,4.6422,4.5874,4.5528,4.4958,5.1784,5.2367,5.3179,5.3509,5.3509,5.3509,5.3365,5.311,5.2748,5.2254,5.1624,5.0894,5.0419,5.0226,5.0329,5.0131,4.9742,4.9877,5.0103,5.0297,5.0398,5.0727,5.1026,5.1158,5.1187,5.1217,5.1217,5.1217,5.1217,5.1217,5.1217,5.1217,5.1217,5.1217,5.1217,5.1217,5.1217,5.1217,5.1217,5.1217,5.1217,5.1217,5.1217,5.1217,5.1217,5.1217,5.1217,5.1217,5.1116,5.0996,5.0828,5.044,5.0002,4.9445,4.8936,4.8397,4.7818,4.7459,4.7369,4.7298,4.7298,4.7298,4.7298,4.7298,4.7298,4.7298,4.7298,4.7298,4.7298,4.7298,4.7298,4.7298,4.7298,4.7429,4.7459,4.7519,4.7549,4.7489,4.7429,4.7388,4.7358,4.7388,4.7429,4.7519,4.7739,4.7829,4.8098,4.8098,4.8128,4.8038,4.7938,4.7668,4.7459,4.7298,4.7298,4.7298,4.7298,4.7298,4.7489,4.7997,4.8457,4.8858,4.9265,4.9841,5.0019,5.0001,4.9858,4.955,4.9083,4.8549,4.776,4.6977,4.6379,4.5848,4.5383]}]]